     2              OBSERVATION DATA    GPS                 RINEX VERSION / TYPE
teqc 1997Sep10 19970917 21:01:23UTC                         PGM / RUN BY / DATE
                                                            COMMENT
BIT 2 OF LLI FLAGS DATA COLLECTED UNDER A-S CONDITION       COMMENT
BIT 2 OF LLI FLAGS DATA COLLECTED UNDER A-S CONDITION       COMMENT
Original Marker Name: UCLA YOUNG HALL ROOF 1990             COMMENT
Campaign Name: UCLA LA Basin 1990-91                        COMMENT
4-Character Station Name: UCLA                              COMMENT
6-Character Antenna Code: TRMSST                            COMMENT
Vertical Measurement Point: BPA                             COMMENT
Vertical Offset to Rinex Ref. Point: 0.0000                 COMMENT
Radial Measurement Point: RRP                               COMMENT
Radial Offset to Rinex Ref. Point: 0.0000                   COMMENT
Antenna Height from Field Measurement: 0.0000 m             COMMENT
Original XYZ: -2518952.6600 -4650734.5461 3552820.4093      COMMENT
New XYZ position is based on association with SCEC monument COMMENT
E1C7Y6O1+0021. Position of that monument is believed to be  COMMENT
valid to within 1 m horizontally; vertical accuracy         COMMENT
should be no worse than 3-times this value.                 COMMENT
                                                            COMMENT
Revised Rinex header created by UCSD GPS archive for        COMMENT
GSAC on 06-Apr-1999 (1999:096) 05:50:49 GMT                 COMMENT
For assistance contact dagnew@ucsd.edu or hjohnson@ucsd.edu COMMENT
                                                            COMMENT
UCLA YOUNG HALL ROOF 1990                                   MARKER NAME
unknown UNIV CALIF LOS ANGELES                              OBSERVER / AGENCY
1050 TRIMBLE 4000 SST NP 4.30 / SP 4.20                     REC # / TYPE / VERS
267 TR 4000SST L1/L2 GEO                                    ANT # / TYPE
 -2518952.0000 -4650737.0000  3552822.0000                  APPROX POSITION XYZ
        0.0000        0.0000        0.0000                  ANTENNA: DELTA H/E/N
     1     1     0                                          WAVELENGTH FACT L1/2
     5    L1    L2    C1    D1    D2                        # / TYPES OF OBSERV
     0                                                      INTERVAL
  1990    12    27    18     1   45.000000                  TIME OF FIRST OBS
  1990    12    28    17    58   60.000000                  TIME OF LAST OBS
     0                                                      # OF SATELLITES
                                                            END OF HEADER
 90 12 27 18  1 45.0000000  0  4G17G21G 3G23
        -0.08257        -0.04273  21259159.8364        119.8444         93.3854
        -0.93517        -0.30132  22036465.617        3469.844        2703.774
        -0.78815        -0.05631  23721904.508       -2563.016       -1997.155
        -0.82217        -0.41733  20631476.195         970.797         756.465
 90 12 27 18  2  0.0000000  0  4G17G21G 3G23
     -1764.23247     -1374.73763  21258823.8134        115.6564         90.1224
    -52016.94447    -40532.24462  22026566.7584       3465.9064       2700.7064
     38475.123 5     29981.06821  23729226.227       -2566.797       -2000.101
    -14527.31347    -11319.76763  20628712.1564        966.3754        753.0194
 90 12 27 18  2 15.0000000  0  4G17G21G 3G23
     -3461.79347     -2697.54863  21258500.4144        110.9534         86.4574
   -103969.994 7    -81015.12522  22016680.789        3461.438        2697.224
     77011.35145     60009.16261  23736558.4924      -2571.0624      -2003.4254
    -28983.84547    -22584.60363  20625962.1254        961.4384        749.1724
 90 12 27 18  2 30.0000000  0  4G17G21G 3G23
     -5098.33447     -3972.80863  21258188.8754        106.5004         82.9874
   -155865.673 7   -121453.30122  22006803.641        3457.234        2693.949
    115602.08745     90079.76161  23743906.6564      -2575.0784      -2006.5544
    -43375.77447    -33799.10463  20623222.5474        956.7504        745.5194
 90 12 27 18  2 45.0000000  0  4G17G21G 3G23
     -6665.61847     -5194.10263  21257891.5554        102.5634         79.9194
   -207695.705 7   -161840.32222  21996943.117        3453.531        2691.063
    154255.07245    120198.84461  23751267.3754      -2578.5624      -2009.2694
    -57695.28847    -44957.17563  20620497.6024        952.6094        742.2934
 90 12 27 18  3  0.0000000  0  4G17G21G 3G23
     -8167.23147     -6364.22263  21257605.8754         97.9534         76.3274
   -259463.756 7   -202179.04222  21987090.039        3449.188        2687.679
    192966.580 5    150363.55421  23758622.398       -2582.687       -2012.484
    -71946.066 7    -56061.69323  20617784.273         947.813         738.555
 90 12 27 18  3 15.0000000  0  4G17G21G 3G23
     -9598.81347     -7479.77663  21257332.9694         93.2814         72.6874
   -311165.916 7   -242466.42122  21977252.477        3444.781        2684.245
    231739.99445    180576.48261  23766002.3284      -2586.7344      -2015.6374
    -86124.490 7    -67109.82723  20615087.516         943.016         734.817
 90 12 27 18  3 30.0000000  0  4G17G21G 3G23
    -10963.49547     -8543.19863  21257073.5634         88.5944         69.0344
   -362805.326 7   -282704.89722  21967425.859        3440.359        2680.800
    270571.818 5    210834.94521  23773396.844       -2590.891       -2018.876
   -100233.770 7    -78104.08923  20612402.031         938.141         731.019
 90 12 27 18  3 45.0000000  0  4G17G21G 3G23
    -12266.06247     -9558.22163  21256826.2194         84.7034         66.0024
   -414386.230 7   -322897.79122  21957609.266        3436.719        2677.963
    309457.303 5    241135.20321  23780794.516       -2594.156       -2021.420
   -114278.221 7    -89047.83223  20609729.828         934.078         727.853
 90 12 27 18  4  0.0000000  0  4G17G21G 3G23
    -13506.42147    -10524.77263  21256588.9064         80.3444         62.6064
   -465908.866 7   -363045.28222  21947804.352        3432.625        2674.773
    348396.01445    271476.93361  23788203.1954      -2597.9534      -2024.3794
   -128258.167 7    -99941.31023  20607070.680         929.594         724.359
 90 12 27 18  4 15.0000000  0  4G17G21G 3G23
    -14679.15747    -11438.62563  21256366.7194         75.9694         59.1964
   -517367.92547   -403143.23762  21938011.3284       3428.5004       2671.5584
    387392.86945    301863.98161  23795625.5944      -2601.6724      -2027.2774
   -142168.721 7   -110780.71523  20604422.539         925.094         720.852
 90 12 27 18  4 30.0000000  0  4G17G21G 3G23
    -15788.09447    -12302.76563  21256155.0704         71.5164         55.7264
   -568767.13447   -443194.56162  21928232.8204       3424.3134       2668.2954
    426443.68145    332293.05061  23803057.1414      -2605.4694      -2030.2354
   -156014.084 7   -121569.32423  20601788.148         920.563         717.321
 90 12 27 18  4 45.0000000  0  4G17G21G 3G23
    -16824.98747    -13110.76763  21255958.8134         66.9064         52.1354
   -620098.122 7   -483192.70122  21918464.203        3420.016        2664.947
    465556.34045    362770.33661  23810504.6954      -2609.3754      -2033.2794
   -169785.744 7   -132300.50223  20599167.602         915.844         713.644
 90 12 27 18  5  0.0000000  0  4G17G21G 3G23
    -17797.58647    -13868.66663  21255774.3054         62.3284         48.5674
   -671368.97147   -523144.01362  21908708.7034       3415.6724       2661.5634
    504722.79745    393289.50761  23817952.0944      -2613.2664      -2036.3114
   -183491.532 7   -142980.35023  20596559.195         911.141         709.980
 90 12 27 18  5 15.0000000  0  4G17G21G 3G23
    -18701.76647    -14573.25063  21255601.9534         58.3444         45.4634
   -722575.619 7   -563045.28422  21898965.641        3411.969        2658.677
    543946.70145    423853.47661  23825416.2274      -2616.4694      -2038.8074
   -197127.864 7   -153606.07523  20593962.922         907.125         706.851
 90 12 27 18  5 30.0000000  0  4G17G21G 3G23
    -19537.47547    -15224.47963  21255442.6564         53.1094         41.3844
   -773717.757 7   -602896.29022  21889232.016        3407.000        2654.805
    583227.74545    454461.96261  23832893.9924      -2620.9534      -2042.3014
   -210694.706 7   -164177.65023  20591381.891         901.828         702.723
 90 12 27 18  5 45.0000000  0  4G17G21G 3G23
    -20302.94647    -15820.98263  21255298.2274         48.9064         38.1094
   -824793.542 7   -642695.58422  21879513.883        3403.094        2651.761
    622567.332 5    485116.05121  23840377.805       -2624.344       -2044.943
   -224190.348 7   -174693.75623  20588813.938         897.578         699.412
 90 12 27 18  6  0.0000000  0  4G17G21G 3G23
    -21006.93647    -16369.58063  21255162.2274         44.7974         34.9074
   -875812.327 7   -682450.47022  21869804.977        3399.234        2648.754
    661955.99045    515808.38861  23847875.5394      -2627.5784      -2047.4634
   -237624.059 7   -185161.59223  20586257.305         893.422         696.173
 90 12 27 18  6 14.9990000  0  4G17G21G 3G23
    -21642.64047    -16864.96663  21255043.7224         40.0634         31.2184
   -926763.715 7   -722152.83622  21860108.308        3394.813        2645.308
    701397.623 5    546542.00721  23855381.448       -2631.531       -2050.544
   -250988.217 7   -195575.23423  20583715.597         888.688         692.484
 90 12 27 18  6 29.9990000  0  4G17G21G 3G23
    -22214.49847    -17310.60963  21254934.3154         35.6564         27.7844
   -977658.494 7   -761811.09322  21850422.269        3390.656        2642.070
    740893.06145    577317.54961  23862896.7064      -2635.0624      -2053.2954
   -264289.010 7   -205939.50123  20581184.628         884.234         689.014
 90 12 27 18  6 44.9990000  0  4G17G21G 3G23
    -22718.62647    -17703.46663  21254836.5654         31.5634         24.5944
  -1028489.761 7   -801419.85822  21840749.612        3386.828        2639.087
    780442.82745    608135.42161  23870425.7534      -2638.2344      -2055.7674
   -277522.249 7   -216251.12823  20578665.269         880.156         685.836
 90 12 27 18  6 59.9990000  0  4G17G21G 3G23
    -23155.91947    -18044.24863  21254753.9254         27.0164         21.0514
  -1079258.580 7   -840979.96522  21831089.167        3382.594        2635.787
    820045.657 5    638994.64221  23877964.026       -2641.844       -2058.580
   -290688.629 7   -226510.66123  20576159.698         875.625         682.305
 90 12 27 18  7 14.9990000  0  4G17G21G 3G23
    -23526.48947    -18333.03863  21254685.2454         22.5004         17.5324
  -1129964.852 7   -880491.33122  21821440.198        3378.344        2632.476
    859700.89945    669894.72161  23885499.8704      -2645.4224      -2061.3684
   -303788.696 7   -236718.52523  20573667.355         871.141         678.811
 90 12 27 18  7 29.9990000  0  4G17G21G 3G23
    -23827.04747    -18567.27063  21254624.0974         17.5944         13.7094
  -1180605.312 7   -919951.40922  21811803.581        3373.766        2628.908
    899411.838 5    700838.17921  23893064.237       -2649.328       -2064.412
   -316819.021 7   -246872.05123  20571188.409         866.281         675.024
 90 12 27 18  7 44.9990000  0  4G17G21G 3G23
    -24055.76547    -18745.52363  21254579.2534         13.2034         10.2884
  -1231178.714 7   -959359.23822  21802180.323        3369.672        2625.718
    939179.368 5    731825.74421  23900636.761       -2652.703       -2067.041
   -329778.37347   -256970.27463  20568722.2064        861.9224        671.6274
 90 12 27 18  7 59.9990000  0  4G17G21G 3G23
    -24220.27847                  21254548.7304          8.6414
  -1281692.506 7   -998720.61722  21792568.995        3365.406        2622.394
    978995.800 5    762851.38821  23908203.347       -2656.219       -2069.781
   -342674.576 7   -267019.28623  20566267.995         857.453         668.145
 90 12 27 18  8 14.9990000  0  4G17G21G 3G23
    -24314.83747                  21254533.4174          4.6414
  -1332140.726 7  -1038030.89522  21782969.190        3361.719        2619.521
   1018866.37245    793919.25661  23915793.4334      -2659.1564      -2072.0704
   -355501.810 7   -277014.55423  20563825.659         853.531         665.089
 90 12 27 18  8 29.9990000  0  4G17G21G 3G23
    -24347.79647                  21254528.5344         -0.1414
  -1382531.850 7  -1077296.69622  21773378.815        3357.219        2616.015
   1058782.521 5    825022.62321  23923385.706       -2662.875       -2074.968
   -368268.501 7   -286962.64523  20561396.269         848.813         661.412
 90 12 27 18  8 44.9990000  0  4G17G21G 3G23
    -24319.04047                  21254534.5344         -4.5784
  -1432865.581 7  -1116517.76722  21763799.112        3353.063        2612.776
   1098743.91045    856161.22061  23930994.2224      -2666.1724      -2077.5374
   -380974.919 7   -296863.76423  20558979.073         844.500         658.052
 90 12 27 18  8 59.9990000  0  4G17G21G 3G23
    -24221.66347                  21254551.0504         -8.5784
  -1483135.159 7  -1155688.84822  21754234.605        3349.359        2609.890
   1138757.011 5    887340.14621  23938598.128       -2669.109       -2079.825
   -393614.671 7   -306712.93523  20556574.073         840.609         655.020
 90 12 27 18  9 14.9990000  0  4G17G21G 3G23
    -24058.982 7                  21254580.276         -12.797
  -1533343.961 7  -1194812.57522  21744679.058        3345.484        2606.871
   1178818.14145    918556.48461  23946228.7304      -2672.0624      -2082.1274
   -406190.740 7   -316512.49523  20554179.323         836.547         651.855
 90 12 27 18  9 29.9990000  0  4G17G21G 3G23
    -23830.050 7                  21254624.323         -17.766
  -1583491.326 7  -1233888.42822  21735135.831        3340.797        2603.218
   1218927.581 5    949810.46121  23953860.222       -2675.875       -2085.097
   -418702.870 7   -326262.23123  20551798.284         831.703         648.080
 90 12 27 18  9 44.9990000  0  4G17G21G 3G23
    -23528.691 7    -18335.05523  21254683.136         -22.641         -17.642
  -1633570.988 7  -1272911.52522  21725607.440        3336.234        2599.663
   1259091.226 5    981106.68321  23961506.355       -2679.531       -2087.946
   -431144.50747   -335957.04063  20549431.0974        826.9694        644.3914
 90 12 27 18  9 59.9990000  0  4G17G21G 3G23
    -23156.123 7    -18044.76423  21254755.175         -26.922         -20.978
  -1683584.100 7  -1311882.76322  21716090.448        3332.281        2596.583
   1299307.525 5   1012443.94021  23969170.745       -2682.562       -2090.308
   -443517.134 7   -345598.06823  20547077.495         822.844         641.177
 90 12 27 18 10 14.9990000  0  4G17G21G 3G23
    -22719.82747    -17704.81963  21254836.6124        -31.5784        -24.6064
  -1733537.970 7  -1350807.83822  21706583.292        3327.938        2593.198
   1339568.86345   1043816.25061  23976820.2534      -2685.9224      -2092.9264
   -455828.542 7   -355191.40123  20544735.581         818.359         637.683
 90 12 27 18 10 29.9990000  0  4G17G21G 3G23
    -22211.52747    -17308.77463  21254935.5654        -35.9844        -28.0404
  -1783424.577 7  -1389680.49922  21697088.925        3323.828        2589.996
   1379882.94045   1075229.69261  23984489.5114      -2689.0474      -2095.3614
   -468070.626 7   -364730.71223  20542404.800         814.125         634.383
 90 12 27 18 10 44.9990000  0  4G17G21G 3G23
    -21651.02647    -16872.04663  21255042.7764        -39.5314        -30.8044
  -1833263.674 7  -1428516.13722  21687605.097        3320.594        2587.476
   1420229.668 5   1106668.55721  23992171.690       -2691.266       -2097.090
   -480263.26247   -374231.49463  20540085.7454        810.7814        631.7784
 90 12 27 18 10 59.9990000  0  4G17G21G 3G23
    -21027.72747    -16386.39363  21255160.5734        -42.7344        -33.3004
  -1883044.710 7  -1467306.53522  21678132.972        3317.703        2585.223
   1460619.131 5   1138140.73621  23999859.230       -2693.109       -2098.527
   -492396.13947   -383685.70863  20537776.2764        807.8134        629.4644
 90 12 27 18 11 14.9990000  0  4G17G21G 3G23
    -20349.47747    -15857.91463  21255287.6754        -47.5314        -37.0374
  -1932775.557 7  -1506057.82922  21668669.503        3313.250        2581.753
   1501043.06245   1169639.72661  24007545.7224      -2696.5314      -2101.1934
   -504477.702 7   -393099.93723  20535478.526         803.250         625.909
 90 12 27 18 11 29.9990000  0  5G17G21G 3G23G11
    -19604.31047    -15277.29163  21255430.2304        -51.5314        -40.1544
  -1982444.544 7  -1544760.91722  21659217.331        3309.578        2578.892
   1541512.809 5   1201174.48421  24015256.167       -2699.109       -2103.202
   -516496.14247   -402464.98363  20533190.7844        799.5164        622.9994
    -78002.81345                  24502521.8704       5199.7034
 90 12 27 18 11 44.9990000  0  5G17G21G 3G23G11
    -18789.93247    -14642.74263  21255583.9094        -57.1254        -44.5134
  -2032049.371 7  -1583414.01322  21649775.683        3304.313        2574.789
   1582030.49844   1232746.56361  24022954.7694      -2703.3444      -2106.5024
   -528449.149 7   -411779.03923  20530916.948         794.141         618.811
   -155978.44145                  24487680.4954       5196.9534
 90 12 27 18 11 59.9990000  0  5G17G21G 3G23G11
    -17903.982 7    -13952.41723  21255753.230         -60.984         -47.520
  -2081587.407 7  -1622015.06322  21640350.644        3300.781        2572.037
   1622598.214 5   1264357.64821  24030683.878       -2705.719       -2108.352
   -540334.15947   -421040.11163  20528654.8314        790.5314        615.9984
   -233924.86745                  24472845.6124       5195.9064
 90 12 27 18 12 14.9990000  0  5G17G21G 3G23G11
    -16956.84147    -13214.41563  21255933.9724        -65.1414        -50.7594
  -2131069.171 7  -1660572.26822  21630933.722        3296.953        2569.054
   1663205.09445   1295999.19861  24038406.9254      -2708.3284      -2110.3864
   -552161.892 7   -430256.55523  20526403.597         786.672         612.991
   -311852.199 5                  24458016.487        5194.563
 90 12 27 18 12 29.9990000  0  5G17G21G 3G23G11
    -15951.64847    -12431.17963  21256125.0974        -69.2504        -53.9614
  -2180498.096 7  -1699088.30322  21621528.690        3293.172        2566.108
   1703847.24945   1327668.27261  24046139.8234      -2711.0004      -2112.4684
   -563935.83647   -439431.08163  20524162.4484        782.8284        609.9964
   -389763.423 5        -0.32231  24443190.706        5193.234        4046.676
 90 12 27 18 12 44.9990000  0  5G17G21G 3G23G11
    -14876.19647    -11593.19263  21256330.5344        -73.8754        -57.5654
  -2229861.447 7  -1737553.23522  21612135.136        3288.875        2562.760
   1744537.19045   1359374.57461  24053886.5894      -2714.0624      -2114.8544
   -575643.826 7   -448554.21623  20521935.198         778.500         606.623
   -467645.47245    -60687.57161  24428368.7694       5191.3444       4045.2034
 90 12 27 18 12 59.9990000  0  5G17G21G 3G23G11
    -13728.38847    -10698.82963  21256548.8314        -79.4374        -61.8994
  -2279157.547 7  -1775965.76022  21602754.706        3283.688        2558.718
   1785276.15845   1391119.07461  24061625.0584      -2718.0474      -2117.9594
   -587283.63747   -457624.22463  20519720.3474        773.2344        602.5204
   -545496.346 5   -121350.55321  24413555.440        5188.516        4042.999
 90 12 27 18 13 14.9990000  0  5G17G21G 3G23G11
    -12494.74147     -9737.57563  21256781.3944        -83.8594        -65.3454
  -2328373.12447  -1814315.54762  21593390.1444       3279.5944       2555.5284
   1826077.28545   1422912.00961  24069404.6204      -2720.8754      -2120.1624
   -598842.634 7   -466631.26023  20517520.933         769.156         599.343
   -623302.22645   -181978.45961  24398751.9954       5186.7974       4041.6604
 90 12 27 18 13 29.9990000  0  5G17G21G 3G23G11
    -11202.02147     -8730.29863  21257029.3394        -88.7194        -69.1314
  -2377534.605 7  -1852623.18322  21584033.526        3275.078        2552.009
   1866913.634 5   1454732.39021  24077176.417       -2724.141       -2122.707
   -610347.472 7   -475596.09023  20515331.050         764.609         595.800
   -701089.435 5   -242591.80521  24383951.472        5184.609        4039.955
 90 12 27 18 13 44.9990000  0  5G17G21G 3G23G11
     -9839.61047     -7668.71163  21257287.1444        -92.5474        -72.1144
  -2426631.68247  -1890880.63962  21574691.1054       3271.5944       2549.2944
   1907795.15645   1486587.97361  24084952.2844      -2726.2974      -2124.3874
   -621787.890 7   -484510.72523  20513154.019         761.156         593.109
   -778847.14045   -303182.17861  24369151.9334       5183.4534       4039.0544
 90 12 27 18 13 59.9990000  0  4G17G21G23G11
     -8410.28347     -6554.98063  21257559.6124        -97.8594        -76.2544
  -2475666.96847  -1929089.94862  21565360.1444       3266.6094       2545.4104
   -633166.561 7   -493377.24523  20510987.667         756.188         589.237
   -856577.59845   -363751.37161  24354357.7454       5180.7664       4036.9604
 90 12 27 18 14 14.9990000  0  4G17G21G23G11
     -6912.06747     -5387.57663  21257847.0424       -102.0944        -79.5544
  -2524638.71147  -1967249.73862  21556042.3394       3262.7664       2542.4154
   -644481.95547   -502194.46363  20508834.2614        752.3594        586.2544
   -934278.69045   -424297.62561  24339574.3704       5179.1724       4035.7184
 90 12 27 18 14 29.9990000  0  4G17G21G23G11
     -5345.50847     -4166.91763  21258145.0424       -106.5474        -83.0244
  -2573547.34547  -2005360.35362  21546735.0734       3258.6414       2539.2004
   -655734.70447   -510962.87163  20506693.4484        748.2664        583.0644
  -1011950.530 5   -484821.06721  24324790.620        5177.313        4034.269
 90 12 27 18 14 44.9990000  0  4G17G21G23G11
     -3719.61847     -2900.03163  21258453.5654       -110.6414        -86.2134
  -2622401.70047  -2043428.68362  21537437.4254       3254.8754       2536.2664
   -666933.66747   -519689.36863  20504564.0264        744.5314        580.1544
  -1089601.625 5   -545328.39421  24310018.206        5175.766        4033.064
 90 12 27 18 14 59.9990000  0  4G17G21G23G11
     -2023.50047     -1578.42063  21258775.1904       -115.4064        -89.9274
  -2671191.26347  -2081446.52062  21528155.6124       3250.4694       2532.8334
   -678068.48347   -528365.87663  20502445.1834        740.1724        576.7574
  -1167220.94945   -605810.96961  24295249.9404       5173.5314       4031.3234
 90 12 27 18 15 14.9990000  0  4G17G21G23G11
      -256.01047      -201.19063  21259112.3944       -120.1254        -93.6044
  -2719914.80847  -2119412.91362  21518882.2374       3246.1254       2529.4484
   -689137.77847   -536991.32863  20500339.0424        735.8754        573.4094
  -1244806.84445   -666267.49161  24280485.0974       5171.3594       4029.6314
 90 12 27 18 15 29.9990000  0  4G17G21G23G11
      1577.84647      1227.75263  21259460.7924       -124.7034        -97.1714
  -2768577.43347  -2157331.83862  21509621.7924       3241.9224       2526.1734
   -700147.146 7   -545570.07823  20498243.753         731.734         570.183
  -1322364.05845   -726701.67461  24265723.9724       5169.2814       4028.0114
 90 12 27 18 15 44.9990000  0  4G17G21G23G11
      3478.63047      2708.85163  21259824.0114       -129.1414       -100.6294
  -2817178.66647  -2195202.93162  21500372.6054       3237.8444       2522.9954
   -711096.05547   -554101.72363  20496161.6364        727.7344        567.0664
  -1399891.698 5   -787112.79421  24250969.261        5167.313        4026.477
 90 12 27 18 15 59.9990000  0  4G17G21G23G11
      5453.83247      4247.93263  21260199.1514       -134.0624       -104.4644
  -2865710.77847  -2233020.16162  21491138.0194       3233.2504       2519.4164
   -721977.242 7   -562580.59123  20494089.948         723.250         563.571
  -1477381.646 5   -847494.55821  24236227.003        5164.781        4024.505
 90 12 27 18 16 14.9990000  0  4G17G21G23G11
      7494.60247      5838.10663  21260587.8314       -138.5474       -107.9594
  -2914182.62947  -2270790.43762  21481912.6904       3229.1564       2516.2264
   -732799.588 7   -571013.61423  20492030.472         719.219         560.430
  -1554842.475 5   -907853.63521  24221486.753        5162.797        4022.959
 90 12 27 18 16 29.9990000  0  4G17G21G23G11
      9604.14447      7481.87063  21260990.5034       -142.7974       -111.2704
  -2962591.17747  -2308511.37962  21472702.4254       3225.2664       2513.1944
   -743559.970 7   -579398.34723  20489983.003         715.438         557.484
  -1632270.820 5   -968187.38121  24206755.886        5160.953        4021.522
 90 12 27 18 16 44.9990000  0  4G17G21G23G11
     11780.88947      9178.00063  21261402.6364       -147.3594       -114.8254
  -3010938.24247  -2346184.42262  21463502.1594       3221.0784       2509.9314
   -754260.344 7   -587736.32223  20487946.370         711.344         554.294
  -1709667.923 5  -1028496.80521  24192026.347        5158.719        4019.781
 90 12 27 18 16 59.9990000  0  4G17G21G23G11
     14024.78347     10926.45663  21261829.7064       -151.9374       -118.3934
  -3059223.85447  -2383809.57362  21454313.2374       3216.8754       2506.6564
   -764901.046 7   -596027.80023  20485920.573         707.281         551.128
  -1787033.48145  -1088781.58461  24177305.9644       5156.5314       4018.0764
 90 12 27 18 17 14.9990000  0  4G17G21G23G11
     16336.43847     12727.70963  21262270.3004       -157.0004       -122.3384
  -3107447.33747  -2421386.30862  21445135.4254       3212.1884       2503.0034
   -775481.551 7   -604272.36923  20483908.792         702.734         547.585
  -1864366.36245  -1149040.95161  24162586.0504       5153.7814       4015.9334
 90 12 27 18 17 29.9990000  0  4G17G21G23G11
     18717.88347     14583.34563  21262723.7224       -160.5474       -125.1014
  -3155606.56547  -2458912.98062  21435971.8864       3209.0164       2500.5324
   -786000.080 7   -612468.64623  20481907.534         699.719         545.235
  -1941664.230 5  -1209273.04021  24147876.612        5152.578        4014.996
 90 12 27 18 17 44.9990000  0  4G17G21G23G11
     21157.09147     16483.98863  21263188.4804       -165.1414       -128.6814
  -3203713.57047  -2496398.95562  21426817.9334       3204.7974       2497.2444
   -796468.700 7   -620626.03123  20479914.026         695.672         542.082
  -2018938.81745  -1269487.02161  24133171.9954       5150.2504       4013.1824
 90 12 27 18 17 59.9990000  0  4G17G21G23G11
     23669.44547     18441.63763  21263665.8004       -169.3754       -131.9814
  -3251753.01147  -2533832.28362  21417676.9724       3200.9224       2494.2254
   -806872.304 7   -628732.75423  20477936.355         691.969         539.196
  -2096174.24145  -1329670.42961  24118473.4334       5148.2814       4011.6484
 90 12 27 18 18 14.9990000  0  4G17G21G23G11
     26246.24947     20449.50463  21264156.3314       -173.6724       -135.3294
  -3299733.68147  -2571219.81362  21408544.9014       3197.0314       2491.1934
   -817219.588 7   -636795.59523  20475964.894         688.234         536.287
  -2173378.91145  -1389829.88361  24103781.6284       5146.2194       4010.0414
 90 12 27 18 18 29.9990000  0  4G17G21G23G11
     28889.076 7     22508.82423  21264658.659        -178.969        -139.456
  -3347654.32747  -2608560.57462  21399427.3314       3192.0944       2487.3464
   -827509.377 7   -644813.62723  20474008.144         683.469         532.573
  -2250551.04845  -1449963.95761  24089098.2374       5143.1564       4007.6544
 90 12 27 18 18 44.9990000  0  4G17G21G23G11
     31611.72547     24630.33863  21265177.4484       -183.8914       -143.2914
  -3395500.82047  -2645843.55062  21390322.2454       3187.5784       2483.8274
   -837727.51847   -652775.82563  20472063.1284        679.1094        529.1764
  -2327676.128 5  -1510061.39921  24074423.026        5140.359        4005.475
 90 12 27 18 18 59.9990000  0  4G17G21G23G11
     34402.29547     26804.77963  21265708.8624       -187.9224       -146.4334
  -3443285.28147  -2683078.19962  21381228.7844       3183.9384       2480.9904
   -847886.495 7   -660691.92623  20470129.136         675.672         526.498
  -2404766.09545  -1570131.48461  24059752.0114       5138.5474       4004.0634
 90 12 27 18 19 14.9990000  0  4G17G21G23G11
     37256.68147     29028.94563  21266251.7144       -192.7344       -150.1834
  -3491011.75647  -2720267.65762  21372147.3704       3179.5474       2477.5694
   -857990.350 7   -668565.07823  20468205.198         671.469         523.222
  -2481824.40845  -1630176.91761  24045088.8314       5135.8444       4001.9564
 90 12 27 18 19 29.9990000  0  4G17G21G23G11
     40180.44047     31307.16663  21266807.9874       -196.9694       -153.4824
  -3538674.79547  -2757407.68362  21363077.2064       3175.6884       2474.5624
   -868034.322 7   -676391.56923  20466294.480         667.875         520.422
  -2558845.266 5  -1690193.15421  24030433.222        5133.703        4000.288
 90 12 27 18 19 44.9990000  0  4G17G21G23G11
     43172.99647     33638.99463  21267375.8234       -201.7504       -157.2084
  -3586275.02747  -2794498.76762  21354020.4804       3171.3134       2471.1534
   -878018.947 7   -684171.81723  20464394.722         663.703         517.171
  -2635828.95945  -1750180.41261  24015785.1514       5131.0314       3998.2064
 90 12 27 18 19 59.9990000  0  4G17G21G23G11
     46235.99347     36025.71463  21267960.5894       -206.5784       -160.9704
  -3633810.96147  -2831539.74762  21344974.1124       3166.8914       2467.7074
   -887942.431 7   -691904.42223  20462506.894         659.516         513.908
  -2712773.51545  -1810137.18361  24001143.6124       5128.2974       3996.0754
 90 12 27 18 20 14.9990000  0  4G17G21G23G11
     49370.680 7     38468.30223  21268557.511        -211.156        -164.537
  -3681281.17347  -2868529.52162  21335940.0894       3162.7034       2464.4444
   -897803.924 7   -699588.71724  20460630.183         655.578         510.840
  -2789677.14545  -1870062.05761  23986509.8784       5125.7504       3994.0914
 90 12 27 18 20 29.9990000  0  4G17G21G23G11
     52574.749 7     40964.95323  21269167.355        -215.687        -168.068
  -3728687.82247  -2905469.76262  21326918.6674       3158.5634       2461.2184
   -907605.612 7   -707226.41023  20458766.073         651.703         507.821
  -2866541.597 5  -1929956.42421  23971878.589        5123.203        3992.106
 90 12 27 18 20 44.9990000  0  4G17G21G23G11
     55847.094 7     43514.81123  21269788.745        -220.766        -172.025
  -3776032.18047  -2942361.45862  21317910.2844       3153.8754       2457.5654
   -917349.127 7   -714818.77324  20456911.097         647.281         504.375
  -2943368.011 5  -1989821.13421  23957260.714        5120.141        3989.720
 90 12 27 18 20 59.9990000  0  4G17G21G23G11
     59187.341 7     46117.58623  21270425.300        -224.984        -175.312
  -3823314.680 7  -2979204.95122  21308910.948        3150.078        2454.606
   -927034.571 7   -722365.88723  20455068.839         643.734         501.611
  -3020156.18645  -2049656.04061  23942646.8864       5117.8914       3987.9674
 90 12 27 18 21 14.9990000  0  4G17G21G23G11
     62592.650 7     48771.05123  21271071.253        -229.578        -178.892
  -3870538.14147  -3016002.44562  21299925.7764       3145.8754       2451.3314
   -936665.00747   -729870.13063  20453235.0344        639.8134        498.5554
  -3096908.53645  -2109463.05261  23928040.3864       5115.2034       3985.8734
 90 12 27 18 21 29.9990000  0  4G17G21G23G11
     66070.575 7     51481.10223  21271732.534        -234.078        -182.399
  -3917695.109 7  -3052748.11722  21290952.878        3141.813        2448.166
   -946233.341 7   -737325.99123  20451413.784         636.047         495.621
  -3173617.194 5  -2169236.00921  23913444.815        5112.656        3983.888
 90 12 27 18 21 44.9990000  0  4G17G21G23G11
     69619.708 7     54246.63723  21272410.792        -239.250        -186.429
  -3964787.040 7  -3089443.11422  21281991.464        3137.016        2444.428
   -955741.158 7   -744734.69523  20449605.737         631.563         492.127
  -3250283.29745  -2228975.82361  23898854.3474       5109.3594       3981.3194
 90 12 27 18 21 59.9990000  0  4G17G21G23G11
     73238.468 7     57066.42823  21273098.737        -243.594        -189.813
  -4011815.580 7  -3126088.71022  21273042.487        3133.109        2441.384
   -965190.000 7   -752097.44923  20447807.425         627.953         489.314
  -3326907.93145  -2288683.32961  23884273.0424       5106.9064       3979.4074
 90 12 27 18 22 14.9990000  0  4G17G21G23G11
     76926.515 7     59940.21323  21273800.800        -248.266        -193.454
  -4058781.117 7  -3162685.22422  21264106.815        3128.844        2438.060
   -974580.415 7   -759414.67824  20446019.222         624.000         486.234
  -3403491.23845  -2348358.63161  23869700.5974       5104.0944       3977.2164
 90 12 27 18 22 29.9990000  0  4G17G21G23G11
     80682.822 7     62867.18223  21274514.987        -252.500        -196.753
  -4105684.424 7  -3199233.24322  21255178.761        3125.016        2435.077
   -983913.433 7   -766687.17324  20444243.972         620.500         483.506
  -3480033.62945  -2408002.03661  23855132.0584       5101.6414       3975.3044
 90 12 27 18 22 44.9990000  0  4G17G21G23G11
     84514.830 7     65853.14623  21275243.245        -257.531        -200.674
  -4152518.42047  -3235727.25962  21246267.3864       3120.4064       2431.4854
   -993182.014 7   -773909.46523  20442481.214         616.203         480.158
  -3556527.348 5  -2467607.53221  23840579.058        5098.391        3972.772
 90 12 27 18 22 59.9990000  0  4G17G21G23G11
     88412.029 7     68889.89323  21275984.995        -262.203        -204.314
  -4199293.582 7  -3272175.41922  21237364.831        3116.172        2428.186
  -1002397.013 7   -781089.99823  20440728.120         612.359         477.163
  -3632982.55845  -2527182.97261  23826030.5894       5095.5164       3970.5324
 90 12 27 18 23 14.9990000  0  4G17G21G23G11
     92377.929 7     71980.18423  21276741.128        -266.687        -207.808
  -4246006.509 7  -3308575.09622  21228476.776        3112.125        2425.032
  -1011555.263 7   -788226.31223  20438984.089         608.656         474.278
  -3709395.43745  -2586725.45161  23811485.3474       5092.7814       3968.4014
 90 12 27 18 23 29.9990000  0  4G17G21G23G11
     96409.18847     75121.39463  21277506.6904       -271.0004       -211.1694
  -4292660.56747  -3344928.89562  21219599.3864       3108.2194       2421.9894
  -1020659.768 7   -795320.74523  20437251.894         605.094         471.502
  -3785768.949 5  -2646237.25721  23796956.612        5090.172        3966.368
 90 12 27 18 23 44.9990000  0  4G17G21G23G11
    100509.893 7     78316.72323  21278287.261        -275.453        -214.639
  -4339251.50047  -3381233.51362  21210732.5114       3104.2034       2418.8604
  -1029706.471 7   -802370.13823  20435530.839         601.453         468.665
  -3862098.594 5  -2705714.90121  23782433.675        5087.406        3964.213
 90 12 27 18 23 59.9990000  0  4G17G21G23G11
    104676.951 7     81563.75623  21279081.917        -279.797        -218.024
  -4385782.46247  -3417491.39462  21201877.6284       3100.2974       2415.8164
  -1038698.856 7   -809377.20524  20433819.870         597.922         465.913
  -3938387.018 5  -2765160.38621  23767917.761        5084.719        3962.119
 90 12 27 18 24 14.9990000  0  4G17G21G23G11
    108913.900 7     84865.25023  21279888.245        -284.672        -221.822
  -4432249.85747  -3453699.74762  21193035.7534       3095.8284       2412.3344
  -1047633.500 7   -816339.28524  20432118.464         593.844         462.735
  -4014630.178 5  -2824570.62921  23753406.886        5081.469        3959.586
 90 12 27 18 24 29.9980000  0  4G17G21G23G11
    113222.009 7     88222.19223  21280706.881        -289.266        -225.402
  -4478649.276 7  -3489855.12822  21184206.022        3091.688        2409.107
  -1056508.498 7   -823254.89023  20430430.014         590.094         459.813
  -4090821.464 5  -2883940.45521  23738908.857        5078.531        3957.297
 90 12 27 18 24 44.9980000  0  4G17G21G23G11
    117603.453 7     91636.28123  21281540.842        -294.891        -229.785
  -4524985.47947  -3525961.24962  21175388.3114       3086.5164       2405.0774
  -1065323.860 7   -830124.01524  20428753.967         585.328         456.100
  -4166968.917 5  -2943276.10421  23724418.623        5074.500        3954.156
 90 12 27 18 24 59.9980000  0  4G17G21G23G11
    122049.666 7     95100.83523  21282387.045        -298.141        -232.317
  -4571263.58647  -3562022.10562  21166581.1394       3083.7034       2402.8864
  -1074086.966 7   -836952.42123  20427087.029         582.875         454.188
  -4243075.12245  -3002579.60861  23709929.7254       5072.7814       3952.8174
 90 12 27 18 25 14.9980000  0  4G17G21G23G11
    126557.35747     98613.29163  21283244.3894       -303.2034       -236.2624
  -4617486.73447  -3598040.14162  21157786.0844       3079.0634       2399.2694
  -1082800.963 7   -843742.56324  20425430.123         578.672         450.913
  -4319142.99245  -3061853.26261  23695454.1004       5069.2664       3950.0774
 90 12 27 18 25 29.9980000  0  4G17G21G23G11
    131143.96147    102187.24363  21284118.2724       -307.9374       -239.9514
  -4663637.27747  -3634001.60562  21149003.9364       3074.7504       2395.9094
  -1091448.714 7   -850481.08623  20423781.561         574.781         447.881
  -4395154.611 5  -3121083.07921  23680993.326        5066.016        3947.545
 90 12 27 18 25 44.9980000  0  4G17G21G23G11
    135800.659 7    105815.81323  21285005.045        -312.359        -243.397
  -4709724.22747  -3669913.50862  21140233.5534       3070.7664       2392.8044
  -1100039.471 7   -857175.20124  20422146.717         571.234         445.118
  -4471118.397 5  -3180275.60421  23666538.006        5063.094        3945.268
 90 12 27 18 25 59.9980000  0  4G17G21G23G11
    140530.402 7    109501.30323  21285903.475        -317.609        -247.488
  -4755744.94147  -3705773.80662  21131475.1314       3065.9694       2389.0674
  -1108570.80247   -863823.00264  20420522.8574        566.9064        441.7454
  -4547031.31545  -3239428.49561  23652091.5224       5059.2974       3942.3094
 90 12 27 18 26 14.9980000  0  4G17G21G23G11
    145326.87247    113238.78063  21286816.9124       -321.9374       -250.8604
  -4801705.79847  -3741587.47062  21122730.3114       3062.0944       2386.0474
  -1117048.989 7   -870429.39524  20418909.740         563.484         439.079
  -4622899.37046  -3298546.43361  23637655.6624       5056.4064       3940.0574
 90 12 27 18 26 29.9980000  0  4G17G21G23G11
    150194.23647    117031.50363  21287743.8344       -326.6414       -254.5254
  -4847602.38047  -3777351.03962  21113996.2564       3057.8444       2382.7354
  -1125469.995 7   -876991.23124  20417306.717         559.703         436.132
  -4698717.917 5  -3357625.81621  23623228.311        5053.125        3937.500
 90 12 27 18 26 44.9980000  0  4G17G21G23G11
    155130.04347    120877.55263  21288682.3184       -331.1414       -258.0324
  -4893437.06747  -3813066.38462  21105273.8734       3053.7664       2379.5584
  -1133836.046 7   -883510.25424  20415713.795         556.094         433.320
  -4774488.815 5  -3416668.04521  23608807.615        5049.969        3935.041
 90 12 27 18 26 59.9980000  0  4G17G21G23G11
    160131.32947    124774.62863  21289633.9284       -335.3594       -261.3194
  -4939212.90247  -3848735.87062  21096562.5064       3050.0164       2376.6364
  -1142150.281 7   -889988.90024  20414133.412         552.797         430.751
  -4850214.653 5  -3475675.16521  23594397.959        5047.109        3932.813
 90 12 27 18 27 14.9980000  0  4G17G21G23G11
    165203.17147    128726.67363  21290599.3974       -340.6414       -265.4344
  -4984924.90547  -3884355.62262  21087863.8344       3045.1724       2372.8614
  -1150407.937 7   -896423.45424  20412563.631         548.453         427.366
  -4925889.924 6  -3534642.89721  23580000.857        5043.156        3929.732
 90 12 27 18 27 29.9980000  0  4G17G21G23G11
    170350.66547    132737.67863  21291577.8814       -345.4694       -269.1964
  -5030568.18047  -3919921.82163  21079177.7094       3040.8134       2369.4644
  -1158603.932 7   -902809.96224  20411003.436         544.578         424.347
  -5001509.35845  -3593567.09161  23565610.7254       5039.6414       3926.9934
 90 12 27 18 27 44.9980000  0  4G17G21G23G11
    175568.21247    136803.27263  21292573.4204       -349.7974       -272.5694
  -5076148.333 7  -3955438.84123  21070505.139        3036.938        2366.445
  -1166744.293 7   -909153.11924  20409454.100         541.203         421.717
  -5077078.11545  -3652451.82861  23551228.1154       5036.5784       3924.6064
 90 12 27 18 27 59.9980000  0  4G17G21G23G11
    180850.97147    140919.67663  21293578.1544       -354.7974       -276.4654
  -5121670.124 7  -3990910.38022  21061843.240        3032.406        2362.914
  -1174834.104 7   -915456.89024  20407914.115         537.203         418.600
  -5152600.63645  -3711300.51961  23536854.4514       5032.8594       3921.7094
 90 12 27 18 28 14.9980000  0  4G17G21G23G11
    186205.737 7    145092.19323  21294595.131        -359.094        -279.813
  -5167126.673 7  -4026331.07922  21053192.787        3028.563        2359.919
  -1182866.475 7   -921715.90424  20406385.420         533.891         416.019
  -5228069.59045  -3770107.47161  23522493.4594       5029.7814       3919.3104
 90 12 27 18 28 29.9980000  0  4G17G21G23G11
    191623.29147    149313.63063  21295626.7014       -363.0164       -282.8694
  -5212527.476 7  -4061708.33923  21044554.217        3025.109        2357.228
  -1190851.02247   -927937.65464  20404863.7794        530.9694        413.7424
  -5303494.073 5  -3828879.75621  23508142.123        5027.047        3917.179
 90 12 27 18 28 44.9980000  0  4G17G21G23G11
    197103.55347    153583.93163  21296670.6624       -367.5624       -286.4124
  -5257872.426 7  -4097042.08123  21035922.607        3021.016        2354.038
  -1198787.76047   -934122.15564  20403356.0294        527.4064        410.9664
  -5378873.578 5  -3887616.98321  23493797.772        5023.672        3914.550
 90 12 27 18 28 59.9980000  0  4G17G21G23G11
    202659.51247    157913.21163  21297727.8034       -372.7974       -290.4914
  -5303148.771 7  -4132322.36922  21027308.522        3016.266        2350.337
  -1206664.19447   -940259.66564  20401856.9124        523.2034        407.6914
  -5454194.96745  -3946308.92161  23479461.4904       5019.5944       3911.3724
 90 12 27 18 29 14.9980000  0  4G17G21G23G11
    208283.17047    162295.24763  21298796.6154       -377.4534       -294.1194
  -5348364.591 7  -4167555.49922  21018703.600        3012.078        2347.074
  -1214488.05947   -946356.20864  20400370.7014        519.5474        404.8424
  -5529465.75345  -4004961.41361  23465137.4984       5016.0634       3908.6204
 90 12 27 18 29 29.9980000  0  4G17G21G23G11
    213977.69847    166732.50463  21299880.7014       -381.6874       -297.4194
  -5393516.298 7  -4202738.66522  21010111.818        3008.281        2344.115
  -1222255.97947   -952409.16263  20398892.1074        516.2974        402.3094
  -5604681.720 5  -4063571.20421  23450827.068        5012.875        3906.136
 90 12 27 18 29 44.9980000  0  4G17G21G23G11
    219742.37547    171224.41963  21300976.8814       -386.7194       -301.3394
  -5438605.005 7  -4237872.74122  21001531.162        3003.734        2340.572
  -1229969.29847   -958419.57163  20397421.7794        512.3284        399.2174
  -5679843.724 5  -4122138.95821  23436523.600        5008.938        3903.068
 90 12 27 18 29 59.9980000  0  4G17G21G23G11
    225572.722 7    175767.50423  21302087.553        -390.859        -304.566
  -5483635.017 7  -4272961.08322  20992963.084        3000.063        2337.711
  -1237632.57347   -964390.98263  20395963.8504        509.2344        396.8064
  -5754955.98645  -4180667.93161  23422230.5224       5005.8444       3900.6574
 90 12 27 18 30 14.9980000  0  4G17G21G23G11
    231471.827 7    180364.16523  21303210.178        -395.453        -308.145
  -5528603.382 7  -4308001.37222  20984406.076        2995.953        2334.509
  -1245242.69047   -970320.97463  20394514.8974        505.6884        394.0424
  -5830014.901 5  -4239155.35721  23407945.178        5002.281        3897.881
 90 12 27 18 30 29.9980000  0  4G17G21G23G11
    237437.061 7    185012.35123  21304345.139        -400.312        -311.932
  -5573512.66947  -4342995.63063  20975860.0534       2991.5784       2331.1004
  -1252802.70947   -976211.93264  20393076.6624        501.9384        391.1204
  -5905022.54145  -4297602.82461  23393672.5534       4998.3914       3894.8504
 90 12 27 18 30 44.9980000  0  4G17G21G23G11
    243474.608 7    189716.88723  21305494.553        -404.984        -315.572
  -5618356.817 7  -4377939.13322  20967325.725        2987.359        2327.813
  -1260306.87247   -982059.36564  20391649.1784        498.3284        388.3084
  -5979972.58345  -4356005.39161  23379409.3184       4994.6564       3891.9404
 90 12 27 18 30 59.9980000  0  4G17G21G23G11
    249579.157 7    194473.63123  21306654.787        -409.078        -318.762
  -5663141.185 7  -4412836.05523  20958804.725        2983.750        2325.000
  -1267760.17347   -987867.15963  20390231.6934        495.3284        385.9704
  -6054869.828 5  -4414366.83821  23365155.334        4991.516        3889.493
 90 12 27 18 31 14.9980000  0  4G17G21G23G11
    255751.845 7    199283.47323  21307829.701        -414.172        -322.731
  -5707864.57147  -4447685.45463  20950294.3504       2979.1564       2321.4204
  -1275161.54447   -993634.49364  20388822.8974        491.3284        382.8534
  -6129712.645 5  -4472685.87521  23350913.904        4987.328        3886.230
 90 12 27 18 31 29.9980000  0  4G17G21G23G11
    261995.18247    204148.36963  21309019.9674       -418.6724       -326.2384
  -5752524.55847  -4482485.45063  20941794.0374       2975.1094       2318.2674
  -1282508.81447   -999359.66964  20387425.4044        487.8914        380.1754
  -6204498.170 5  -4530960.24821  23336684.764        4983.656        3883.369
 90 12 27 18 31 44.9980000  0  4G17G21G23G11
    268311.163 7    209069.87123  21310220.256        -423.500        -330.000
  -5797119.05247  -4517234.40263  20933309.6074       2970.7664       2314.8824
  -1289799.99147  -1005041.14664  20386036.8114        484.2034        377.3014
  -6279223.890 5  -4589188.04321  23322464.240        4979.688        3880.276
 90 12 27 18 31 59.9980000  0  4G17G21G23G11
    274692.348 7    214042.18023  21311435.459        -427.703        -333.275
  -5841655.55247  -4551938.16863  20924835.1394       2967.0634       2311.9974
  -1297042.84447  -1010684.95164  20384658.3264        481.1254        374.9034
  -6353896.95145  -4647374.80561  23308253.5224       4976.3134       3877.6464
 90 12 27 18 32 14.9980000  0  4G17G21G23G11
    281142.784 7    219068.44723  21312662.717        -432.266        -336.830
  -5886130.14947  -4586593.70163  20916371.8114       2962.9844       2308.8194
  -1304233.44747  -1016288.05064  20383289.6784        477.7034        372.2364
  -6428513.059 5  -4705517.16321  23294057.264        4972.578        3874.736
 90 12 27 18 32 29.9980000  0  4G17G21G23G11
    287658.798 7    224145.81723  21313902.022        -436.797        -340.361
  -5930546.39947  -4621203.76762  20907917.6154       2958.9384       2305.6664
  -1311375.63347  -1021853.42664  20381931.8814        474.3284        369.6064
  -6503075.375 5  -4763617.61521  23279867.959        4968.813        3871.802
 90 12 27 18 32 44.9980000  0  4G17G21G23G11
    294248.599 7    229280.67723  21315156.311        -441.719        -344.196
  -5974895.96647  -4655761.86863  20899480.4434       2954.4694       2302.1834
  -1318461.24247  -1027374.71064  20380585.7094        470.5474        366.6604
  -6577575.05245  -4821669.25261  23265692.0294       4964.6254       3868.5394
 90 12 27 18 32 59.9980000  0  4G17G21G23G11
    300902.111 7    234465.18223  21316423.022        -446.250        -347.727
  -6019189.12647  -4690276.01562  20891051.2874       2950.4384       2299.0424
  -1325500.24747  -1032859.67964  20379244.9754        467.1414        364.0064
  -6652021.85346  -4879679.67661  23251524.8734       4960.7814       3865.5444
 90 12 27 18 33 14.9980000  0  4G17G21G23G11
    307625.829 7    239704.39223  21317702.170        -450.703        -351.197
  -6063419.39347  -4724741.15563  20882634.3504       2946.4694       2295.9504
  -1332486.38247  -1038303.45164  20377916.5454        463.8754        361.4614
  -6726408.875 6  -4937643.53921  23237372.053        4957.016        3862.610
 90 12 27 18 33 29.9980000  0  4G17G21G23G11
    314421.441 7    244999.62223  21318996.842        -455.219        -354.716
  -6107585.27847  -4759156.12262  20874229.7724       2942.4694       2292.8334
  -1339418.35547  -1043705.01864  20376594.6474        460.5474        358.8684
  -6800734.106 6  -4995559.24421  23223226.420        4953.156        3859.602
 90 12 27 18 33 44.9980000  0  4G17G21G23G11
    321284.921 7    250347.73523  21320301.928        -459.984        -358.429
  -6151690.92647  -4793524.14962  20865836.4514       2938.2034       2289.5094
  -1346300.23147  -1049067.55664  20375284.1074        456.9534        356.0674
  -6875001.191 6  -5053429.62821  23209093.803        4949.031        3856.388
 90 12 27 18 33 59.9980000  0  4G17G21G23G11
    328219.249 7    255751.05123  21321621.076        -464.453        -361.912
  -6195732.96147  -4827842.61063  20857455.8264       2934.1884       2286.3804
  -1353128.95547  -1054388.66664  20373985.0844        453.6724        353.5114
  -6949206.67046  -5111252.01161  23194972.9204       4945.1414       3853.3564
 90 12 27 18 34 14.9980000  0  4G17G21G23G11
    335221.054 7    261206.94923  21322953.514        -468.797        -365.296
  -6239714.88647  -4862114.22863  20849084.5454       2930.3914       2283.4214
  -1359908.23947  -1059671.25664  20372697.2644        450.5474        351.0754
  -7023353.437 6  -5169028.66021  23180862.959        4941.406        3850.446
 90 12 27 18 34 29.9980000  0  4G17G21G23G11
    342286.626 7    266712.53522  21324298.772        -473.781        -369.180
  -6283640.70247  -4896342.12563  20840726.7954       2925.8914       2279.9154
  -1366641.98247  -1064918.35564  20371415.8264        446.7664        348.1294
  -7097445.113 6  -5226762.37921  23166765.600        4936.969        3846.989
 90 12 27 18 34 44.9980000  0  4G17G21G23G11
    349427.462 7    272276.76322  21325655.943        -478.234        -372.650
  -6327498.71947  -4930517.19263  20832379.1314       2921.9534       2276.8474
  -1373318.785 7  -1070121.07924  20370145.584         443.563         345.633
  -7171469.641 6  -5284443.77621  23152677.061        4933.063        3843.945
 90 12 27 18 34 59.9980000  0  4G17G21G23G11
    356634.517 7    277892.59522  21327028.732        -482.250        -375.779
  -6371298.159 7  -4964646.61323  20824046.272        2918.438        2274.107
  -1379947.893 7  -1075286.63924  20368883.318         440.781         343.466
  -7245435.53946  -5342079.48661  23138600.1624       4929.5164       3841.1814
 90 12 27 18 35 14.9980000  0  4G17G21G23G11
    363907.71147    283559.96063  21328412.1074       -487.2664       -379.6874
  -6415038.82247  -4998730.23563  20815723.2724       2913.9064       2270.5764
  -1386529.31947  -1080415.05164  20367628.8264        436.9844        340.5074
  -7319342.45646  -5399669.24361  23124540.2014       4924.9694       3837.6384
 90 12 27 18 35 29.9980000  0  4G17G21G23G11
    371248.168 7    289279.74423  21329810.967        -491.828        -383.243
  -6458719.524 7  -5032767.12823  20807411.068        2909.844        2267.411
  -1393061.85447  -1085505.36764  20366386.7404        433.6564        337.9144
  -7393188.650 6  -5457211.71421  23110487.889        4920.828        3834.412
 90 12 27 18 35 44.9980000  0  4G17G21G23G11
    378663.37147    295057.76862  21331219.4594       -496.9534       -387.2364
  -6502332.948 7  -5066751.59423  20799110.350        2905.203        2263.795
  -1399538.43647  -1090552.08964  20365153.8114        429.7814        334.8944
  -7466966.372 6  -5514700.80721  23096446.787        4916.125        3830.747
 90 12 27 18 35 59.9980000  0  4G17G21G23G11
    386148.624 7    300890.37923  21332646.318        -501.297        -390.621
  -6545883.872 7  -5100687.36123  20790822.975        2901.391        2260.824
  -1405963.932 7  -1095558.99424  20363931.756         426.750         332.532
  -7540679.922 6  -5572139.92121  23082418.436        4912.172        3827.666
 90 12 27 18 36 14.9980000  0  4G17G21G23G11
    393699.57547    306774.17363  21334082.1624       -505.5784       -393.9574
  -6589377.091 7  -5134578.16623  20782547.537        2897.625        2257.890
  -1412343.368 7  -1100530.00224  20362718.225         423.766         330.207
  -7614333.667 6  -5629532.43321  23068403.756        4908.250        3824.610
 90 12 27 18 36 29.9980000  0  4G17G21G23G11
    401322.75047    312714.24962  21335531.8034       -510.9694       -398.1574
  -6632805.74847  -5168418.66763  20774281.1234       2892.7344       2254.0794
  -1418669.631 7  -1105459.57924  20361514.764         419.594         326.956
  -7687920.109 6  -5686872.47521  23054398.264        4903.156        3820.641
 90 12 27 18 36 44.9980000  0  4G17G21G23G11
    409026.19647    318716.87362  21336998.9124       -516.2974       -402.3094
  -6676161.65947  -5202202.49063  20766031.6934       2887.9224       2250.3294
  -1424934.280 7  -1110341.14324  20360322.639         415.563         323.815
  -7761430.70146  -5744153.42261  23040409.5534       4898.1254       3816.7214
 90 12 27 18 36 59.9980000  0  4G17G21G23G11
    416806.04447    324779.02862  21338477.4984       -520.9534       -405.9374
  -6719448.83447  -5235932.75263  20757794.4204       2883.7664       2247.0904
  -1431142.079 7  -1115178.41424  20359141.631         412.188         321.185
  -7834869.19146  -5801378.20361  23026436.8034       4893.7194       3813.2874
 90 12 27 18 37 14.9980000  0  4G17G21G23G11
    424656.726 7    330896.38822  21339972.326        -525.578        -409.541
  -6762672.79147  -5269613.75863  20749569.7174       2879.6254       2243.8644
  -1437298.72447  -1119975.82764  20357969.4514        408.8914        318.6164
  -7908240.85346  -5858550.89261  23012473.4044       4889.3444       3809.8784
 90 12 27 18 37 29.9980000  0  4G17G21G23G11
    432573.35847    337065.13162  21341479.3894       -530.1414       -413.0974
  -6805838.49147  -5303249.36463  20741355.7014       2875.6094       2240.7354
  -1443409.19447  -1124737.26064  20356804.8114        405.6724        316.1084
  -7981550.059 6  -5915674.92021  22998526.522        4885.031        3806.518
 90 12 27 18 37 44.9980000  0  4G17G21G23G11
    440563.774 7    343291.38222  21343001.459        -535.203        -417.041
  -6848938.18147  -5336833.53363  20733155.3424       2871.0474       2237.1794
  -1449465.68447  -1129456.63464  20355653.6004        401.9064        313.1744
  -8054788.43946  -5972743.75761  22984589.3264       4880.1254       3802.6954
 90 12 27 18 37 59.9980000  0  4G17G21G23G11
    448623.937 7    349571.97922  21344534.654        -539.609        -420.475
  -6891975.73647  -5370369.28663  20724965.2874       2867.1564       2234.1484
  -1455472.182 7  -1134137.03224  20354512.022         398.844         310.787
  -8127959.401 6  -6029760.07321  22970663.811        4875.875        3799.383
 90 12 27 18 38 14.9980000  0  4G17G21G23G11
    456751.256 7    355904.91122  21346082.154        -543.984        -423.884
  -6934953.88347  -5403858.74163  20716786.6704       2863.2974       2231.1404
  -1461431.633 7  -1138780.77424  20353377.670         395.781         308.401
  -8201065.563 6  -6086725.90521  22956751.154        4871.609        3796.059
 90 12 27 18 38 29.9980000  0  4G17G21G23G11
    464948.104 7    362292.02022  21347640.436        -549.047        -427.829
  -6977870.18047  -5437300.00463  20708618.8184       2858.7664       2227.6104
  -1467341.515 7  -1143385.89424  20352253.014         392.094         305.528
  -8274103.814 6  -6143638.80521  22942851.936        4866.688        3792.224
 90 12 27 18 38 44.9980000  0  4G17G21G23G11
    473218.267 7    368736.25823  21349215.740        -553.812        -431.542
  -7020720.94047  -5470690.19963  20700463.6234       2854.5164       2224.2984
  -1473198.501 7  -1147949.79224  20351136.772         388.688         302.873
  -8347070.16946  -6200495.69761  22928968.7484       4861.9844       3788.5594
 90 12 27 18 38 59.9980000  0  4G17G21G23G11
    481564.611 7    375239.85622  21350803.248        -558.594        -435.268
  -7063503.24047  -5504027.06363  20692323.3114       2850.2504       2220.9744
  -1478999.769 7  -1152470.27624  20350034.248         385.250         300.195
  -8419961.17446  -6257293.86961  22915094.8734       4857.2504       3784.8704
 90 12 27 18 39 14.9980000  0  4G17G21G23G11
    489978.438 7    381796.04222  21352403.857        -563.047        -438.738
  -7106226.05247  -5537317.56763  20684194.8654       2846.3134       2217.9064
  -1484754.125 7  -1156954.20724  20348939.842         382.188         297.808
  -8492785.18645  -6314039.85361  22901236.3344       4852.7974       3781.4004
 90 12 27 18 39 29.9980000  0  4G17G21G23G11
    498460.815 7    388405.64323  21354018.756        -567.828        -442.463
  -7148888.199 7  -5570560.80923  20676076.100        2842.063        2214.594
  -1490460.741 7  -1161400.93424  20347855.248         378.766         295.142
  -8565540.627 5  -6370732.38421  22887392.217        4848.016        3777.675
 90 12 27 18 39 44.9980000  0  4G17G21G23G11
    507014.70147    395070.97062  21355646.5224       -572.7664       -446.3114
  -7191486.593 7  -5603754.37523  20667971.162        2837.641        2211.149
  -1496116.435 7  -1165807.98324  20346779.670         375.219         292.378
  -8638224.042 6  -6427368.79821  22873562.279        4843.000        3773.766
 90 12 27 18 39 59.9980000  0  4G17G21G23G11
    515640.78747    401792.55862  21357288.1624       -577.3284       -449.8664
  -7234020.50447  -5636897.69163  20659876.2794       2833.5944       2207.9954
  -1501720.763 7  -1170175.00124  20345710.834         372.047         289.907
  -8710834.415 6  -6483948.32121  22859743.092        4838.391        3770.175
 90 12 27 18 40 14.9980000  0  4G17G21G23G11
    524337.44547    408569.14062  21358942.4284       -581.5314       -453.1414
  -7276491.56047  -5669992.02863  20651795.2954       2829.9064       2205.1224
  -1507275.220 7  -1174503.17324  20344652.982         369.234         287.715
  -8783372.86446  -6540471.78961  22845941.3344       4834.0784       3766.8144
 90 12 27 18 40 29.9980000  0  4G17G21G23G11
    533094.79147    415393.00762  21360607.8654       -586.3124       -456.8674
  -7318909.81647  -5703045.21863  20643720.5614       2825.6564       2201.8104
  -1512790.293 7  -1178800.65324  20343602.967         365.891         285.110
  -8855848.980 6  -6596946.66821  22832149.217        4829.188        3763.003
 90 12 27 18 40 44.9980000  0  4G17G21G23G11
    541920.75047    422270.35462  21362289.0454       -590.4534       -460.0934
  -7361267.39747  -5736051.13863  20635661.5764       2822.0474       2198.9984
  -1518258.085 7  -1183061.29224  20342563.912         363.172         282.991
  -8928254.25146  -6653366.36061  22818374.0294       4824.8754       3759.6434
 90 12 27 18 40 59.9980000  0  4G17G21G23G11
    550812.63447    429199.05862  21363980.2014       -594.4844       -463.2354
  -7403567.08347  -5769011.94063  20627612.0534       2818.5634       2196.2824
  -1523681.289 7  -1187287.18424  20341533.576         360.578         280.970
  -9000591.15446  -6709732.78061  22804605.6474       4820.6724       3756.3684
 90 12 27 18 41 14.9980000  0  4G17G21G23G11
    559770.10647    436178.88262  21365684.5924       -599.5004       -467.1434
  -7445808.78147  -5801927.55963  20619574.0064       2814.0474       2192.7644
  -1529060.013 7  -1191478.42024  20340509.451         356.969         278.157
  -9072859.193 6  -6766045.53721  22790852.779        4815.406        3752.265
 90 12 27 18 41 29.9980000  0  4G17G21G23G11
    568797.40047    443213.09862  21367403.6394       -604.1564       -470.7714
  -7487988.49247  -5834794.87363  20611546.7794       2809.9224       2189.5504
  -1534390.584 7  -1195632.12524  20339496.139         353.766         275.662
  -9145053.935 6  -6822301.16321  22777113.772        4810.547        3748.478
 90 12 27 18 41 44.9980000  0  4G17G21G23G11
    577896.143 7    450303.00122  21369135.162        -608.641        -474.265
  -7530104.65147  -5867612.66963  20603532.8114       2805.9534       2186.4574
  -1539671.394 7  -1199747.06524  20338488.225         350.719         273.287
  -9217173.30346  -6878498.05961  22763388.1474       4805.7664       3744.7524
 90 12 27 18 41 59.9980000  0  4G17G21G23G11
    587058.29847    457442.30862  21370875.6784       -612.6874       -477.4194
  -7572165.24547  -5900387.16363  20595529.3574       2802.4384       2183.7184
  -1544910.36847  -1203829.40864  20337492.0144        348.1254        271.2664
  -9289224.896 6  -6934642.14821  22749681.357        4801.406        3741.356
 90 12 27 18 42 14.9980000  0  4G17G21G23G11
    596287.64047    464633.97662  21372633.3344       -617.5004       -481.1694
  -7614166.74747  -5933115.61663  20587536.1704       2798.1564       2180.3814
  -1550104.110 7  -1207876.50424  20336503.803         344.766         268.649
  -9361204.66346  -6990730.28461  22735983.2324       4796.2814       3737.3624
 90 12 27 18 42 29.9980000  0  4G17G21G23G11
    605589.32947    471882.01062  21374404.1704       -622.7974       -485.2964
  -7656103.85347  -5965793.88363  20579557.4984       2793.3754       2176.6564
  -1555247.779 7  -1211884.57924  20335525.178         340.969         265.690
  -9433107.081 6  -7046758.12221  22722300.287        4790.625        3732.955
 90 12 27 18 42 44.9970000  0  4G17G21G23G11
    614967.36947    479189.54062  21376189.1344       -627.1414       -488.6814
  -7697969.12647  -5998416.18163  20571590.3374       2789.5944       2173.7094
  -1560336.20847  -1215849.61764  20334557.9464        338.1094        263.4624
  -9504922.103 6  -7102717.86621  22708634.501        4785.891        3729.265
 90 12 27 18 42 59.9970000  0  4G17G21G23G11
    624410.23947    486547.58762  21377985.9544       -631.9844       -492.4554
  -7739781.02547  -6030996.89263  20563632.2204       2785.2504       2170.3254
  -1565382.98547  -1219782.19764  20333595.7594        334.7194        260.8204
  -9576671.61846  -7158626.57161  22694981.9074       4780.6254       3725.1624
 90 12 27 18 43 14.9970000  0  4G17G21G23G11
    633921.63747    493959.03762  21379795.8214       -636.2504       -495.7794
  -7781532.26747  -6063530.33863  20555689.0794       2781.5164       2167.4154
  -1570383.41747  -1223678.67364  20332644.4934        331.9534        258.6654
  -9648346.18846  -7214476.86461  22681342.7514       4775.9064       3721.4854
 90 12 27 18 43 29.9970000  0  4G17G21G23G11
    643499.377 7    501422.18522  21381617.978        -640.500        -499.091
  -7823225.08147  -6096018.24663  20547755.5014       2777.8134       2164.5294
  -1575339.93147  -1227540.92564  20331701.3684        329.2034        256.5224
  -9719947.311 6  -7270269.92521  22667715.017        4771.172        3717.796
 90 12 27 18 43 44.9970000  0  4G17G21G23G11
    653147.21047    508939.95162  21383455.2204       -645.6874       -503.1334
  -7864856.08347  -6128457.99263  20539832.6104       2773.1724       2160.9134
  -1580249.19947  -1231366.36464  20330767.7674        325.5314        253.6614
  -9791471.077 6  -7326002.70621  22654105.524        4765.500        3713.377
 90 12 27 18 43 59.9970000  0  4G17G21G23G11
    662863.129 7    516510.77422  21385303.774        -650.062        -506.542
  -7906426.95547  -6160850.88563  20531920.7204       2769.3284       2157.9184
  -1585112.68147  -1235156.12464  20329842.1034        322.6724        251.4334
  -9862918.95146  -7381676.35361  22640510.2124       4760.5944       3709.5544
 90 12 27 18 44 14.9970000  0  4G17G21G23G11
    672646.31347    524134.00162  21387166.4074       -653.9534       -509.5744
  -7947938.49547  -6193197.54863  20524020.0714       2765.9534       2155.2884
  -1589931.66747  -1238911.21664  20328924.8064        320.2504        249.5454
  -9934291.165 6  -7437291.02821  22626929.993        4756.109        3706.059
 90 12 27 18 44 29.9970000  0  4G17G21G23G11
    682492.55047    531806.36262  21389038.2514       -658.9844       -513.4944
  -7989394.88447  -6225501.23263  20516132.4624       2761.4694       2151.7944
  -1594710.27447  -1242634.84264  20328014.3684        316.7814        246.8434
 -10005591.59746  -7492849.77961  22613364.3294       4750.5004       3701.6884
 90 12 27 18 44 44.9970000  0  4G17G21G23G11
    692410.00947    539534.22362  21390924.4464       -663.4224       -516.9524
  -8030787.93647  -6257755.55963  20508254.3534       2757.5314       2148.7264
  -1599440.62347  -1246320.86264  20327115.1264        313.8594        244.5664
 -10076811.699 6  -7548345.94121  22599807.798        4745.422        3697.731
 90 12 27 18 44 59.9970000  0  4G17G21G23G11
    702397.82647    547316.90662  21392824.5794       -667.8444       -520.3984
  -8072118.74447  -6289961.38863  20500390.0714       2753.6564       2145.7064
  -1604123.62747  -1249969.98464  20326224.5954        310.9694        242.3134
 -10147951.91246  -7603779.85261  22586267.6574       4740.3754       3693.7994
 90 12 27 18 45 14.9970000  0  4G17G21G23G11
    712458.53147    555156.38462  21394741.8144       -672.8124       -524.2694
  -8113384.83547  -6322116.78063  20492537.9154       2749.2344       2142.2614
  -1608756.73147  -1253580.22064  20325342.6964        307.5634        239.6594
 -10219009.31646  -7659149.20961  22572750.3684       4734.7194       3689.3914
 90 12 27 18 45 29.9970000  0  4G17G21G23G11
    722586.34947    563048.15462  21396668.4464       -677.6254       -528.0194
  -8154591.897 7  -6354226.16923  20484696.407        2744.969        2138.937
  -1613346.275 7  -1257156.51424  20324470.056         304.313         237.127
 -10289989.201 6  -7714458.19921  22559242.040        4729.188        3685.081
 90 12 27 18 45 44.9970000  0  4G17G21G23G11
    732785.86047    570995.79862  21398608.6654       -681.6414       -531.1494
  -8195735.18747  -6386285.86763  20476866.5714       2741.4694       2136.2094
  -1617887.347 7  -1260695.03424  20323605.728         301.828         235.191
 -10360886.32446  -7769702.68161  22545750.1264       4724.4224       3681.3684
 90 12 27 18 45 59.9970000  0  4G17G21G23G11
    743049.35347    578993.29362  21400563.3374       -686.5004       -534.9354
  -8236822.43347  -6418301.89963  20469048.7434       2737.1414       2132.8374
  -1622387.76247  -1264201.87664  20322749.7744        298.5314        232.6224
 -10431708.027 6  -7824888.40421  22532271.189        4718.797        3676.985
 90 12 27 18 46 14.9970000  0  4G17G21G23G11
    753377.41747    587041.10462  21402526.2124       -690.5624       -538.1014
  -8277853.16847  -6450273.88863  20461241.6344       2733.6254       2130.0974
  -1626846.970 7  -1267676.61024  20321901.165         296.047         230.686
 -10502453.320 6  -7880014.58721  22518808.681        4713.953        3673.210
 90 12 27 18 46 29.9970000  0  4G17G21G23G11
    763772.65447    595141.25962  21404505.8064       -695.0314       -541.5834
  -8318825.02047  -6482199.99863  20453446.0404       2729.6884       2127.0294
  -1631262.765 7  -1271117.51224  20321060.774         293.156         228.433
 -10573119.48446  -7935079.09561  22505361.1574       4708.6414       3669.0714
 90 12 27 18 46 44.9970000  0  4G17G21G23G11
    774237.16947    603295.39662  21406496.2984       -699.8444       -545.3334
  -8359735.78047  -6514078.50263  20445660.4234       2725.4534       2123.7304
  -1635633.09047  -1274522.98764  20320227.5644        289.9224        225.9134
 -10643703.72746  -7990079.76661  22491934.0714       4702.9844       3664.6634
 90 12 27 18 46 59.9970000  0  4G17G21G23G11
    784765.990 7    611499.64922  21408500.657        -704.781        -549.180
  -8400590.23247  -6545913.13463  20437885.9314       2721.0474       2120.2964
  -1639962.717 7  -1277896.74624  20319405.095         286.594         223.320
 -10714210.52646  -8045020.10361  22478513.4784       4697.1414       3660.1104
 90 12 27 18 47 14.9970000  0  4G17G21G23G11
    795366.00047    619759.37162  21410518.0404       -708.6724       -552.2124
  -8441381.47247  -6577698.51263  20430123.8924       2717.6724       2117.6664
  -1644245.28547  -1281233.84064  20318589.3144        284.2974        221.5304
 -10784632.542 6  -8099894.37021  22465115.712        4692.328        3656.360
 90 12 27 18 47 29.9970000  0  4G17G21G23G11
    806031.159 7    628069.86222  21412545.478        -713.562        -556.023
  -8482115.53647  -6609439.33763  20422372.4934       2713.3134       2114.2694
  -1648486.64947  -1284538.82864  20317782.7824        281.0004        218.9614
 -10854975.30746  -8154706.87961  22451728.3454       4686.4694       3651.7944
 90 12 27 18 47 44.9970000  0  4G17G21G23G11
    816767.952 7    636436.16722  21414590.751        -718.000        -559.481
  -8522786.00847  -6641130.60063  20414633.5874       2709.4224       2111.2384
  -1652680.242 7  -1287806.57724  20316985.345         278.156         216.745
 -10925231.822 6  -8209452.19521  22438358.462        4681.078        3647.593
 90 12 27 18 47 59.9970000  0  4G17G21G23G11
    827570.544 7    644853.74422  21416647.431        -722.219        -562.768
  -8563398.80347  -6672776.92563  20406903.2044       2705.7504       2108.3774
  -1656832.169 7  -1291041.86924  20316194.829         275.547         214.712
 -10995407.63846  -8264134.60561  22425005.3454       4675.8284       3643.5024
 90 12 27 18 48 14.9970000  0  4G17G21G23G11
    838445.18747    653327.45762  21418718.7824       -727.3444       -566.7614
  -8603947.30047  -6704373.15363  20399187.3454       2701.1254       2104.7734
  -1660936.122 7  -1294239.77724  20315414.126         272.031         211.972
 -11065495.86546  -8318748.77861  22411667.5404       4669.6564       3638.6934
 90 12 27 18 48 29.9970000  0  4G17G21G23G11
    849391.36847    661856.92562  21420800.2124       -732.2974       -570.6214
  -8644432.50447  -6735920.05963  20391482.8534       2696.7194       2101.3394
  -1664993.021 7  -1297401.01724  20314641.946         268.734         209.403
 -11135496.73146  -8373294.88361  22398349.1494       4663.6254       3633.9944
 90 12 27 18 48 44.9970000  0  4G17G21G23G11
    860408.77147    670441.87362  21422894.2044       -736.9534       -574.2494
  -8684854.50447  -6767417.71563  20383790.6184       2692.6254       2098.1494
  -1669003.293 7  -1300525.92224  20313878.024         265.719         207.054
 -11205410.047 6  -8427772.74421  22385044.517        4657.891        3629.525
 90 12 27 18 48 59.9970000  0  4G17G21G23G11
    871489.06847    679075.83762  21425002.8684       -740.6724       -577.1474
  -8725221.52047  -6798872.52763  20376108.4624       2689.4064       2095.6414
  -1672975.06447  -1303620.83364  20313123.3214        263.6094        205.4104
 -11275243.669 6  -8482188.51321  22371753.939        4653.031        3625.739
 90 12 27 18 49 14.9970000  0  4G17G21G23G11
    882638.89747    687763.98162  21427123.9464       -745.6094       -580.9944
  -8765526.88647  -6830279.29763  20368440.2434       2685.0004       2092.2084
  -1676901.905 7  -1306680.73024  20312376.759         260.328         202.853
 -11344990.609 6  -8536536.75821  22358483.196        4646.922        3620.978
 90 12 27 18 49 29.9970000  0  4G17G21G23G11
    893859.07547    696506.93762  21429261.3454       -750.3444       -584.6834
  -8805770.10847  -6861637.64963  20360783.7434       2680.8284       2088.9574
  -1680783.284 7  -1309705.20224  20311637.009         257.250         200.455
 -11414649.707 6  -8590816.53521  22345226.657        4641.000        3616.364
 90 12 27 18 49 44.9970000  0  4G17G21G23G11
    905147.34347    705302.95662  21431409.3454       -754.8124       -588.1664
  -8845953.24547  -6892949.17863  20353136.5874       2676.8914       2085.8894
  -1684621.452 7  -1312696.00224  20310907.134         254.453         198.275
 -11484222.499 6  -8645029.05021  22331986.751        4635.328        3611.944
 90 12 27 18 49 59.9970000  0  4G17G21G23G11
    916503.55447    714151.91262  21433570.1734       -759.4374       -591.7694
  -8886076.63047  -6924214.14463  20345501.0644       2672.7974       2082.6994
  -1688416.427 7  -1315653.14724  20310185.251         251.469         195.950
 -11553709.01646  -8699174.34161  22318762.6894       4629.4384       3607.3544
 90 12 27 18 50 14.9970000  0  4G17G21G23G11
    927927.077 7    723053.32422  21435741.704        -763.937        -595.276
  -8926140.85647  -6955433.02263  20337877.0014       2668.8594       2079.6314
  -1692169.131 7  -1318577.35524  20309471.517         248.656         193.758
 -11623109.426 6  -8753252.54321  22305556.892        4623.703        3602.886
 90 12 27 18 50 29.9970000  0  4G17G21G23G11
    939421.93947    732010.32062  21437930.0244       -768.5004       -598.8314
  -8966141.80147  -6986602.58663  20330264.5324       2664.8134       2076.4774
  -1695875.31047  -1321465.31264  20308764.7674        245.7504        191.4944
 -11692418.965 6  -8807259.92221  22292366.759        4617.797        3598.283
 90 12 27 18 50 44.9970000  0  4G17G21G23G11
    950985.03147    741020.48162  21440132.2594       -772.8754       -602.2404
  -9006082.55947  -7017725.26063  20322663.2824       2661.0004       2073.5064
  -1699538.34947  -1324319.64964  20308068.2594        243.0474        189.3874
 -11761640.391 6  -8861198.64921  22279196.274        4612.125        3593.864
 90 12 27 18 50 59.9970000  0  4G17G21G23G11
    962616.77747    750084.13862  21442345.4464       -777.7194       -606.0154
  -9045962.75547  -7048800.74263  20315074.7204       2656.6884       2070.1464
  -1703157.98547  -1327140.17764  20307379.1654        239.8914        186.9284
 -11830773.24246  -8915068.37561  22266038.5714       4605.9224       3589.0304
 90 12 27 18 51 14.9970000  0  4G17G21G23G11
    974315.04747    759199.63362  21444572.2354       -782.0624       -609.3994
  -9085784.45547  -7079830.64163  20307497.4624       2652.8444       2067.1514
  -1706736.211 7  -1329928.42524  20306698.845         237.203         184.834
 -11899818.66146  -8968869.94361  22252900.1574       4600.1414       3584.5254
 90 12 27 18 51 29.9970000  0  4G17G21G23G11
    986071.02047    768360.08862  21446808.8144       -786.1724       -612.6014
  -9125556.30147  -7110821.69263  20299929.4784       2649.3134       2064.3994
  -1710282.119 7  -1332691.49424  20306022.345         234.813         182.971
 -11968784.95446  -9022609.88161  22239777.2434       4594.6094       3580.2154
 90 12 27 18 51 44.9970000  0  4G17G21G23G11
    997900.251 7    777577.63322  21449060.267        -790.937        -616.315
  -9165262.99647  -7141761.97063  20292371.7284       2645.0634       2061.0884
  -1713780.137 7  -1335417.24524  20305358.509         231.719         180.560
 -12037656.278 6  -9076275.79421  22226670.157        4588.344        3575.333
 90 12 27 18 51 59.9970000  0  4G17G21G23G11
   1009795.605 7    786846.69522  21451322.532        -795.547        -619.907
  -9204911.45247  -7172656.87863  20284827.6034       2640.9534       2057.8864
  -1717237.716 7  -1338111.48124  20304699.454         228.828         178.308
 -12106439.36046  -9129872.97561  22213581.5874       4582.2664       3570.5974
 90 12 27 18 52 14.9970000  0  4G17G21G23G11
   1021751.700 7    796163.08822  21453597.868        -799.453        -622.950
  -9244506.98947  -7203510.54663  20277293.7434       2637.6094       2055.2804
  -1720660.151 7  -1340778.33524  20304049.220         226.656         176.615
 -12175138.989 6  -9183405.10621  22200509.157        4576.828        3566.360
 90 12 27 18 52 29.9970000  0  4G17G21G23G11
   1033779.90247    805535.67362  21455887.1034       -804.3444       -626.7614
  -9284038.54147  -7234314.35463  20269771.7124       2633.2194       2051.8594
  -1724036.291 7  -1343409.11824  20303407.649         223.453         174.119
 -12243743.584 6  -9236863.18021  22187452.446        4570.391        3561.343
 90 12 27 18 52 44.9970000  0  4G17G21G23G11
   1045879.06447    814963.54762  21458190.4784       -808.3914       -629.9154
  -9323507.33747  -7265069.26463  20262258.1814       2629.7664       2049.1684
  -1727367.191 7  -1346004.64424  20302773.954         221.156         172.330
 -12312253.98946  -9290247.87461  22174416.4544       4564.7974       3556.9854
 90 12 27 18 52 59.9970000  0  4G17G21G23G11
   1058046.01047    824444.24362  21460506.8374       -813.2664       -633.7134
  -9362916.33047  -7295777.57763  20254760.8064       2625.4224       2045.7834
  -1730655.95547  -1348567.34364  20302147.2904        217.9844        169.8584
 -12380672.60146  -9343561.03661  22161397.1964       4558.2974       3551.9204
 90 12 27 18 53 14.9970000  0  4G17G21G23G11
   1070278.98547    833976.38861  21462832.9464       -817.7814       -637.2324
  -9402267.28747  -7326440.66763  20247273.0404       2621.4064       2042.6544
  -1733904.56747  -1351098.75664  20301528.8844        215.1724        167.6664
 -12449000.713 6  -9396803.69221  22148395.149        4552.109        3547.098
 90 12 27 18 53 29.9970000  0  4G17G21G23G11
   1082581.375 7    843562.61722  21465172.587        -822.250        -640.714
  -9441556.77547  -7357055.85363  20239796.5014       2617.4694       2039.5864
  -1737109.64447  -1353596.24464  20300919.6574        212.4694        165.5604
 -12517234.541 6  -9449972.87521  22135407.689        4545.984        3542.325
 90 12 27 18 53 44.9970000  0  4G17G21G23G11
   1094941.32047    853193.70062  21467525.6494       -826.0004       -643.6364
  -9480796.65647  -7387632.39463  20232328.3374       2614.2504       2037.0784
  -1740283.500 7  -1356069.40124  20300314.142         210.453         163.989
 -12585385.498 6  -9503077.49821  22122442.032        4540.531        3538.076
 90 12 27 18 53 59.9970000  0  4G17G21G23G11
   1107368.628 7    862877.27022  21469892.478        -830.578        -647.204
  -9519977.254 7  -7418162.74323  20224874.001        2610.203        2033.925
  -1743416.094 7  -1358510.40324  20299719.681         207.594         161.761
 -12653443.30746  -9556109.52561  22109492.8684       4534.2034       3533.1454
 90 12 27 18 54 14.9970000  0  4G17G21G23G11
   1119864.815 7    872614.51122  21472268.907        -835.719        -651.209
  -9559096.772 7  -7448645.49423  20217429.556        2605.594        2030.333
  -1746505.779 7  -1360917.97224  20299131.649         204.203         159.119
 -12721405.850 6  -9609067.33121  22096557.790        4527.328        3527.788
 90 12 27 18 54 29.9970000  0  4G17G21G23G11
   1132429.871 7    882405.41422  21474661.243        -840.406        -654.862
  -9598155.26747  -7479080.69763  20209995.4234       2601.4224       2027.0824
  -1749552.707 7  -1363292.22024  20298552.189         201.266         156.830
 -12789272.81346  -9661950.64561  22083642.3374       4520.8134       3522.7114
 90 12 27 18 54 44.9970000  0  4G17G21G23G11
   1145063.644 7    892249.86522  21477063.595        -844.922        -658.381
  -9637152.92847  -7509468.49363  20202573.9854       2597.4224       2023.9654
  -1752557.17347  -1365633.39064  20297980.5174        198.5004        154.6754
 -12857043.85246  -9714759.23161  22070747.0174       4514.4694       3517.7684
 90 12 27 18 54 59.9970000  0  4G17G21G23G11
   1157762.330 7    902144.90022  21479482.681        -848.531        -661.193
  -9676093.47947  -7539811.78563  20195163.6734       2594.3444       2021.5674
  -1755523.26347  -1367944.65464  20297415.9934        196.6564        153.2394
 -12924722.396 6  -9767495.72721  22057868.790        4509.000        3513.506
 90 12 27 18 55 14.9970000  0  4G17G21G23G11
   1170530.106 6    912093.76022  21481910.259        -854.062        -665.503
  -9714972.749 7  -7570107.33423  20187765.462        2589.344        2017.670
  -1758446.63947  -1370222.63464  20296858.8994        192.8914        150.3044
 -12992303.62646  -9820156.40661  22045006.4464       4501.5944       3507.7354
 90 12 27 18 55 29.9970000  0  4G17G21G23G11
   1183375.586 7    922103.17822  21484353.478        -858.125        -668.669
  -9753782.17947  -7600348.45963  20180381.5404       2585.8134       2014.9194
  -1761318.48047  -1372460.45964  20296312.6424        190.5784        148.5024
 -13059778.55946  -9872734.24561  22032165.7984       4495.6254       3503.0844
 90 12 27 18 55 44.9970000  0  4G17G21G23G11
   1196275.629 7    932155.10422  21486809.439        -862.750        -672.273
  -9792545.13347  -7630553.36363  20173004.9154       2581.7034       2011.7174
  -1764162.39547  -1374676.52764  20295770.1034        187.7344        146.2874
 -13127170.12346  -9925247.11661  22019343.4934       4489.0314       3497.9464
 90 12 27 18 55 59.9970000  0  4G17G21G23G11
   1209245.601 7    942261.52522  21489279.431        -867.000        -675.584
  -9831246.09947  -7660709.96363  20165640.7984       2577.9694       2008.8074
  -1766963.38047  -1376859.13864  20295239.0484        185.2664        144.3634
 -13194462.404 6  -9977682.63521  22006540.978        4482.813        3493.101
 90 12 27 18 56 14.9970000  0  4G17G21G23G11
   1222282.693 7    952420.24722  21491759.634        -872.062        -679.529
  -9869887.62947  -7690820.25363  20158286.9464       2573.4534       2005.2884
  -1769723.77347  -1379010.12164  20294712.6104        182.0004        141.8184
 -13261657.59746 -10030042.50461  21993751.7204       4475.7504       3487.5974
 90 12 27 18 56 29.9970000  0  4G17G21G23G11
   1235391.440 7    962634.80922  21494253.251        -876.594        -683.060
  -9908465.30447  -7720880.78563  20150946.4934       2569.4224       2002.1474
  -1772439.361 7  -1381126.18524  20294196.939         179.250         139.675
 -13328750.58546 -10082322.73661  21980984.2824       4469.1564       3482.4594
 90 12 27 18 56 44.9970000  0  4G17G21G23G11
   1248570.510 6    972904.15822  21496761.689        -880.359        -685.994
  -9946980.37947  -7750892.54063  20143616.2284       2566.1724       1999.6144
  -1775111.207 7  -1383208.16524  20293689.493         177.250         138.117
 -13395742.42846 -10134524.13061  21968237.3994       4463.3134       3477.9064
 90 12 27 18 56 59.9970000  0  4G17G21G23G11
   1261805.600 7    983217.16122  21499281.173        -884.375        -689.123
  -9985446.97347  -7780866.51663  20136295.4234       2562.6724       1996.8874
  -1777753.785 7  -1385267.34124  20293185.251         175.031         136.388
 -13462646.80846 -10186657.39761  21955504.0484       4457.2034       3473.1454
 90 12 27 18 57 14.9970000  0  4G17G21G23G11
   1275106.005 7    993581.06322  21501809.876        -889.141        -692.837
 -10023856.21347  -7810795.79963  20128987.1574       2558.4384       1993.5884
  -1780357.98447  -1387296.61764  20292688.3844        172.0784        134.0874
 -13529454.195 6 -10238715.07621  21942788.337        4450.297        3467.764
 90 12 27 18 57 29.9970000  0  5G17G21G12G23G11
   1288479.697 7   1004002.06822  21504353.345        -893.719        -696.404
 -10062200.12347  -7840674.17463  20121690.3374       2554.4224       1990.4594
        -0.23756                  23149916.1264       3054.5634
  -1782915.91547  -1389289.83864  20292203.0954        169.3134        131.9324
 -13596156.080 6 -10290690.54321  21930097.321        4443.594        3462.541
 90 12 27 18 57 44.9970000  0  5G17G21G12G23G11
   1301918.398 7   1014473.73822  21506914.337        -898.297        -699.972
 -10100486.80147  -7870507.95263  20114403.5174       2550.3284       1987.2694
    -45759.75446                  23141205.0874       3046.5474
  -1785435.80547  -1391253.41464  20291722.9464        166.5314        129.7654
 -13662760.23646 -10342589.85461  21917423.7984       4436.8134       3457.2564
 90 12 27 18 57 59.9970000  0  5G17G21G12G23G11
   1315425.94447   1024999.03962  21509483.9544       -902.8124       -703.4904
 -10138712.46247  -7900294.19063  20107130.0714       2546.3284       1984.1524
    -91399.47046                  23132519.5244       3038.6564
  -1787914.11047  -1393184.59064  20291252.1964        163.8284        127.6584
 -13729262.47546 -10394409.75461  21904767.9234       4430.0784       3452.0094
 90 12 27 18 58 14.9970000  0  5G17G21G12G23G11
   1328997.849 7   1035574.50221  21512066.884        -906.891        -706.668
 -10176881.45647  -7930036.26963  20099866.7984       2542.7664       1981.3764
   -136923.52546                  23123859.1034       3031.1094
  -1790355.34847  -1395086.87964  20290786.5644        161.5634        125.8934
 -13795666.922 6 -10446153.47121  21892132.517        4423.734        3447.066
 90 12 27 18 58 29.9970000  0  5G17G21G12G23G11
   1342640.778 6   1046205.30021  21514664.189        -912.266        -710.856
 -10214987.03547  -7959728.93363  20092615.6344       2537.8914       1977.5774
   -182324.65346                  23115218.1494       3022.2664
  -1792752.75747  -1396955.01664  20290330.8454        158.0004        123.1174
 -13861966.264 6 -10497815.26221  21879517.829        4416.063        3441.088
 90 12 27 18 58 44.9970000  0  5G17G21G12G23G11
   1356357.531 6   1056893.63021  21517273.360        -916.750        -714.351
 -10253026.41047  -7989370.00863  20085379.2434       2533.9064       1974.4724
   -227599.634 6        -0.10731  23106603.196        3014.266        2348.778
  -1795103.56847  -1398786.84664  20289883.4074        155.3134        121.0234
 -13928157.360 6 -10549392.71621  21866923.204        4409.297        3435.816
 90 12 27 18 58 59.9970000  0  5G17G21G12G23G11
   1370138.994 6   1067632.38621  21519895.626        -921.094        -717.735
 -10291008.56047  -8018966.49163  20078151.1424       2530.0634       1971.4774
   -272757.114 6    -35187.72921  23098008.353        3006.406        2342.654
  -1797416.68047  -1400589.29964  20289442.6034        152.7974        119.0634
 -13994248.577 6 -10600892.35321  21854344.243        4402.578        3430.580
 90 12 27 18 59 14.9970000  0  5G17G21G12G23G11
   1383987.635 6   1078423.48521  21522531.142        -925.516        -721.181
 -10328931.31647  -8048516.69363  20070933.8374       2526.1564       1968.4334
   -317794.417 6    -70281.69321  23089439.712        2998.422        2336.433
  -1799690.09547  -1402360.82064  20289011.6814        150.1884        117.0294
 -14060237.16346 -10652312.00561  21841786.0484       4395.7664       3425.2724
 90 12 27 18 59 29.9970000  0  5G17G21G12G23G11
   1397896.493 6   1089261.50321  21525174.439        -929.469        -724.261
 -10366801.71647  -8078026.10363  20063726.9784       2522.7344       1965.7674
   -362718.20745   -105287.21461  23080890.8924       2990.9064       2330.5764
  -1801930.84347  -1404106.88764  20288583.6574        148.0784        115.3864
 -14126129.82646 -10703656.92061  21829247.3604       4389.4224       3420.3294
 90 12 27 18 59 44.9970000  0  5G17G21G12G23G11
   1411876.668 6   1100155.10221  21527838.657        -934.141        -727.902
 -10404608.48047  -8107485.92963  20056532.2044       2518.5784       1962.5284
   -407516.794 5   -140195.15821  23072366.493        2982.641        2324.136
  -1804127.659 7  -1405818.71124  20288166.868         145.250         113.182
 -14191914.84546 -10754917.92461  21816729.2044       4382.3134       3414.7894
 90 12 27 18 59 59.9970000  0  5G17G21G12G23G11
   1425918.185 6   1111096.49421  21530510.181        -938.766        -731.506
 -10442361.41747  -8136903.80763  20049349.1494       2514.4534       1959.3144
   -452199.65045   -175012.90561  23063860.5484       2974.3914       2317.7074
  -1806290.62947  -1407504.17464  20287753.4854        142.4694        111.0154
 -14257601.50046 -10806102.31161  21804230.2124       4375.2194       3409.2614
 90 12 27 19  0 14.9970000  0  5G17G21G12G23G11
   1440030.572 6   1122093.10921  21533197.243        -943.156        -734.927
 -10480050.81047  -8166272.16963  20042176.8144       2510.5474       1956.2704
   -496756.70645   -209732.64461  23055384.1964       2966.2974       2311.4004
  -1808410.19647  -1409155.81464  20287350.3374        139.9064        109.0184
 -14323179.73446 -10857202.21261  21791749.8454       4368.2974       3403.8684
 90 12 27 19  0 29.9970000  0  5G17G21G12G23G11
   1454205.398 6   1133138.37521  21535892.923        -946.891        -737.837
 -10517685.18147  -8195597.65363  20035017.4704       2507.2974       1953.7384
   -541196.143 5   -244360.69221  23046926.759        2958.875        2305.617
  -1810494.96547  -1410780.33664  20286953.7124        137.9844        107.5204
 -14388657.705 6 -10908223.97821  21779288.829        4362.031        3398.985
 90 12 27 19  0 44.9970000  0  5G17G21G12G23G11
   1468448.362 6   1144236.73522  21538603.782        -951.297        -741.270
 -10555258.96147  -8224875.91663  20027866.6424       2503.4064       1950.7064
   -585511.886 5   -278892.36321  23038496.243        2950.750        2299.286
  -1812539.16447  -1412373.25064  20286564.9314        135.4384        105.5364
 -14454029.384 6 -10959162.93221  21766851.329        4355.063        3393.555
 90 12 27 19  0 59.9960000  0  5G17G21G12G23G11
   1482754.88446   1155384.61662  21541325.3094       -955.6724       -744.6794
 -10592773.07847  -8254107.69363  20020727.2624       2499.5314       1947.6874
   -629704.215 5   -313327.86021  23030085.488        2942.656        2292.979
  -1814546.41447  -1413937.36564  20286185.6064        132.9384        103.5884
 -14519293.49546 -11010018.04861  21754432.1064       4348.1094       3388.1374
 90 12 27 19  1 14.9960000  0  5G17G21G12G23G11
   1497133.43146   1166588.61262  21544061.7704       -960.6564       -748.5634
 -10630226.06147  -8283291.82963  20013600.6914       2495.0474       1944.1924
   -673772.22245   -347666.49361  23021696.7624       2933.9224       2286.1734
  -1816510.34247  -1415467.72764  20285809.7074        129.7814        101.1284
 -14584451.647 6 -11060790.61221  21742030.965        4340.500        3382.208
 90 12 27 19  1 29.9960000  0  5G17G21G12G23G11
   1511572.37946   1177839.67662  21546808.4344       -964.7504       -751.7534
 -10667626.26647  -8312434.84763  20006481.8244       2491.4384       1941.3804
   -717723.29945   -381913.98661  23013332.6914       2926.0314       2280.0244
  -1818441.78647  -1416972.77464  20285444.3014        127.5314         99.3754
 -14649509.89046 -11111485.33661  21729650.4884       4333.7194       3376.9244
 90 12 27 19  1 44.9960000  0  5G17G21G12G23G11
   1526073.74246   1189139.37462  21549571.6764       -968.7194       -754.8464
 -10704971.39447  -8341534.94763  19999376.7544       2487.9534       1938.6654
   -761554.85645   -416068.34861  23004992.9814       2918.2344       2273.9494
  -1820338.58947  -1418450.82764  20285081.1914        125.4064         97.7194
 -14714465.50746 -11162100.07661  21717289.9264       4327.0474       3371.7254
 90 12 27 19  1 59.9960000  0  5G17G21G12G23G11
   1540633.15246   1200484.30862  21552341.9884       -972.9224       -758.1214
 -10742265.79847  -8370595.52263  19992279.1844       2484.2504       1935.7794
   -805271.02745   -450132.81061  22996677.0434       2910.1884       2267.6794
  -1822205.34647  -1419905.47064  20284725.7774        123.0944         95.9174
 -14779322.457 6 -11212637.94521  21704949.301        4320.156        3366.356
 90 12 27 19  2 14.9960000  0  5G17G21G12G23G11
   1555264.94547   1211885.64562  21555124.8164       -977.9694       -762.0544
 -10779495.10347  -8399605.37363  19985194.5274       2479.6884       1932.2244
   -848856.85845   -484095.70061  22988379.2544       2901.2664       2260.7264
  -1824027.54447  -1421325.38064  20284380.6844        119.8914         93.4214
 -14844065.97046 -11263087.41461  21692628.7464       4312.3444       3360.2684
 90 12 27 19  2 29.9960000  0  5G17G21G12G23G11
   1569967.42746   1223342.05662  21557923.0594       -982.0784       -765.2564
 -10816661.25347  -8428566.01063  19978122.5664       2476.0784       1929.4124
   -892313.953 5   -517958.27121  22980111.395        2893.281        2254.505
  -1825807.17447  -1422712.14664  20284041.7544        117.6884         91.7054
 -14908697.379 6 -11313449.53421  21680330.309        4305.469        3354.911
 90 12 27 19  2 44.9960000  0  5G17G21G12G23G11
   1584730.825 6   1234845.94622  21560731.137        -986.547        -768.738
 -10853773.91847  -8457484.97063  19971060.4104       2472.0944       1926.3074
   -935651.71445   -551727.85561  22971864.1684       2884.9064       2247.9794
  -1827554.19547  -1424073.49064  20283708.7704        115.0784         89.6714
 -14973226.10846 -11363731.63961  21668047.5354       4298.1724       3349.2254
 90 12 27 19  2 59.9960000  0  5G17G21G12G23G11
   1599570.49946   1246409.26661  21563556.0434       -991.7504       -772.7924
 -10890817.47047  -8486350.07563  19964010.8794       2467.3754       1922.6304
   -978854.01645   -585391.88561  22963640.1764       2875.7344       2240.8324
  -1829252.75747  -1425397.07564  20283385.3404        111.7344         87.0664
 -15037635.87346 -11413921.03061  21655790.6214       4290.1254       3342.9554
 90 12 27 19  3 14.9960000  0  5G17G21G12G23G11
   1614476.153 6   1258024.00621  21566392.527        -995.984        -776.092
 -10927802.36147  -8515169.46063  19956973.9654       2463.6414       1919.7204
  -1021930.90445   -618958.19661  22955444.8244       2867.5314       2234.4404
  -1830913.328 7  -1426691.04924  20283068.949         109.359          85.215
 -15101936.729 6 -11464025.58221  21643558.309        4283.016        3337.415
 90 12 27 19  3 29.9960000  0  5G17G21G12G23G11
   1629449.66846   1269691.62061  21569242.3874      -1000.8914       -779.9154
 -10964726.75547  -8543941.70363  19949946.9574       2459.2034       1916.2624
  -1064880.22845   -652425.11161  22947270.9494       2858.6414       2227.5124
  -1832534.361 7  -1427954.21324  20282760.184         106.359          82.877
 -15166126.575 6 -11514043.63121  21631343.371        4275.203        3331.327
 90 12 27 19  3 44.9960000  0  5G17G21G12G23G11
   1644492.69646   1281413.39961  21572104.1374      -1005.5004       -783.5064
 -11001588.576 7  -8572665.18723  19942933.152        2455.078        1913.048
  -1107699.654 5   -685790.82421  22939123.910        2849.984        2220.767
  -1834113.883 7  -1429185.03724  20282458.738         103.609          80.735
 -15230202.90846 -11563973.21561  21619146.8094       4267.6564       3325.4464
 90 12 27 19  3 59.9960000  0  5G17G21G12G23G11
   1659605.50246   1293189.55061  21574979.9344      -1009.5314       -786.6484
 -11038387.943 7  -8601340.00523  19935929.246        2451.500        1910.260
  -1150388.901 5   -719055.09521  22931001.481        2841.891        2214.460
  -1835651.97847  -1430383.57664  20282167.8954        101.4534         79.0544
 -15294165.33646 -11613814.04761  21606976.9414       4260.6564       3319.9924
 90 12 27 19  4 14.9960000  0  5G17G21G12G23G11
   1674784.68346   1305017.42661  21577868.6214      -1014.0474       -790.1664
 -11075127.97747  -8629968.59863  19928937.7314       2447.4694       1907.1194
  -1192950.80646   -752220.14261  22922902.2384       2833.3284       2207.7884
  -1837151.964 7  -1431552.41724  20281883.816          98.828          77.009
 -15358016.63446 -11663568.27861  21594827.1134       4253.1414       3314.1364
 90 12 27 19  4 29.9960000  0  5G17G21G12G23G11
   1690024.282 6   1316892.38421  21580766.973       -1017.844        -793.125
 -11111814.51047  -8658555.50263  19921956.3484       2444.1414       1904.5254
  -1235390.764 5   -785290.18721  22914823.262        2825.406        2201.615
  -1838619.423 7  -1432695.91124  20281604.465          96.906          75.511
 -15421762.15646 -11713240.08061  21582696.4654       4246.3134       3308.8154
 90 12 27 19  4 44.9960000  0  5G17G21G12G23G11
   1705327.49546   1328816.90461  21583681.9184      -1022.4064       -796.6804
 -11148444.22547  -8687098.12963  19914984.7854       2440.0164       1901.3114
  -1277705.18845   -818262.40561  22906770.3794       2816.7034       2194.8344
  -1840051.363 7  -1433811.73224  20281329.746          94.203          73.405
 -15485398.16546 -11762826.55661  21570586.8244       4238.6564       3302.8494
 90 12 27 19  4 59.9960000  0  5G17G21G12G23G11
   1720701.00146   1340796.18961  21586606.2384      -1027.0474       -800.2964
 -11185010.72047  -8715591.49163  19908027.6914       2435.8594       1898.0724
  -1319887.230 5   -851131.48821  22898745.371        2807.891        2187.967
  -1841441.141 7  -1434894.69924  20281064.285          91.438          71.250
 -15548917.708 6 -11812322.27721  21558498.340        4230.922        3296.822
 90 12 27 19  5 14.9960000  0  5G17G21G12G23G11
   1736135.26546   1352822.82261  21589544.4264      -1030.9844       -803.3644
 -11221523.544 7  -8744043.03223  19901080.129        2432.391        1895.369
  -1361945.789 5   -883904.33521  22890736.895        2799.766        2181.636
  -1842798.146 7  -1435952.13024  20280806.879          89.359          69.631
 -15612329.705 6 -11861734.18921  21546431.395        4223.875        3291.331
 90 12 27 19  5 29.9960000  0  5G17G21G12G23G11
   1751634.83446   1364900.34161  21592493.9184      -1035.3284       -806.7494
 -11257978.10947  -8772449.17463  19894142.3244       2428.5164       1892.3504
  -1403876.18645   -916577.33761  22882763.6844       2791.2194       2174.9764
  -1844118.27747  -1436980.83464  20280555.7074         86.9384         67.7444
 -15675629.498 6 -11911058.67421  21534386.988        4216.375        3285.487
 90 12 27 19  5 44.9960000  0  5G17G21G12G23G11
   1767192.38446   1377023.04461  21595453.2854      -1038.7034       -809.3794
 -11294381.769 7  -8800815.64923  19887215.262        2425.609        1890.085
  -1445685.49845   -949155.96761  22874802.1454       2783.6564       2169.0834
  -1845409.301 7  -1437986.84524  20280312.051          85.500          66.623
 -15738823.95346 -11960301.08161  21522360.8634       4209.8444       3280.3984
 90 12 27 19  5 59.9960000  0  5G17G21G12G23G11
   1782806.787 6   1389190.05021  21598426.926       -1042.969        -812.703
 -11330735.392 7  -8829143.13023  19880297.402        2421.781        1887.102
  -1487374.292 5   -981640.69121  22866877.715        2775.094        2162.411
  -1846671.879 7  -1438970.68923  20280070.090          83.094          64.748
 -15801913.480 6 -12009461.74121  21510357.199        4202.344        3274.554
 90 12 27 19  6 14.9960000  0  5G17G21G12G23G11
   1798482.85946   1401405.11261  21601410.3714      -1047.1414       -815.9544
 -11367034.134 7  -8857427.84923  19873392.106        2418.063        1884.205
  -1528937.16145  -1014027.30261  22858963.9884       2766.6414       2155.8244
  -1847900.956 7  -1439928.42524  20279837.426          80.828          62.983
 -15864892.633 6 -12058536.38421  21498372.441        4194.906        3268.758
 90 12 27 19  6 29.9960000  0  5G17G21G12G23G11
   1814225.80246   1413672.27561  21604403.0904      -1051.7664       -819.5584
 -11403272.632 7  -8885665.62223  19866495.215        2413.891        1880.954
  -1570368.57845  -1046311.49061  22851079.1604       2757.7034       2148.8604
  -1849091.527 7  -1440856.15724  20279608.949          78.063          60.828
 -15927755.753 6 -12107520.60821  21486408.895        4186.984        3262.585
 90 12 27 19  6 44.9960000  0  5G17G21G12G23G11
   1830037.02046   1425992.64561  21607413.3714      -1056.3594       -823.1374
 -11439449.697 7  -8913855.52223  19859608.559        2409.781        1877.752
  -1611667.05345  -1078492.07261  22843222.5594       2748.8134       2141.9324
  -1850242.331 7  -1441752.90224  20279392.496          75.422          58.770
 -15990501.27346 -12156413.19561  21474468.0434       4179.1254       3256.4614
 90 12 27 19  6 59.9960000  0  5G17G21G12G23G11
   1845915.12346   1438365.13361  21610434.5664      -1060.8444       -826.6314
 -11475566.87847  -8941998.77363  19852736.0824       2405.7034       1874.5744
  -1652833.67546  -1110569.91161  22835389.8954       2739.9384       2135.0164
  -1851355.107 7  -1442620.01824  20279179.199          72.797          56.725
 -16053130.31146 -12205215.00461  21462552.1764       4171.2814       3250.3494
 90 12 27 19  7 14.9960000  0  5G17G21G12G23G11
   1861858.35446   1450788.37561  21613471.1064      -1064.6414       -829.5904
 -11511625.313 7  -8970096.24023  19845874.152        2402.344        1871.956
  -1693869.19746  -1142545.60561  22827577.7234       2731.7344       2128.6244
  -1852431.066 7  -1443458.44124  20278974.965          70.922          55.264
 -16115643.68546 -12253926.70661  21450655.0904       4164.1094       3244.7614
 90 12 27 19  7 29.9960000  0  5G17G21G12G23G11
   1877861.24346   1463258.08861  21616510.1294      -1069.0944       -833.0604
 -11547630.487 7  -8998152.20123  19839024.473        2398.344        1868.839
  -1734778.715 6  -1174423.10521  22819793.309        2722.875        2121.721
  -1853475.680 7  -1444272.44324  20278777.106          68.359          53.267
 -16178046.33246 -12302552.10961  21438780.4024       4156.2504       3238.6364
 90 12 27 19  7 44.9960000  0  5G17G21G12G23G11
   1893931.46746   1475780.28061  21619572.5204      -1073.4224       -836.4334
 -11583575.162 7  -9026161.02223  19832183.285        2394.484        1865.832
  -1775554.75746  -1206196.62161  22812035.5044       2714.1414       2114.9154
  -1854481.760 7  -1445056.42024  20278586.316          65.969          51.404
 -16240330.565 6 -12351085.24821  21426926.949        4148.500        3232.597
 90 12 27 19  7 59.9960000  0  5G17G21G12G23G11
   1910063.49646   1488350.62261  21622639.5904      -1078.1414       -840.1104
 -11619464.835 7  -9054126.98423  19825353.590        2390.188        1862.484
  -1816202.403 6  -1237870.06521  22804301.371        2704.938        2107.744
  -1855454.738 7  -1445814.59924  20278401.020          63.156          49.213
 -16302501.37846 -12399530.00861  21415096.6064       4140.3284       3226.2304
 90 12 27 19  8 14.9960000  0  5G17G21G12G23G11
   1926253.97146   1500966.52261  21625724.7314      -1081.2504       -842.5324
 -11655302.542 7  -9082052.45323  19818534.184        2387.531        1860.414
  -1856724.477 6  -1269445.66521  22796589.887        2697.359        2101.838
  -1856397.943 7  -1446549.58023  20278220.684          61.953          48.275
 -16364561.53646 -12447888.54261  21403289.0204       4133.7194       3221.0804
 90 12 27 19  8 29.9960000  0  5G17G21G12G23G11
   1942516.02346   1513638.19161  21628816.3954      -1087.1094       -847.0984
 -11691075.358 7  -9109927.36323  19811725.746        2382.094        1856.177
  -1897107.681 6  -1300913.06821  22788901.387        2686.984        2093.754
  -1857298.285 7  -1447251.15823  20278050.176          58.016          45.207
 -16426497.638 6 -12496150.42721  21391503.012        4124.328        3213.762
 90 12 27 19  8 44.9960000  0  5G17G21G12G23G11
   1958852.93446   1526368.19261  21631926.3484      -1091.1564       -850.2524
 -11726779.489 7  -9137748.74823  19804930.895        2378.469        1853.352
  -1937348.11746  -1332269.23261  22781248.3244       2678.4064       2087.0704
  -1858152.254 7  -1447916.60524  20277885.191          55.859          43.527
 -16488305.50446 -12544312.37161  21379737.9414       4116.7194       3207.8334
 90 12 27 19  8 59.9960000  0  5G17G21G12G23G11
   1975253.39446   1539147.70561  21635049.1604      -1095.3124       -853.4904
 -11762426.652 7  -9165525.74623  19798147.723        2374.750        1850.455
  -1977456.97146  -1363522.86861  22773613.1844       2669.6884       2080.2764
  -1858971.287 7  -1448554.83324  20277730.059          53.594          41.761
 -16549996.31646 -12592383.09961  21367999.8634       4108.9694       3201.7944
 90 12 27 19  9 14.9960000  0  5G17G21G12G23G11
   1991715.54946   1551975.29661  21638178.6524      -1099.7504       -856.9484
 -11798018.310 7  -9193259.49523  19791375.770        2370.703        1847.301
  -2017435.367 6  -1394674.83821  22766005.418        2660.656        2073.239
  -1859756.974 7  -1449167.07524  20277581.410          51.063          39.789
 -16611571.296 6 -12640363.57321  21356280.699        4100.906        3195.511
 90 12 27 19  9 29.9960000  0  5G17G21G12G23G11
   2008241.98546   1564852.98161  21641321.5594      -1104.2344       -860.4424
 -11833552.01647  -9220948.08263  19784614.4264       2366.6564       1844.1484
  -2057280.471 5  -1425722.95921  22758420.434        2651.578        2066.165
  -1860507.311 7  -1449751.76423  20277438.481          48.516          37.804
 -16673027.35346 -12688251.37461  21344588.5904       4092.7664       3189.1684
 90 12 27 19  9 44.9960000  0  5G17G21G12G23G11
   2024830.015 6   1577778.64621  21644479.777       -1108.500        -863.766
 -11869030.618 7  -9248593.72923  19777863.457        2362.828        1841.165
  -2096994.84445  -1456669.20761  22750866.5594       2642.6884       2059.2374
  -1861224.966 7  -1450310.99324  20277302.652          46.172          35.978
 -16734366.94546 -12736048.41861  21332914.1994       4084.8284       3182.9834
 90 12 27 19  9 59.9960000  0  5G17G21G12G23G11
   2041487.10846   1590758.13761  21647651.1764      -1112.5624       -866.9324
 -11904446.30147  -9276190.35863  19771123.6604       2359.1724       1838.3164
  -2136570.396 5  -1487507.26721  22743336.176        2633.953        2052.431
  -1861902.219 7  -1450838.73724  20277173.832          44.031          34.310
 -16795581.849 6 -12783748.30221  21321267.301        4077.047        3176.920
 90 12 27 19 10 14.9960000  0  5G17G21G12G23G11
   2058213.740 6   1603791.81921  21650834.879       -1116.703        -870.158
 -11939798.78047  -9303737.73963  19764395.4884       2355.4534       1835.4184
  -2176006.34246  -1518236.54561  22735830.2074       2625.1254       2045.5524
  -1862538.574 7  -1451334.61424  20277052.988          41.797          32.569
 -16856671.23746 -12831350.39861  21309641.6764       4069.1564       3170.7714
 90 12 27 19 10 29.9960000  0  5G17G21G12G23G11
   2074992.04646   1616865.76561  21654025.1134      -1121.1094       -873.5924
 -11975105.58947  -9331249.52963  19757676.4494       2351.4064       1832.2654
  -2215320.118 6  -1548870.64321  22728349.098        2615.984        2038.429
  -1863151.946 7  -1451812.57924  20276936.043          39.266          30.597
 -16917652.533 6 -12878868.26321  21298036.606        4060.938        3164.367
 90 12 27 19 10 44.9960000  0  5G17G21G12G23G11
   2091838.80146   1629993.04061  21657231.5514      -1125.1874       -876.7694
 -12010349.90347  -9358712.62763  19750970.9024       2347.7664       1829.4284
  -2254494.54946  -1579396.14461  22720893.9884       2607.2034       2031.5874
  -1863725.624 7  -1452259.61824  20276827.246          37.125          28.929
 -16978508.44046 -12926288.41461  21286456.8634       4053.0944       3158.2554
 90 12 27 19 10 59.9960000  0  5G17G21G12G23G11
   2108754.34146   1643173.92561  21660453.3164      -1130.0164       -880.5324
 -12045531.75647  -9386127.04663  19744278.2544       2343.3444       1825.9824
  -2293529.25446  -1609812.76161  22713466.1684       2597.6254       2024.1234
  -1864259.544 7  -1452675.67523  20276726.629          34.250          26.688
 -17039238.32646 -12973610.36961  21274899.1134       4044.4224       3151.4984
 90 12 27 19 11 14.9960000  0  5G17G21G12G23G11
   2125738.197 6   1656408.04421  21663684.262       -1134.594        -884.099
 -12080651.31747  -9413492.92763  19737593.2154       2339.1724       1822.7314
  -2332424.10946  -1640120.39561  22706067.2774       2588.2664       2016.8304
  -1864753.959 7  -1453060.95024  20276629.410          31.594          24.619
 -17099842.07946 -13020834.04561  21263366.8714       4035.9844       3144.9234
 90 12 27 19 11 29.9960000  0  5G17G21G12G23G11
   2142783.35046   1669689.92661  21666926.3094      -1138.2814       -886.9724
 -12115715.38247  -9440815.57063  19730920.6454       2335.8594       1820.1504
  -2371185.66346  -1670324.16661  22698688.9264       2579.7664       2010.2074
  -1865215.576 7  -1453420.67523  20276543.613          29.781          23.206
 -17160326.09246 -13067964.40961  21251857.2934       4028.3754       3138.9944
 90 12 27 19 11 44.9960000  0  5G17G21G12G23G11
   2159892.467 6   1683021.65421  21670183.191       -1142.656        -890.381
 -12150721.49047  -9468093.04563  19724258.7544       2331.8754       1817.0454
  -2409811.10046  -1700421.88161  22691337.8324       2570.5634       2003.0364
  -1865641.981 7  -1453752.95624  20276462.121          27.328          21.295
 -17220687.46846 -13114999.22261  21240371.2154       4020.0784       3132.5284
 90 12 27 19 11 59.9960000  0  5G17G21G12G23G11
   2177064.75546   1696402.59561  21673449.6604      -1146.8284       -893.6324
 -12185670.43347  -9495325.98163  19717608.1294       2328.1254       1814.1234
  -2448300.853 6  -1730413.84821  22684017.996        2561.547        1996.011
  -1866034.022 7  -1454058.45624  20276385.543          25.094          19.554
 -17280926.61946 -13161938.78061  21228908.1134       4011.9534       3126.1974
 90 12 27 19 12 14.9960000  0  5G17G21G12G23G11
   2194289.73746   1709824.59961  21676730.3714      -1150.5944       -896.5674
 -12220572.52147  -9522522.40963  19710967.0044       2324.7344       1811.4814
  -2486664.879 6  -1760307.84621  22676716.402        2552.906        1989.278
  -1866402.30947  -1454345.43863  20276317.8564         23.2504         18.1174
 -17341053.33846 -13208790.73461  21217467.8324       4004.1884       3120.1464
 90 12 27 19 12 29.9960000  0  5G17G21G12G23G11
   2211586.78346   1723302.75561  21680019.6454      -1155.2034       -900.1584
 -12255408.11347  -9549667.01963  19704336.6684       2320.4694       1808.1574
  -2524883.283 6  -1790088.36021  22669441.598        2543.344        1981.826
  -1866727.104 7  -1454598.53824  20276255.301          20.516          15.986
 -17401047.64547 -13255539.51261  21206052.0904       3995.5164       3113.3894
 90 12 27 19 12 44.9960000  0  5G17G21G12G23G11
   2228949.12146   1736831.79461  21683324.8094      -1159.4224       -903.4464
 -12290183.90447  -9576765.03563  19697718.7854       2316.6414       1805.1754
  -2562962.59146  -1819760.49761  22662193.9574       2534.2034       1974.7044
  -1867015.041 7  -1454822.91223  20276198.793          18.219          14.196
 -17460915.892 7 -13302190.05821  21194658.598        3987.234        3106.936
 90 12 27 19 12 59.9960000  0  5G17G21G12G23G11
   2246369.02246   1750405.68661  21686638.4184      -1163.0004       -906.2344
 -12324907.91547  -9603822.70563  19691111.9884       2313.4694       1802.7034
  -2600910.406 6  -1849330.18021  22654974.168        2525.719        1968.093
  -1867274.393 7  -1455025.01923  20276149.746          16.578          12.918
 -17520665.61347 -13348748.24461  21183288.4734       3979.5944       3100.9824
 90 12 27 19 13 14.9960000  0  5G17G21G12G23G11
   2263845.916 6   1764023.98621  21689966.309       -1167.125        -909.448
 -12359580.64447  -9630840.41363  19684514.9184       2309.7034       1799.7694
  -2638726.842 6  -1878797.47921  22647776.316        2516.609        1960.994
  -1867505.738 7  -1455205.30223  20276107.660          14.391          11.213
 -17580297.02546 -13395214.25061  21171939.9344       3971.3754       3094.5784
 90 12 27 19 13 29.9960000  0  5G17G21G12G23G11
   2281386.512 6   1777691.92821  21693301.691       -1171.297        -912.699
 -12394195.34347  -9657812.91363  19677927.0594       2305.9064       1796.8104
  -2676404.903 6  -1908156.95921  22640605.668        2507.438        1953.847
  -1867702.173 7  -1455358.38123  20276071.316          12.109           9.436
 -17639802.84046 -13441582.38361  21160615.6764       3963.0474       3088.0884
 90 12 27 19 13 44.9960000  0  5G17G21G12G23G11
   2298992.76946   1791411.02861  21696651.9024      -1176.0004       -916.3644
 -12428749.76447  -9684738.43963  19671351.8404       2301.5634       1793.4254
  -2713942.041 6  -1937406.62321  22633462.848        2497.719        1946.274
  -1867861.653 7                  20276039.316           9.344
 -17699180.43246 -13487850.59861  21149315.4184       3954.1724       3081.1734
 90 12 27 19 13 59.9960000  0  5G17G21G12G23G11
   2316660.21446   1805177.81161  21700014.5434      -1179.7664       -919.2984
 -12463248.41847  -9711620.50663  19664788.4184       2298.1564       1790.7714
  -2751342.581 6  -1966549.85821  22626345.848        2488.922        1939.420
  -1867988.682 7                  20276014.082           7.484
 -17758433.87846 -13534022.07861  21138041.5044       3946.1884       3074.9514
 90 12 27 19 14 14.9960000  0  5G17G21G12G23G11
   2334384.94146   1818989.22561  21703387.2624      -1184.3594       -922.8774
 -12497695.17047  -9738462.13063  19658233.0274       2293.9224       1787.4724
  -2788610.02846  -1995589.39661  22619258.7934       2479.2504       1931.8834
  -1868087.036 7                  20275996.832           4.797
 -17817566.59546 -13580099.49261  21126786.6994       3937.3594       3068.0724
 90 12 27 19 14 29.9960000  0  5G17G21G12G23G11
   2352178.49346   1832854.26361  21706773.6524      -1188.6094       -926.1894
 -12532078.46247  -9765254.30463  19651690.1684       2290.0474       1784.4524
  -2825732.427 6  -2024515.90421  22612191.887        2469.938        1924.627
  -1868145.270 7                  20275987.809           2.500
 -17876566.691 6 -13626073.54521  21115561.793        3928.844        3061.437
 90 12 27 19 14 44.9960000  0  5G17G21G12G23G11
   2370035.07946   1846768.42561  21710174.4414      -1192.2194       -929.0024
 -12566404.08547  -9792001.54263  19645158.6604       2286.7814       1781.9074
  -2862715.51346  -2053333.86061  22605153.7854       2461.2344       1917.8454
  -1868169.396 7                  20275976.356           0.797
 -17935439.534 6 -13671948.46521  21104357.559        3920.938        3055.276
 90 12 27 19 14 59.9960000  0  5G17G21G12G23G11
   2387955.51046   1860732.33261  21713581.1294      -1196.9374       -932.6794
 -12600671.21747  -9818703.20263  19638636.9184       2282.4224       1778.5114
  -2899558.120 6  -2082042.35621  22598140.676        2451.359        1910.150
  -1868158.691 7                  20275981.684          -1.984
 -17994184.038 6 -13717723.38221  21093180.449        3911.891        3048.226
 90 12 27 19 15 14.9960000  0  5G17G21G12G23G11
   2405932.73046   1874740.48861  21716999.2934      -1200.9224       -935.7834
 -12634886.62547  -9845364.55863  19632124.1684       2278.7344       1775.6374
  -2936266.453 6  -2110646.23021  22591160.754        2442.172        1902.991
  -1868119.934 7                  20275993.332          -4.078
 -18052806.29446 -13763403.03661  21082021.1994       3903.5164       3041.7004
 90 12 27 19 15 29.9960000  0  5G17G21G12G23G11
   2423976.18646   1888800.25461  21720439.0204      -1205.0164       -938.9734
 -12669040.61947  -9871978.05663  19625625.4494       2275.0004       1772.7274
  -2972830.86946  -2139137.94961  22584196.6214       2432.9224       1895.7834
  -1868043.462 7                  20276003.082          -6.266
 -18111296.463 6 -13808979.75721  21070894.660        3895.047        3035.101
 90 12 27 19 15 44.9960000  0  5G17G21G12G23G11
   2442087.05246   1902912.55261  21723886.6374      -1209.6254       -942.5654
 -12703132.31147  -9898543.01163  19619138.6374       2270.7344       1769.4034
  -3009250.141 6  -2167516.58921  22577271.106        2423.141        1888.162
  -1867928.098 7                  20276027.996          -8.953
 -18169653.135 6 -13854452.47821  21059786.777        3886.031        3028.076
 90 12 27 19 15 59.9960000  0  5G17G21G12G23G11
   2460260.34546   1917073.49861  21727338.8794      -1213.5944       -945.6574
 -12737166.73347  -9925063.33063  19612663.6844       2267.0944       1766.5674
  -3045528.799 6  -2195785.64621  22570364.699        2413.922        1880.978
  -1867779.125 7                  20276054.824         -11.000
 -18227880.799 7 -13899824.66421  21048709.637        3877.594        3021.502
 90 12 27 19 16 14.9960000  0  5G17G21G12G23G11
   2478494.394 6   1931281.77521  21730809.449       -1217.687        -948.847
 -12771145.45547  -9951540.25363  19606196.9734       2263.3444       1763.6444
  -3081668.31945  -2223946.29461  22563491.9494       2404.6094       1873.7224
  -1867598.320 7                  20276087.520         -13.172
 -18285980.863 7 -13945097.42621  21037652.129        3869.016        3014.817
 90 12 27 19 16 29.9960000  0  5G17G21G12G23G11
   2496792.24646   1945539.77961  21734296.3484      -1221.5944       -951.8914
 -12805065.33447  -9977971.32963  19599741.4494       2259.7504       1760.8444
  -3117665.19745  -2251995.77561  22556635.0514       2395.4064       1866.5504
  -1867382.407 7  -1455109.40523  20276131.590         -15.187         -11.834
 -18343949.66747 -13990267.89661  21026621.5984       3860.5944       3008.2554
 90 12 27 19 16 44.9960000  0  5G17G21G12G23G11
   2515144.73246   1959840.35661  21737788.2544      -1225.8754       -955.2274
 -12838935.04447 -10004363.30963  19593294.2854       2255.7344       1757.7154
  -3153527.793 6  -2279940.63821  22549811.801        2385.797        1859.063
  -1867140.226 7  -1454920.70923  20276177.785         -17.562         -13.685
 -18401795.52147 -14035342.55961  21015613.6374       3851.7344       3001.3514
 90 12 27 19 16 59.9960000  0  5G17G21G12G23G11
   2533558.16646   1974188.42661  21741289.9024      -1229.7814       -958.2714
 -12872748.43047 -10030711.39663  19586860.3484       2252.1884       1754.9514
  -3189249.600 6  -2307775.78521  22543016.660        2376.609        1851.903
  -1866865.767 7  -1454706.86123  20276227.481         -19.531         -15.219
 -18459511.891 7 -14080316.33021  21004632.363        3843.281        2994.765
 90 12 27 19 17 14.9960000  0  5G17G21G12G23G11
   2552036.86846   1988587.34761  21744807.6454      -1234.2194       -961.7294
 -12906501.41747 -10057012.43163  19580435.8404       2248.0474       1751.7254
  -3224826.454 6  -2335497.99021  22536246.152        2366.828        1844.282
  -1866555.210 7  -1454464.88623  20276290.457         -22.047         -17.179
 -18517094.442 7 -14125185.83221  20993672.598        3834.219        2987.703
 90 12 27 19 17 29.9960000  0  5G17G21G12G23G11
   2570577.193 6   2003034.29921  21748336.199       -1238.125        -964.773
 -12940197.23247 -10083268.91563  19574026.3014       2244.4384       1748.9124
  -3260261.16845  -2363109.44461  22529501.4264       2357.5314       1837.0374
  -1866211.592 7  -1454197.15123  20276354.668         -24.062         -18.750
 -18574545.90647 -14169953.18061  20982741.6064       3825.6724       2981.0434
 90 12 27 19 17 44.9960000  0  5G17G21G12G23G11
   2589182.55546   2017531.91861  21751876.1914      -1242.5474       -968.2184
 -12973832.61747 -10109478.30163  19567625.4184       2240.3284       1745.7104
  -3295550.29946  -2390607.46561  22522785.7544       2347.7344       1829.4034
  -1865831.317 7  -1453900.85423  20276426.731         -26.578         -20.710
 -18631862.486 7 -14214615.43121  20971834.582        3816.578        2973.957
 90 12 27 19 17 59.9960000  0  5G17G21G12G23G11
   2607856.30846   2032082.82661  21755429.3324      -1246.8124       -971.5424
 -13007404.16847 -10135637.94763  19561238.9734       2236.3594       1742.6184
  -3330690.28846  -2417989.27461  22516101.1134       2338.0634       1821.8674
  -1865411.547 7  -1453573.78023  20276507.606         -28.922         -22.537
 -18689040.496 7 -14259169.70321  20960954.449        3807.625        2966.981
 90 12 27 19 18 14.9960000  0  5G17G21G12G23G11
   2626587.30246   2046678.33861  21758993.0434      -1250.8594       -974.6964
 -13040923.04947 -10161756.55163  19554859.0984       2232.6094       1739.6964
  -3365691.625 6  -2445263.04821  22509439.184        2328.578        1814.476
  -1864962.888 7  -1453224.20323  20276589.168         -31.094         -24.229
 -18746090.557 7 -14303624.28321  20950096.918        3798.844        2960.138
 90 12 27 19 18 29.9960000  0  5G17G21G12G23G11
   2645378.44146   2061320.71961  21762569.3714      -1254.6094       -977.6184
 -13074386.05947 -10187831.61863  19548490.8634       2229.1884       1737.0294
  -3400551.02246  -2472426.22061  22502805.7234       2319.3754       1807.3054
  -1864482.382 7  -1452849.80323  20276683.051         -32.922         -25.653
 -18803009.15947 -14347976.43361  20939266.4964       3790.3594       2953.5274
 90 12 27 19 18 44.9960000  0  5G17G21G12G23G11
   2664224.349 6   2076005.76221  21766153.934       -1259.141        -981.149
 -13107798.89947 -10213867.59463  19542131.9494       2224.9064       1733.6934
  -3435273.95246  -2499483.05061  22496199.2314       2309.3754       1799.5134
  -1863975.918 7  -1452455.17223  20276778.637         -35.562         -27.711
 -18859801.64747 -14392230.31162  20928459.6374       3781.0164       2946.2464
 90 12 27 19 18 59.9960000  0  5G17G21G12G23G11
   2683134.10246   2090740.57561  21769753.6844      -1262.5624       -983.8154
 -13141152.07047 -10239857.07963  19535786.0124       2221.7664       1731.2464
  -3469850.709 6  -2526425.99221  22489619.527        2300.453        1792.561
  -1863434.289 7  -1452033.14423  20276881.465         -37.078         -28.892
 -18916458.12247 -14436378.20261  20917677.2464       3772.7664       2939.8174
 90 12 27 19 19 14.9950000  0  5G17G21G12G23G11
   2702107.69246   2105525.12661  21773364.5624      -1266.9534       -987.2364
 -13174442.28247 -10265797.50263  19529452.5074       2217.6724       1728.0564
  -3504277.520 6  -2553252.09521  22483066.413        2290.531        1784.830
  -1862856.083 7  -1451582.61923  20276991.390         -39.578         -30.840
 -18972973.13547 -14480415.87061  20906924.3354       3763.5164       2932.6104
 90 12 27 19 19 29.9950000  0  5G17G21G12G23G11
   2721142.780 6   2120357.59621  21776984.812       -1270.656        -990.122
 -13207678.77747 -10291696.07163  19523127.2884       2214.2504       1725.3904
  -3538563.50846  -2579968.46661  22476547.9684       2281.2974       1777.6344
  -1862246.277 7  -1451107.46823  20277105.593         -41.359         -32.228
 -19029358.75847 -14524352.70761  20896192.9834       3754.9384       2925.9254
 90 12 27 19 19 44.9950000  0  5G17G21G12G23G11
   2740232.70746   2135232.79161  21780620.0854      -1274.5784       -993.1784
 -13240864.39947 -10317554.99963  19516812.8584       2210.5784       1722.5284
  -3572711.34446  -2606577.18461  22470046.5074       2271.8134       1770.2444
  -1861610.11647  -1450611.78563  20277230.5624        -43.3754        -33.7994
 -19085616.08447 -14568189.57761  20885487.1404       3746.1094       2919.0464
 90 12 27 19 19 59.9950000  0  5G17G21G12G23G11
   2759381.23146   2150153.65661  21784263.2264      -1278.8444       -996.5024
 -13273995.07747 -10343371.11363  19510507.9214       2206.5634       1719.3994
  -3606716.685 6  -2633074.86421  22463572.601        2261.953        1762.561
  -1860943.63847  -1450092.48563  20277355.4834        -45.7504        -35.6494
 -19141740.681 7 -14611923.01421  20874807.046        3736.891        2911.863
 90 12 27 19 20 14.9950000  0  5G17G21G12G23G11
   2778595.32646   2165125.61761  21787918.1084      -1283.2504       -999.9354
 -13307064.10647 -10369139.18963  19504213.9764       2202.4224       1716.1734
  -3640572.51146  -2659456.04361  22457131.5154       2251.9534       1754.7694
  -1860240.17347  -1449544.35763  20277491.6014        -48.2664        -37.6104
 -19197725.406 7 -14655547.46021  20864152.710        3727.516        2904.558
 90 12 27 19 20 29.9950000  0  5G17G21G12G23G11
   2797869.062 6   2180144.03721  21791586.655       -1287.016       -1002.869
 -13340077.36747 -10394863.81163  19497932.0304       2198.8914       1713.4214
  -3674284.51346  -2685725.15461  22450715.8274       2242.5314       1747.4274
  -1859505.320 7  -1448971.77123  20277628.179         -50.172         -39.095
 -19253575.606 7 -14699067.08721  20853525.101        3718.703        2897.691
 90 12 27 19 20 44.9950000  0  5G17G21G12G23G11
   2817208.87946   2195213.96661  21795266.7804      -1291.2344      -1006.1574
 -13373028.17847 -10420539.76863  19491661.9214       2194.9384       1710.3414
  -3707845.76946  -2711876.79561  22444331.4214       2232.6884       1739.7564
  -1858732.586 7  -1448369.66523  20277776.108         -52.484         -40.897
 -19309284.344 7 -14742476.47021  20842927.765        3709.500        2890.519
 90 12 27 19 20 59.9950000  0  5G17G21G12G23G11
   2836604.01146   2210326.97661  21798956.9294      -1295.2664      -1009.2984
 -13405927.36947 -10446175.50963  19485401.4444       2191.1414       1707.3824
  -3741266.82246  -2737919.17561  22437973.6244       2222.9694       1732.1834
  -1857932.885 7  -1447746.54223  20277930.241         -54.641         -42.577
 -19364862.10947 -14785783.81561  20832348.4684       3700.3914       2883.4214
 90 12 27 19 21 14.9950000  0  5G17G21G12G23G11
   2856063.86446   2225490.44161  21802661.5544      -1299.4064      -1012.5244
 -13438765.17747 -10471763.42063  19479152.4444       2187.2194       1704.3264
  -3774537.707 6  -2763844.56121  22431636.358        2213.141        1724.525
  -1857096.394 7  -1447094.74723  20278088.444         -56.906         -44.343
 -19420298.914 7 -14828981.30021  20821798.812        3691.156        2876.226
 90 12 27 19 21 29.9950000  0  5G17G21G12G23G11
   2875586.37946   2240702.72261  21806377.9054      -1303.7664      -1015.9214
 -13471543.86347 -10497305.25963  19472915.0304       2183.1094       1701.1244
  -3807660.46946  -2789654.52361  22425336.0304       2203.0784       1716.6844
  -1856225.534 7  -1446416.17623  20278254.421         -59.375         -46.266
 -19475596.49647 -14872070.32461  20811277.4764       3681.6724       2868.8354
 90 12 27 19 21 44.9950000  0  5G17G21G12G23G11
   2895165.52846   2255959.13961  21810100.5544      -1307.2504      -1018.6364
 -13504269.55447 -10522805.80463  19466686.8744       2179.8754       1698.6044
  -3840640.866 6  -2815353.54421  22419060.851        2193.859        1709.501
  -1855326.349 7  -1445715.53523  20278424.030         -60.969         -47.508
 -19530760.52447 -14915055.27461  20800779.2574       3673.0634       2862.1274
 90 12 27 19 21 59.9950000  0  5G17G21G12G23G11
   2914805.20246   2271262.71161  21813841.8664      -1311.4534      -1021.9124
 -13536938.17447 -10548261.87063  19460471.0234       2175.8754       1695.4874
  -3873474.56646  -2840938.24861  22412817.5384       2183.8914       1701.7334
  -1854394.841 7  -1444989.70923  20278601.749         -63.312         -49.334
 -19585786.444 7 -14957932.60022  20790307.655        3663.641        2854.785
 90 12 27 19 22 14.9950000  0  5G17G21G12G23G11
   2934506.06846   2286613.97561  21817590.7804      -1315.6874      -1025.2114
 -13569548.83347                  19454266.1794       2171.8594
  -3906160.54646                  22406595.5154       2173.8914
  -1853430.406 7  -1444238.22623  20278785.233         -65.641         -51.149
 -19640673.173 7 -15000701.46522  20779863.929        3654.234        2847.455
 90 12 27 19 22 29.9950000  0  5G17G21G12G23G11
   2954272.00846   2302015.94161  21821349.6794      -1319.3444      -1028.0604
 -13602097.63147                  19448072.5544       2168.4224
  -3938694.65546                  22400403.3824       2164.4384
  -1852429.03147  -1443457.96363  20278974.8514        -67.4224        -52.5374
 -19695416.466 7 -15043358.56521  20769446.640        3645.328        2840.515
 90 12 27 19 22 44.9950000  0  5G17G21G12G23G11
   2974086.68146   2317455.88461  21825121.7414      -1322.5314      -1030.5444
 -13634600.94347 -10624362.72963  19441885.8824       2165.4384       1687.3544
  -3971092.79746  -2917004.39261  22394238.7414       2155.4224       1679.5504
  -1851407.186 7  -1442661.74323  20279168.562         -68.719         -53.547
 -19750032.111 7 -15085916.18921  20759053.319        3636.844        2833.904
 90 12 27 19 22 59.9950000  0  5G17G21G12G23G11
   2993950.441 6   2332934.05721  21828900.937       -1326.875       -1033.929
 -13667058.12447 -10649654.04163  19435708.9374       2161.2974       1684.1274
  -4003354.20646  -2942143.14561  22388096.6084       2145.2034       1671.5874
  -1850364.166 7  -1441849.01723  20279368.952         -71.219         -55.495
 -19804519.191 7 -15128373.63821  20748685.171        3627.188        2826.380
 90 12 27 19 23 14.9950000  0  5G17G21G12G23G11
   3013883.097 6   2348465.91421  21832691.382       -1330.781       -1036.972
 -13699449.54047 -10674894.11163  19429547.5694       2157.5784       1681.2304
  -4035459.12846  -2967159.96261  22381988.6484       2135.4384       1663.9774
  -1849280.495 7  -1441004.62323  20279575.491         -73.250         -57.078
 -19858857.664 7 -15170715.28122  20738345.312        3617.938        2819.172
 90 12 27 19 23 29.9950000  0  5G17G21G12G23G11
   3033878.88846   2364046.98661  21836501.3584      -1335.2034      -1040.4184
 -13731780.76847 -10700087.27463  19423393.8824       2153.3754       1677.9554
  -4067413.036 6  -2992059.08821  22375908.460        2125.156        1655.966
  -1848161.787 7  -1440132.92623  20279789.499         -75.797         -59.062
 -19913052.775 7 -15212945.22322  20728033.569        3608.156        2811.550
 90 12 27 19 23 44.9950000  0  5G17G21G12G23G11
   3053935.147 6   2379675.16021  21840317.476       -1339.344       -1043.644
 -13764054.44347 -10725235.59063  19417251.7734       2149.4224       1674.8744
  -4099218.20246  -3016842.32861  22369854.2264       2115.1564       1648.1744
  -1847010.477 7  -1439235.82723  20280007.069         -78.078         -60.840
 -19967106.714 7 -15255065.15322  20717745.499        3598.641        2804.136
 90 12 27 19 23 59.9950000  0  5G17G21G12G23G11
   3074054.580 6   2395352.56221  21844143.273       -1343.500       -1046.883
 -13796267.74247 -10750336.85763  19411123.1554       2145.4384       1671.7694
  -4130871.489 6  -3041507.20021  22363830.655        2105.063        1640.308
  -1845824.152 7  -1438311.43523  20280233.273         -80.359         -62.618
 -20021016.336 7 -15297072.62021  20707487.507        3589.063        2796.672
 90 12 27 19 24 14.9950000  0  5G17G21G12G23G11
   3094232.644 6   2411075.65421  21847985.265       -1347.500       -1050.000
 -13828425.02547 -10775394.47663  19405003.2884       2141.5944       1668.7744
  -4162377.111 6  -3066057.02021  22357838.413        2095.094        1632.541
  -1844606.700 7  -1437362.79323  20280467.249         -82.547         -64.322
 -20074785.708 7 -15338970.81522  20697254.835        3579.578        2789.282
 90 12 27 19 24 29.9950000  0  5G17G21G12G23G11
   3114467.94046   2426843.34761  21851836.3354      -1351.1414      -1052.8374
 -13860527.38247 -10800409.29663  19398894.0934       2138.1254       1666.0714
  -4193735.878 6  -3090492.39521  22351868.913        2085.469        1625.041
  -1843359.701 7  -1436391.12623  20280702.577         -84.328         -65.710
 -20128415.575 7 -15380760.29722  20687048.616        3570.469        2782.183
 90 12 27 19 24 44.9950000  0  5G17G21G12G23G11
   3134761.05346   2442656.10261  21855697.7964      -1354.8914      -1055.7594
 -13892574.46847 -10825381.05063  19392795.4294       2134.5314       1663.2714
  -4224947.223 6  -3114812.90221  22345929.851        2075.750        1617.468
  -1842082.748 7  -1435396.11523  20280944.851         -86.234         -67.196
 -20181905.259 7 -15422440.54621  20676871.319        3561.203        2774.963
 90 12 27 19 24 59.9950000  0  5G17G21G12G23G11
   3155110.37546   2458512.65361  21859571.7804      -1358.7504      -1058.7664
 -13924567.81847 -10850310.93063  19386708.2734       2130.8594       1660.4104
  -4256012.476 6  -3139019.58021  22340015.874        2065.891        1609.785
  -1840777.189 7  -1434378.80623  20281193.444         -88.219         -68.742
 -20235255.895 7 -15464012.45522  20666718.444        3551.813        2767.646
 90 12 27 19 25 14.9950000  0  5G17G21G12G23G11
   3175517.58046   2474414.30961  21863453.0154      -1362.3124      -1061.5424
 -13956505.82147 -10875197.68463  19380629.7104       2127.4224       1657.7314
  -4286929.75346  -3163110.93061  22334135.6484       2056.2974       1602.3094
  -1839441.558 7  -1433338.06723  20281448.296         -89.953         -70.093
 -20288465.48847 -15505474.44962  20656591.2414       3542.6884       2760.5364
 90 12 27 19 25 29.9950000  0  5G17G21G12G23G11
   3195979.36546   2490358.48961  21867347.3514      -1366.3124      -1064.6594
 -13988391.36947 -10900043.56563  19374562.0934       2123.5784       1654.7364
  -4317701.775 6  -3187089.09321  22328278.483        2046.266        1594.493
  -1838078.88647  -1432276.25663  20281708.1014        -92.1254        -71.7864
 -20341536.677 7 -15546828.59722  20646492.819        3533.078        2753.048
 90 12 27 19 25 44.9950000  0  5G17G21G12G23G11
   3216504.19146   2506351.80461  21871253.6794      -1370.4064      -1067.8494
 -14020216.06547 -10924842.02863  19368506.0234       2119.6254       1651.6564
  -4348319.93846  -3210947.38061  22322453.2884       2036.0944       1586.5674
  -1836680.624 7  -1431186.71623  20281974.030         -94.391         -73.551
 -20394460.404 7 -15588067.84422  20636422.851        3523.313        2745.438
 90 12 27 19 25 59.9950000  0  5G17G21G12G23G11
   3237089.81446   2522392.48761  21875168.2334      -1374.2194      -1070.8204
 -14051981.92847 -10949594.64563  19362462.4764       2115.9534       1648.7954
  -4378786.19846  -3234687.29161  22316652.4444       2026.1884       1578.8474
  -1835249.086 7  -1430071.25223  20282244.093         -96.375         -75.097
 -20447238.65147 -15629193.72862  20626379.0464       3513.8754       2738.0844
 90 12 27 19 26 14.9950000  0  5G17G21G12G23G11
   3257731.84646   2538477.12161  21879099.4604      -1378.0624      -1073.8154
 -14083693.49747 -10974304.95363  19356426.8044       2112.2664       1645.9214
  -4409104.716 6  -3258312.05321  22310882.616        2016.266        1571.116
  -1833788.701 7  -1428933.30623  20282522.976         -98.344         -76.631
 -20499875.472 7 -15670209.40622  20616360.624        3504.375        2730.682
 90 12 27 19 26 29.9950000  0  5G17G21G12G23G11
   3278431.96846   2554607.02961  21883039.1794      -1382.1094      -1076.9684
 -14115348.82747 -10998971.44563  19350402.9994       2108.2974       1642.8294
  -4439273.456 6  -3281820.12821  22305143.015        2006.078        1563.178
  -1832297.468 7  -1427771.32023  20282806.163        -100.609         -78.397
 -20552368.51547 -15711113.04262  20606374.2574       3494.5784       2723.0484
 90 12 27 19 26 44.9950000  0  5G17G21G12G23G11
   3299184.05946   2570777.42161  21886984.6794      -1385.5784      -1079.6714
 -14146954.07047 -11023598.90563  19344389.9524       2104.9844       1640.2484
  -4469298.29446  -3305216.07261  22299433.9764       1996.5004       1555.7144
  -1830781.587 7  -1426590.13123  20283096.194        -102.234         -79.663
 -20604723.65547 -15751909.22262  20596410.5074       3485.3754       2715.8774
 90 12 27 19 26 59.9950000  0  5G17G21G12G23G11
   3319996.40046   2586994.76861  21890945.6944      -1389.1874      -1082.4844
 -14178501.09447 -11048180.99963  19338387.1874       2101.5004       1637.5324
  -4499170.675 6  -3328493.20121  22293744.358        1986.688        1548.068
  -1829233.191 7  -1425383.60723  20283390.733        -104.016         -81.051
 -20656932.26747 -15792591.23162  20586474.4914       3475.9694       2708.5474
 90 12 27 19 27 14.9950000  0  5G17G21G12G23G11
   3340868.30846   2603258.52061  21894915.1324      -1393.4844      -1085.8324
 -14209990.20747 -11072717.96263  19332392.5624       2097.2974       1634.2574
  -4528890.87546  -3351651.75961  22288086.8434       1976.2194       1539.9114
  -1827652.427 7  -1424151.85923  20283691.140        -106.500         -82.987
 -20708994.32547 -15833159.03462  20576569.5154       3465.8594       2700.6704
 90 12 27 19 27 29.9950000  0  5G17G21G12G23G11
   3361801.01346   2619569.66461  21898903.4214      -1397.4694      -1088.9374
 -14241420.30147 -11097208.93763  19326412.7654       2093.4534       1631.2624
  -4558457.556 6  -3374690.67221  22282464.655        1966.063        1531.997
  -1826038.224 7  -1422894.05323  20283999.085        -108.641         -84.655
 -20760908.427 7 -15873611.55722  20566688.616        3456.094        2693.060
 90 12 27 19 27 44.9950000  0  5G17G21G12G23G11
   3382792.78946   2635926.82561  21902896.5624      -1401.0164      -1091.7004
 -14272792.74547 -11121654.99063  19320441.2734       2089.9844       1628.5594
  -4587871.96846  -3397610.93761  22276869.7884       1956.2814       1524.3754
  -1824392.183 7  -1421611.44223  20284313.351        -110.391         -86.019
 -20812675.78647 -15913949.73162  20556838.4684       3446.6564       2685.7064
 90 12 27 19 27 59.9950000  0  5G17G21G12G23G11
   3403835.447 6   2652323.63221  21906902.491       -1404.594       -1094.489
 -14304115.68347 -11146062.47263  19314479.8824       2086.4694       1625.8204
  -4617142.047 6  -3420418.74021  22271296.437        1946.453        1516.717
  -1822722.300 7  -1420310.25123  20284631.101        -112.187         -87.419
 -20864304.084 7 -15954179.54922  20547014.890        3437.156        2678.304
 90 12 27 19 28 14.9950000  0  5G17G21G12G23G11
   3424939.67546   2668768.41861  21910915.3664      -1409.0784      -1097.9834
 -14335378.29747 -11170422.94663  19308532.1014       2082.0784       1622.3994
  -4646256.74046  -3443105.45661  22265755.3434       1935.7034       1508.3404
  -1821018.041 7  -1418982.27723  20284954.273        -114.875         -89.513
 -20915782.19347 -15994292.33062  20537218.1484       3426.7664       2670.2074
 90 12 27 19 28 29.9950000  0  5G17G21G12G23G11
   3446105.08946   2685260.89661  21914942.7414      -1413.0314      -1101.0634
 -14366580.79647 -11194736.58064  19302594.8744       2078.2034       1619.3794
  -4675216.10746  -3465671.14661  22260241.7654       1925.4844       1500.3774
  -1819279.371 7  -1417627.49123  20285284.655        -117.000         -91.169
 -20967109.95947 -16034287.95462  20527452.2734       3416.8754       2662.5004
 90 12 27 19 28 44.9950000  0  5G17G21G12G23G11
   3467330.617 6   2701800.21921  21918984.593       -1416.531       -1103.791
 -14397724.40547 -11219004.31964  19296669.2334       2074.7814       1616.7134
  -4704021.224 6  -3488116.62021  22254763.194        1915.688        1492.744
  -1817507.700 7  -1416246.98823  20285620.523        -118.719         -92.508
 -21018288.29047 -16074167.13862  20517712.3354       3407.4064       2655.1224
 90 12 27 19 28 59.9950000  0  5G17G21G12G23G11
   3488604.79346   2718377.43261  21923032.6874      -1420.3754      -1106.7864
 -14428820.37647 -11243234.94163  19290751.6084       2071.0004       1613.7664
  -4732683.11446  -3510450.50161  22249306.9524       1905.5314       1484.8304
  -1815714.356 7  -1414849.60223  20285963.655        -120.766         -94.103
 -21069328.13647 -16113938.41262  20507999.9834       3397.5474       2647.4394
 90 12 27 19 29 14.9950000  0  5G17G21G12G23G11
   3509939.12146   2735001.52161  21927093.2654      -1424.0944      -1109.6834
 -14459857.24747 -11267419.51664  19284843.4994       2067.3444       1610.9174
  -4761190.015 6  -3532663.61621  22243887.023        1895.484        1477.001
  -1813887.921 7  -1413426.42823  20286311.913        -122.703         -95.613
 -21120217.50747 -16153592.43462  20498315.2414       3387.7814       2639.8304
 90 12 27 19 29 29.9950000  0  5G17G21G12G23G11
   3531328.56046   2751668.55261  21931162.6874      -1427.5004      -1112.3384
 -14490839.89247 -11291561.82864  19278948.9444       2064.0164       1608.3244
  -4789546.59146  -3554759.58161  22238488.0544       1885.7344       1469.4034
  -1812032.929 7  -1411981.00523  20286663.444        -124.297         -96.855
 -21170960.88747 -16193132.69962  20488659.4834       3378.3284       2632.4634
 90 12 27 19 29 44.9950000  0  5G17G21G12G23G11
   3552776.30046   2768381.01561  21935241.9294      -1431.8914      -1115.7594
 -14521765.07347 -11315659.37064  19273062.4684       2059.6414       1604.9154
  -4817749.50846  -3576735.81061  22233121.2964       1874.9534       1461.0024
  -1810146.473 7  -1410511.06123  20287022.874        -126.922         -98.900
 -21221554.852 7 -16232556.54622  20479030.343        3367.813        2624.269
 90 12 27 19 29 59.9950000  0  5G17G21G12G23G11
   3574278.197 6   2785135.66521  21939334.804       -1434.953       -1118.145
 -14552636.64547 -11339715.13863  19267188.6794       2056.6414       1602.5774
  -4845802.437 6  -3598595.19421  22227785.116        1865.516        1453.649
  -1808232.618 7  -1409019.76923  20287388.007        -128.187         -99.886
 -21272002.915 7 -16271866.70422  20469431.132        3358.656        2617.135
 90 12 27 19 30 14.9950000  0  5G17G21G12G23G11
   3595836.26546   2801934.09961  21943443.0544      -1438.9844      -1121.2874
 -14583452.79247 -11363727.71363  19261325.8514       2052.6414       1599.4604
  -4873703.592 6  -3620336.29221  22222479.366        1855.078        1445.515
  -1806289.362 7  -1407505.57123  20287756.101        -130.453        -101.652
 -21322303.05947 -16311061.59262  20459860.8274       3348.4844       2609.2094
 90 12 27 19 30 29.9950000  0  5G17G21G12G23G11
   3617447.71446   2818774.13161  21947553.8124      -1442.4064      -1123.9534
 -14614216.12047 -11387699.12763  19255472.5464       2049.2504       1596.8184
  -4901455.080 6  -3641960.78221  22217195.913        1845.234        1437.845
  -1804319.442 7  -1405970.59423  20288131.257        -132.094        -102.930
 -21372457.39347 -16350142.86662  20450316.5304       3338.8754       2601.7214
 90 12 27 19 30 44.9950000  0  5G17G21G12G23G11
   3639115.64046   2835658.16061  21951668.7574      -1446.9844      -1127.5204
 -14644923.205 7 -11411626.71323  19249628.179        2044.672        1593.251
  -4929053.597 6  -3663466.07221  22211943.812        1834.203        1429.249
  -1802319.402 7  -1404412.14523  20288511.491        -134.906        -105.122
 -21422462.241 7 -16389107.65522  20440799.179        3328.094        2593.320
 90 12 27 19 30 59.9950000  0  5G17G21G12G23G11
   3660848.12746   2852592.51261  21955811.5694      -1450.6414      -1130.3694
 -14675565.78947 -11435504.04463  19243797.5384       2041.0164       1590.4024
  -4956490.645 6  -3684845.53221  22206721.452        1824.078        1421.360
  -1800281.00547  -1402823.81363  20288901.7884       -136.8444       -106.6314
 -21472309.10347 -16427949.33762  20431313.3274       3318.1724       2585.5884
 90 12 27 19 31 14.9950000  0  5G17G21G12G23G11
   3682633.266 6   2869567.88621  21959958.226       -1454.219       -1133.157
 -14706155.52947 -11459340.19963  19237975.6484       2037.4384       1587.6144
  -4983777.725 6  -3706108.14521  22201527.460        1814.016        1413.519
  -1798216.06647  -1401214.80063  20289291.4994       -138.6724       -108.0564
 -21522009.25047 -16466676.69462  20421855.9764       3308.3284       2577.9184
 90 12 27 19 31 29.9950000  0  5G17G21G12G23G11
   3704468.10646   2886581.99061  21964110.6324      -1457.6724      -1135.8484
 -14736695.69547 -11483137.72763  19232163.4524       2034.0004       1584.9354
  -5010917.85046  -3727256.23361  22196362.8514       1804.0784       1405.7754
  -1796127.61647  -1399587.47063  20289691.3744       -140.3594       -109.3714
 -21571565.507 7 -16505291.94122  20412425.819        3298.594        2570.333
 90 12 27 19 31 44.9950000  0  5G17G21G12G23G11
   3726355.12246   2903636.73961  21968273.0464      -1460.6874      -1138.1984
 -14767183.78847 -11506894.68063  19226361.8124       2030.9844       1582.5854
  -5037908.17846  -3748287.62161  22191226.8044       1794.5314       1398.3364
  -1794013.47347  -1397940.12263  20290092.8194       -141.6254       -110.3574
 -21620975.120 7 -16543792.91822  20403021.976        3289.266        2563.064
 90 12 27 19 31 59.9950000  0  5G17G21G12G23G11
   3748294.13746   2920732.00261  21972450.6714      -1465.0944      -1141.6314
 -14797619.80247 -11530611.04863  19220570.8354       2026.5784       1579.1524
  -5064748.710 6  -3769202.26621  22186121.530        1783.609        1389.825
  -1791873.52147  -1396272.65563  20290500.9054       -144.2814       -112.4274
 -21670237.77347 -16582179.37362  20393648.9134       3278.5164       2554.6884
 90 12 27 19 32 14.9950000  0  5G17G21G12G23G11
   3770298.92146   2937878.53261  21976636.4684      -1468.4224      -1144.2254
 -14827990.20547 -11554276.29163  19214791.2964       2023.2504       1576.5584
  -5091425.55546  -3789989.36561  22181039.8044       1773.7504       1382.1434
  -1789694.185 7  -1394574.49723  20290916.077        -145.844        -113.644
 -21719339.40447 -16620440.35562  20384306.2104       3268.8284       2547.1394
 90 12 27 19 32 29.9950000  0  5G17G21G12G23G11
   3792357.774 6   2955067.16421  21980832.437       -1472.937       -1147.744
 -14858306.27847 -11577899.19463  19209021.8194       2018.7194       1573.0284
  -5117949.960 6  -3810657.68321  22175995.968        1762.656        1373.498
  -1787486.740 7  -1392854.43823  20291335.062        -148.641        -115.824
 -21768291.144 7 -16658584.54522  20374991.296        3257.906        2538.628
 90 12 27 19 32 44.9950000  0  5G17G21G12G23G11
   3814473.76546   2972300.33561  21985043.0464      -1475.9064      -1150.0574
 -14888564.50447 -11601477.02863  19203263.9134       2015.6724       1570.6534
  -5144318.44746  -3831204.51261  22170977.5234       1753.0784       1366.0354
  -1785247.97947  -1391109.97863  20291762.5154       -149.9064       -116.8104
 -21817089.322 7 -16696609.08122  20365703.366        3248.469        2531.274
 90 12 27 19 32 59.9950000  0  5G17G21G12G23G11
   3836650.18846   2989580.57561  21989265.4524      -1480.4844      -1153.6244
 -14918761.53447 -11625007.18163  19197517.6014       2011.0634       1567.0624
  -5170527.470 6  -3851627.08421  22165991.483        1741.906        1357.330
  -1782974.66847  -1389338.60163  20292195.0154       -152.7504       -119.0264
 -21865730.218 7 -16734511.05322  20356448.476        3237.438        2522.679
 90 12 27 19 33 14.9950000  0  5G17G21G12G23G11
   3858891.25046   3006911.21361  21993495.9524      -1484.8284      -1157.0094
 -14948893.24447 -11648486.42863  19191783.2494       2006.6564       1563.6284
  -5196572.858 6  -3871922.13921  22161035.694        1730.953        1348.795
  -1780662.40047  -1387536.86063  20292633.1714       -155.3914       -121.0844
 -21914209.494 7 -16772287.10022  20347224.530        3226.609        2514.241
 90 12 27 19 33 29.9950000  0  5G17G21G12G23G11
   3881186.22046   3024283.84561  21997737.2734      -1487.7664      -1159.2984
 -14978970.02447 -11671922.88163  19186061.8514       2003.6564       1561.2914
  -5222464.73746  -3892097.57861  22156108.7024       1721.3594       1341.3194
  -1778321.820 7  -1385713.05623  20293078.944        -156.641        -122.058
 -21962537.229 7 -16809945.06122  20338026.851        3217.156        2506.875
 90 12 27 19 33 44.9950000  0  5G17G21G12G23G11
   3903528.793 6   3041693.55921  22001991.335       -1491.859       -1162.488
 -15008998.46847 -11695321.66763  19180346.9294       1999.5004       1558.0524
  -5248209.25146  -3912158.17861  22151207.9834       1710.6094       1332.9424
  -1775959.206 7  -1383872.07723  20293528.585        -159.016        -123.908
 -22010719.491 7 -16847489.66422  20328857.616        3206.516        2498.584
 90 12 27 19 33 59.9950000  0  5G17G21G12G23G11
   3925934.30346   3059152.32861  22006257.6084      -1496.0784      -1165.7754
 -15038962.91947 -11718670.58163  19174647.0934       1995.2194       1554.7164
  -5273790.641 6  -3932091.67321  22146342.226        1699.719        1324.456
  -1773559.070 7  -1382001.86523  20293984.468        -161.547        -125.881
 -22058740.25547 -16884908.42762  20319720.3824       3195.7194       2490.1704
 90 12 27 19 34 14.9950000  0  5G17G21G12G23G11
   3948399.046 6   3076657.24821  22010528.601       -1499.719       -1168.612
 -15068867.12847 -11741972.55763  19168954.3194       1991.4844       1551.8064
  -5299212.65446  -3951900.96861  22141504.0154       1689.3594       1316.3844
  -1771125.076 7  -1380105.27323  20294449.257        -163.500        -127.403
 -22106603.18447 -16922204.21162  20310612.0694       3185.4694       2482.1834
 90 12 27 19 34 29.9950000  0  5G17G21G12G23G11
   3970919.900 5   3094205.89121  22014812.929       -1503.187       -1171.315
 -15098714.01047 -11765229.86763  19163274.2264       1987.9534       1549.0544
  -5324478.21646  -3971588.36361  22136694.5694       1679.2194       1308.4824
  -1768660.472 7  -1378184.82323  20294919.632        -165.250        -128.766
 -22154310.930 7 -16959379.06122  20301533.023        3175.406        2474.343
 90 12 27 19 34 44.9950000  0  5G17G21G12G23G11
   3993498.709 5   3111799.69721  22019110.312       -1506.359       -1173.787
 -15128501.81147 -11788441.13663  19157605.7654       1984.7034       1546.5224
  -5349585.199 6  -3991152.17921  22131916.671        1669.344        1300.787
  -1766163.391 7  -1376239.07623  20295395.343        -166.719        -129.911
 -22201861.346 7 -16996431.31822  20292483.249        3165.609        2466.709
 90 12 27 19 34 59.9950000  0  5G17G21G12G23G11
   4016124.950 5   3129430.45221  22023416.796       -1510.469       -1176.989
 -15158240.96547 -11811614.50363  19151946.9524       1980.5314       1543.2714
  -5374543.911 6  -4010600.48021  22127167.858        1658.516        1292.350
  -1763644.388 7  -1374276.23823  20295873.062        -169.125        -131.786
 -22249264.561 7 -17033368.87422  20283463.030        3154.844        2458.320
 90 12 27 19 35 14.9950000  0  5G17G21G12G23G11
   4038809.655 5   3147106.76321  22027734.023       -1513.953       -1179.704
 -15187920.19847 -11834741.17363  19146297.9834       1976.9064       1540.4464
  -5399343.06746  -4029924.41961  22122446.0544       1648.2504       1284.3514
  -1761092.01247  -1372287.40163  20296357.3664       -170.9694       -133.2224
 -22296508.89847 -17070182.63662  20274473.6794       3144.6254       2450.3574
 90 12 27 19 35 29.9950000  0  5G17G21G12G23G11
   4061546.319 5   3164823.56621  22032058.343       -1517.047       -1182.114
 -15217545.72748 -11857825.98963  19140662.6084       1973.6884       1537.9384
  -5423988.892 6  -4049128.90321  22117752.077        1638.391        1276.668
  -1758512.65247  -1370277.54163  20296849.1324       -172.4064       -134.3434
 -22343600.39447 -17106877.30262  20265509.9994       3134.7814       2442.6874
 90 12 27 19 35 44.9950000  0  5G17G21G12G23G11
   4084330.60845   3182577.46261  22036396.0304      -1520.9534      -1185.1584
 -15247121.45748 -11880872.00263  19135034.5154       1969.6414       1534.7854
  -5448485.092 6  -4068216.78921  22113097.343        1627.688        1268.328
  -1755910.36547  -1368249.81563  20297344.6404       -174.6724       -136.1084
 -22390542.688 7 -17143455.69822  20256579.163        3124.094        2434.359
 90 12 27 19 35 59.9950000  0  5G17G21G12G23G11
   4107169.807 5   3200374.16721  22040744.046       -1524.875       -1188.214
 -15276640.77747 -11903874.06263  19129417.6164       1965.6724       1531.6924
  -5472824.67246  -4087182.62861  22108463.2264       1617.0004       1260.0004
  -1753278.343 7  -1366198.91123  20297845.155        -176.859        -137.812
 -22437328.58447 -17179912.22862  20247677.8274       3113.4224       2426.0434
 90 12 27 19 36 14.9950000  0  5G17G21G12G23G11
   4130072.368 5   3218220.24221  22045097.351       -1528.687       -1191.185
 -15306095.17347 -11926825.53363  19123810.4524       1961.6884       1528.5884
  -5496999.04446  -4106019.73261  22103863.8584       1606.3444       1251.6964
  -1750608.219 7  -1364118.31623  20298352.538        -179.047        -139.517
 -22483949.36647 -17216240.10762  20238805.2494       3102.7814       2417.7524
 90 12 27 19 36 29.9950000  0  5G17G21G12G23G11
   4153022.188 5   3236103.12221  22049472.101       -1531.437       -1193.328
 -15335500.02047 -11949738.39563  19118214.6244       1958.7814       1526.3234
  -5521023.734 6  -4124740.19721  22099293.733        1596.766        1244.233
  -1747915.437 7  -1362020.06023  20298864.163        -180.156        -140.381
 -22530420.39447 -17252451.28862  20229962.3124       3093.1884       2410.2764
 90 12 27 19 36 44.9950000  0  5G17G21G12G23G11
   4176018.933 5   3254022.58821  22053845.366       -1535.328       -1196.360
 -15364855.61447 -11972612.88563  19112629.6324       1954.7664       1523.1944
  -5544898.916 6  -4143344.16621  22094749.843        1586.063        1235.893
  -1745200.351 7  -1359904.42323  20299382.218        -182.391        -142.123
 -22576741.539 7 -17288545.67422  20221146.593        3082.438        2401.899
 90 12 27 19 36 59.9950000  0  5G17G21G12G23G11
   4199074.20245   3271987.64561  22058229.6084      -1538.3284      -1198.6974
 -15394150.46347 -11995440.03363  19107054.6164       1951.6094       1520.7354
  -5568612.79346  -4161822.44261  22090233.7574       1576.1884       1228.1984
  -1742451.297 7  -1357762.32023  20299904.608        -183.766        -143.194
 -22622900.932 7 -17324514.02222  20212363.202        3072.531        2394.180
 90 12 27 19 37 14.9950000  0  5G17G21G12G23G11
   4222174.976 6   3289988.16921  22062631.046       -1541.766       -1201.376
 -15423397.34747 -12018229.80163  19101487.9294       1948.0004       1517.9224
  -5592177.949 6  -4180184.82221  22085755.929        1565.875        1220.162
  -1739681.162 7  -1355603.79323  20300433.538        -185.578        -144.606
 -22668910.99447 -17360366.00962  20203607.4444       3062.1724       2386.1084
 90 12 27 19 37 29.9950000  0  5G17G21G12G23G11
   4245331.037 6   3308031.79421  22067032.530       -1545.750       -1204.481
 -15452586.48947 -12040974.58763  19095934.1634       1943.8284       1514.6714
  -5615584.59046  -4198423.68761  22081299.6014       1554.9844       1211.6764
  -1736880.339 7  -1353421.35623  20300965.952        -187.922        -146.433
 -22714761.85347 -17396093.94562  20194880.3274       3051.2344       2377.5854
 90 12 27 19 37 44.9940000  0  5G17G21G12G23G11
   4268540.962 6   3326117.35521  22071450.346       -1549.625       -1207.500
 -15481715.53547 -12063672.53763  19090393.1434       1939.7814       1511.5184
  -5638830.67546  -4216537.45361  22076872.7834       1544.1884       1203.2634
  -1734048.703 7  -1351214.90623  20301504.096        -190.187        -148.198
 -22760449.804 7 -17431694.92922  20186188.502        3040.375        2369.123
 90 12 27 19 37 59.9940000  0  5G17G21G12G23G11
   4291808.845 6   3344248.09921  22075880.510       -1552.672       -1209.874
 -15510787.29947 -12086325.85563  19084859.8544       1936.5634       1509.0104
  -5661917.950 6  -4234527.46821  22072479.479        1534.203        1195.483
  -1731184.281 7  -1348982.91623  20302048.838        -191.641        -149.330
 -22805979.45647 -17467172.57662  20177525.0024       3030.3284       2361.2954
 90 12 27 19 38 14.9940000  0  5G17G21G12G23G11
   4315128.498 6   3362419.18521  22080318.463       -1556.797       -1213.088
 -15539804.49447 -12108936.64963  19079337.4634       1932.2344       1505.6374
  -5684849.433 6  -4252396.09021  22068114.893        1523.141        1186.863
  -1728292.09147  -1346729.28863  20302602.1044       -194.1414       -151.2784
 -22851352.07947 -17502527.85762  20168891.4004       3019.1884       2352.6144
 90 12 27 19 38 29.9940000  0  5G17G21G12G23G11
   4338509.189 6   3380637.82721  22084762.830       -1560.672       -1216.108
 -15568757.63047 -12131497.52763  19073827.9634       1928.1724       1502.4724
  -5707615.783 6  -4270136.05321  22063780.650        1512.328        1178.438
  -1725363.17647  -1344447.04363  20303158.5574       -196.4064       -153.0444
 -22896558.201 7 -17537753.39522  20160288.611        3008.281        2344.115
 90 12 27 19 38 44.9940000  0  5G17G21G12G23G11
   4361939.74246   3398895.31661  22089226.0654      -1563.8284      -1218.5674
 -15597657.80247 -12154017.13163  19068328.3304       1924.7664       1499.8174
  -5730227.815 6  -4287755.77721  22059479.299        1502.172        1170.524
  -1722408.576 7  -1342144.78423  20303719.096        -197.984        -154.274
 -22941608.58247 -17572857.58362  20151715.9164       2998.0164       2336.1164
 90 12 27 19 38 59.9940000  0  5G17G21G12G23G11
   4385416.947 6   3417189.15121  22093691.760       -1566.703       -1220.808
 -15626507.97447 -12176497.77663  19062839.1194       1921.6724       1497.4074
  -5752688.38146  -4305257.48661  22055208.1744       1492.3134       1162.8414
  -1719430.882 7  -1339824.52623  20304288.486        -199.281        -155.284
 -22986505.877 7 -17607842.47222  20143172.658        2988.031        2328.336
 90 12 27 19 39 14.9940000  0  5G17G21G12G23G11
   4408946.23246   3435523.56861  22098170.4944      -1570.2664      -1223.5844
 -15655302.86247 -12198935.34363  19057358.8464       1917.8914       1494.4604
  -5774992.146 6  -4322636.98821  22050964.377        1481.781        1154.635
  -1716425.04347  -1337482.34363  20304858.4244       -201.2344       -156.8064
 -23031244.412 7 -17642703.65522  20134658.127        2977.359        2320.020
 90 12 27 19 39 29.9940000  0  5G17G21G12G23G11
   4432525.95246   3453897.29061  22102653.5804      -1574.0784      -1226.5544
 -15684043.61047 -12221330.72263  19051889.0334       1913.8284       1491.2954
  -5797140.15046  -4339895.12361  22046751.9794       1470.9224       1146.1734
  -1713392.286 7  -1335119.18023  20305435.729        -203.484        -158.559
 -23075824.99647 -17677441.76062  20126175.3934       2966.3754       2311.4614
 90 12 27 19 39 44.9940000  0  5G17G21G12G23G11
   4456155.507 6   3472309.83321  22107150.900       -1576.359       -1228.332
 -15712730.89147 -12243684.44563  19046430.3774       1911.3284       1489.3474
  -5819132.919 6  -4357032.29521  22042564.947        1461.641        1138.941
  -1710333.144 7  -1332735.45723  20306018.143        -204.187        -159.107
 -23120248.117 7 -17712057.16922  20117720.541        2956.906        2304.083
 90 12 27 19 39 59.9940000  0  5G17G21G12G23G11
   4479828.652 6   3490756.34421  22111662.127       -1580.156       -1231.291
 -15741371.03247 -12266001.43064  19040982.7754       1907.2664       1486.1814
  -5840976.69046  -4374053.35561  22038410.4164       1450.7814       1130.4794
  -1707254.077 7  -1330336.20523  20306600.658        -206.453        -160.873
 -23164519.806 7 -17746554.56922  20109295.908        2945.875        2295.487
 90 12 27 19 40 14.9940000  0  5G17G21G12G23G11
   4503557.489 6   3509246.26721  22116173.830       -1583.656       -1234.018
 -15769951.71147 -12288272.08663  19035543.8464       1903.5004       1483.2474
  -5862659.07646  -4390948.65561  22034281.8934       1440.2194       1122.2484
  -1704142.848 7  -1327911.88723  20307197.299        -208.375        -162.370
 -23208627.60947 -17780924.27162  20100902.1504       2935.1724       2287.1474
 90 12 27 19 40 29.9940000  0  5G17G21G12G23G11
   4527333.90946   3527773.24961  22120698.6824      -1586.5784      -1236.2954
 -15798480.65147 -12310502.43063  19030113.2604       1900.2814       1480.7394
  -5884187.76946  -4407724.20961  22030186.8304       1430.2344       1114.4684
  -1701007.167 7  -1325468.52123  20307792.979        -209.750        -163.442
 -23252578.867 7 -17815171.99022  20092539.041        2924.953        2279.184
 90 12 27 19 40 44.9940000  0  5G17G21G12G23G11
   4551161.680 6   3546340.26021  22125231.525       -1590.062       -1239.010
 -15826953.88847 -12332689.35963  19024695.8544       1896.5314       1477.8174
  -5905558.766 6  -4424376.87421  22026118.635        1419.641        1106.213
  -1697843.384 7  -1323003.25023  20308394.799        -211.703        -164.963
 -23296369.536 7 -17849294.57422  20084204.643        2914.203        2270.808
 90 12 27 19 40 59.9940000  0  5G17G21G12G23G11
   4575043.41346   3564949.30561  22129779.0104      -1594.1414      -1242.1874
 -15855369.03347 -12354831.02763  19019289.2834       1892.1884       1474.4324
  -5926769.264 6  -4440904.49221  22022082.955        1408.453        1097.496
  -1694648.473 7  -1320513.73023  20309002.002        -214.234        -166.936
 -23339996.725 7 -17883289.76922  20075905.307        2902.797        2261.920
 90 12 27 19 41 14.9940000  0  5G17G21G12G23G11
   4598981.64546   3583602.38661  22134338.2054      -1597.6564      -1244.9274
 -15883723.22947 -12376925.20363  19013891.5724       1888.3594       1471.4494
  -5947816.52446  -4457304.91761  22018077.2364       1397.8284       1089.2174
  -1691420.102 7  -1317998.14223  20309617.182        -216.234        -168.494
 -23383457.452 7 -17917155.25222  20067635.408        2891.938        2253.458
 90 12 27 19 41 29.9940000  0  5G17G21G12G23G11
   4622961.98645   3602288.26561  22138891.3854      -1600.3444      -1247.0214
 -15912030.92347 -12398983.14563  19008502.6114       1885.3594       1469.1114
  -5968714.97946  -4473589.39961  22014100.9864       1388.0004       1081.5584
  -1688172.820 7  -1315467.81723  20310235.400        -217.391        -169.395
 -23426765.950 7 -17950902.12122  20059393.104        2881.891        2245.629
 90 12 27 19 41 44.9940000  0  5G17G21G12G23G11
   4646999.82645   3621018.96161  22143470.2214      -1604.0624      -1249.9194
 -15940276.50247 -12420992.68363  19003128.6274       1881.3594       1465.9944
  -5989448.785 6  -4489745.58421  22010152.330        1377.141        1073.097
  -1684890.77647  -1312910.41263  20310859.2604       -219.5784       -171.1004
 -23469906.387 7 -17984518.03122  20051183.775        2870.797        2236.985
 90 12 27 19 41 59.9940000  0  5G17G21G12G23G11
   4671085.806 5   3639787.16021  22148055.166       -1607.516       -1252.610
 -15968469.41847 -12442961.18463  18997764.7684       1877.5784       1463.0484
  -6010027.141 6  -4505780.65021  22006235.229        1366.531        1064.830
  -1681583.449 7  -1310333.29923  20311487.900        -221.531        -172.622
 -23512887.745 7 -18018009.98222  20043003.166        2859.938        2228.523
 90 12 27 19 42 14.9940000  0  5G17G21G12G23G11
   4695219.72545   3658592.71961  22152644.5574      -1611.0004      -1255.3254
 -15996609.44447 -12464888.46963  18992410.0884       1873.7504       1460.0654
  -6030449.96546  -4521694.53361  22002350.7834       1355.8594       1056.5144
  -1678250.63247  -1307736.33463  20312122.8934       -223.5314       -174.1804
 -23555709.645 7 -18051377.67822  20034855.158        2849.000        2220.000
 90 12 27 19 42 29.9940000  0  5G17G21G12G23G11
   4719401.555 5   3677435.61221  22157247.596       -1613.562       -1257.321
 -16024696.41547 -12486774.41563  18987065.8224       1870.8444       1457.8004
  -6050717.20446  -4537487.16961  21998493.3464       1346.0944       1048.9044
  -1674892.15347  -1305119.37463  20312761.0574       -224.5944       -175.0084
 -23598371.746 7 -18084620.86822  20026736.729        2838.953        2212.171
 90 12 27 19 42 44.9940000  0  5G17G21G12G23G11
   4743641.490 5   3696323.75921  22161858.963       -1617.641       -1260.499
 -16052720.23847 -12508611.15464  18981730.9944       1866.4224       1454.3554
  -6070818.43346  -4553150.45461  21994671.0184       1334.8284       1040.1264
  -1671498.06447  -1302474.66463  20313409.2754       -227.2034       -177.0414
 -23640863.527 7 -18117731.32222  20018649.690        2827.391        2203.162
 90 12 27 19 42 59.9940000  0  5G17G21G12G23G11
   4767930.279 5   3715249.99021  22166485.869       -1620.781       -1262.946
 -16080689.89147 -12530405.68863  18976410.1274       1862.9384       1451.6404
  -6090762.56246  -4568691.32061  21990874.6584       1324.4694       1032.0544
  -1668077.09747  -1299809.01563  20314059.4164       -228.8594       -178.3324
 -23683193.82647 -18150715.96062  20010594.7604       2816.7344       2194.8584
 90 12 27 19 43 14.9940000  0  5G17G21G12G23G11
   4792268.71345   3734214.89661  22171115.4084      -1624.5314      -1265.8694
 -16108604.65147 -12552157.45663  18971100.3934       1858.8594       1448.4624
  -6110548.90646  -4584109.25361  21987108.2994       1313.5314       1023.5314
  -1664628.65847  -1297121.95763  20314714.0104       -231.0944       -180.0734
 -23725361.776 7 -18183574.09222  20002570.963        2805.469        2186.080
 90 12 27 19 43 29.9940000  0  5G17G21G12G23G11
   4816656.82445   3753218.50761  22175754.4864      -1627.0784      -1267.8534
 -16136464.30347 -12573866.28063  18965798.6434       1855.9224       1446.1734
  -6130177.26546  -4599404.07761  21983373.5254       1303.7504       1015.9094
  -1661152.84047  -1294413.56363  20315377.3544       -232.1874       -180.9254
 -23767366.79547 -18216305.26562  19994577.5494       2795.3594       2178.2024
 90 12 27 19 43 44.9940000  0  5G17G21G12G23G11
   4841092.225 5   3772258.96521  22180404.236       -1631.047       -1270.946
 -16164271.07247 -12595533.89263  18960506.5574       1851.5784       1442.7884
  -6149649.80646  -4614577.48461  21979667.0184       1292.5314       1007.1674
  -1657651.87547  -1291685.56963  20316042.1974       -234.6724       -182.8614
 -23809211.01547 -18248911.14762  19986613.4164       2783.7974       2169.1924
 90 12 27 19 43 59.9940000  0  5G17G21G12G23G11
   4865583.830 5   3791343.24321  22185071.697       -1634.359       -1273.527
 -16192015.65147 -12617153.04763  18955226.7604       1847.8754       1439.9034
  -6168957.125 6  -4629622.16821  21975992.080        1281.938         998.912
  -1654116.479 7  -1288930.74422  20316715.033        -236.547        -184.322
 -23850884.766 7 -18281384.18322  19978683.986        2772.859        2160.670
 90 12 27 19 44 14.9940000  0  5G17G21G12G23G11
   4890123.68645   3810465.12061  22189732.0334      -1637.6414      -1276.0844
 -16219706.03147 -12638729.96963  18949957.4164       1844.1724       1437.0174
  -6188107.199 6  -4644544.33221  21972350.486        1271.391         990.694
  -1650554.34547  -1286155.08263  20317393.3774       -238.4064       -185.7714
 -23892395.974 7 -18313730.56422  19970785.088        2761.953        2152.171
 90 12 27 19 44 29.9940000  0  5G17G21G12G23G11
   4914711.56345   3829624.40861  22194411.6904      -1641.0164      -1278.7134
 -16247342.40247 -12660264.80763  18944698.9474       1840.4224       1434.0954
  -6207099.982 6  -4659343.91521  21968734.127        1260.734         982.390
  -1646965.92047  -1283358.94263  20318077.2524       -240.3284       -187.2694
 -23933744.43047 -18345950.12462  19962917.5184       2750.9064       2143.5634
 90 12 27 19 44 44.9940000  0  5G17G21G12G23G11
   4939351.02445   3848823.88861  22199105.6194      -1643.6414      -1280.7594
 -16274921.06847 -12681754.68563  18939449.3224       1837.3444       1431.6964
  -6225931.54446  -4674017.89061  21965148.1114       1250.7664        974.6234
  -1643347.21647  -1280539.20963  20318764.0104       -241.5474       -188.2184
 -23974926.037 7 -18378039.67122  19955082.900        2740.578        2135.515
 90 12 27 19 44 59.9940000  0  5G17G21G12G23G11
   4964030.724 5   3868054.74221  22203805.846       -1647.062       -1283.425
 -16302452.94347 -12703208.09264  18934208.8384       1833.4844       1428.6894
  -6244613.21346  -4688575.07861  21961597.7754       1240.0314        966.2584
  -1639709.81847  -1277704.91363  20319459.4084       -243.5474       -189.7774
 -24015951.868 7 -18410007.83022  19947272.143        2729.438        2126.834
 90 12 27 19 45 14.9940000  0  5G17G21G12G23G11
   4988766.84945   3887329.55961  22208508.5334      -1650.4374      -1286.0554
 -16329921.98947 -12724612.55563  18928983.4404       1829.6884       1425.7314
  -6263128.635 6  -4703002.72521  21958074.822        1229.328         957.918
  -1636037.442 7  -1274843.36722  20320158.604        -245.484        -191.287
 -24056805.46847 -18441841.77962  19939499.1664       2718.3444       2118.1904
 90 12 27 19 45 29.9940000  0  5G17G21G12G23G11
   5013552.501 5   3906642.94421  22213218.182       -1654.312       -1289.075
 -16357335.09547 -12745973.42363  18923767.0184       1825.3754       1422.3704
  -6281484.41346  -4717305.98561  21954580.0964       1218.1094        949.1764
  -1632336.593 7  -1271959.62923  20320861.010        -247.969        -193.222
 -24097493.257 7 -18473546.53922  19931757.502        2706.703        2109.119
 90 12 27 19 45 44.9940000  0  5G17G21G12G23G11
   5038389.65045   3925996.47561  22217952.2754      -1656.8124      -1291.0234
 -16384689.95847 -12767288.90863  18918561.7134       1822.4064       1420.0574
  -6299678.456 6  -4731483.20521  21951118.635        1208.234         941.481
  -1628605.43047  -1269052.26962  20321570.2604       -249.0474       -194.0624
 -24138013.14147 -18505120.46962  19924046.1664       2696.4224       2101.1084
 90 12 27 19 45 59.9940000  0  5G17G21G12G23G11
   5063270.378 5   3945383.97621  22222686.565       -1660.453       -1293.860
 -16411994.23947 -12788564.97863  18913365.8934       1818.3134       1416.8674
  -6317718.394 6  -4745540.34521  21947686.572        1197.250         932.922
  -1624851.53947  -1266127.20062  20322283.5184       -251.2974       -195.8164
 -24178372.55147 -18536569.35162  19916365.8154       2685.0004       2092.2084
 90 12 27 19 46 14.9940000  0  5G17G21G12G23G11
   5088200.400 5   3964809.85421  22227428.197       -1663.828       -1296.489
 -16439242.425 7 -12809797.34323  18908179.072        1814.500        1413.896
  -6335598.600 6  -4759473.01821  21944284.330        1186.500         924.545
  -1621069.38047  -1263180.10262  20323005.8074       -253.2664       -197.3504
 -24218565.568 7 -18567888.57122  19908716.744        2673.797        2083.478
 90 12 27 19 46 29.9940000  0  5G17G21G12G23G11
   5113179.930 5   3984274.34121  22232177.924       -1666.953       -1298.925
 -16466433.873 7 -12830985.49823  18903004.729        1810.891        1411.084
  -6353318.50346  -4773280.79461  21940913.1744       1176.0164        916.3764
  -1617258.37147  -1260210.51463  20323730.6584       -255.0164       -198.7134
 -24258591.40447 -18599077.52962  19901101.5414       2662.8284       2074.9314
 90 12 27 19 46 44.9940000  0  5G17G21G12G23G11
   5138199.65345   4003770.12761  22236942.2994      -1669.9224      -1301.2384
 -16493577.745 7 -12852136.58023  18897838.885        1807.422        1408.381
  -6370887.24746  -4786970.76661  21937563.9004       1165.6094        908.2674
  -1613427.477 7  -1257225.43022  20324458.760        -256.641        -199.980
 -24298459.045 7 -18630143.21122  19893514.330        2651.969        2066.469
 90 12 27 19 46 59.9940000  0  5G17G21G12G23G11
   5163259.71345   4023297.35261  22241715.1504      -1671.9534      -1302.8214
 -16520674.004 7 -12873250.56023  18892683.174        1804.891        1406.408
  -6388304.719 6  -4800542.87221  21934254.674        1156.156         900.901
  -1609576.92747  -1254225.02762  20325192.9004       -257.3284       -200.5154
 -24338168.199 7 -18661085.39222  19885959.166        2642.031        2058.726
 90 12 27 19 47 14.9940000  0  5G17G21G12G23G11
   5188369.04145   4042862.97861  22246492.6824      -1675.8914      -1305.8894
 -16547713.332 7 -12894320.17923  18887536.979        1800.422        1402.926
  -6405561.277 6  -4813989.57221  21930969.119        1144.797         892.050
  -1605697.28547  -1251201.96463  20325930.8224       -259.9064       -202.5244
 -24377709.15147 -18691896.51362  19878435.7914       2630.1564       2049.4724
 90 12 27 19 47 29.9940000  0  5G17G21G12G23G11
   5213533.72545   4062471.72561  22251274.6584      -1679.2814      -1308.5314
 -16574689.396 7 -12915340.50123  18882404.213        1796.516        1399.882
  -6422650.85746  -4827306.17161  21927718.0024       1133.9534        883.6004
  -1601782.57147  -1248151.57363  20326674.1584       -261.9374       -204.1074
 -24417075.518 7 -18722571.59222  19870943.213        2618.828        2040.645
 90 12 27 19 47 44.9940000  0  5G17G21G12G23G11
   5238741.458 5   4082114.03321  22256069.940       -1681.750       -1310.455
 -16601614.36247 -12936320.99763  18877281.2834       1793.5164       1397.5454
  -6439585.662 6  -4840502.17221  21924499.127        1124.047         875.881
  -1597844.70347  -1245083.14263  20327423.5654       -263.0944       -205.0084
 -24456279.36947 -18753120.04662  19863481.2914       2608.3914       2032.5124
 90 12 27 19 47 59.9940000  0  5G17G21G12G23G11
   5263991.101 5   4101788.97621  22260881.479       -1684.984       -1312.975
 -16628489.53747 -12957262.69163  18872167.1584       1789.7344       1394.5984
  -6456366.73246  -4853578.36561  21921302.5414       1113.3134        867.5164
  -1593884.939 7  -1241997.65622  20328177.315        -265.000        -206.494
 -24495321.70647 -18783542.63862  19856052.6744       2597.1564       2023.7584
 90 12 27 19 48 14.9940000  0  5G17G21G12G23G11
   5289285.25045   4121498.61161  22265699.6974      -1687.8124      -1315.1794
 -16655312.23447 -12978163.49763  18867061.1274       1786.3754       1391.9814
  -6472991.395 6  -4866532.69521  21918141.158        1103.047         859.517
  -1589900.665 7  -1238893.06622  20328936.627        -266.484        -207.650
 -24534199.72847 -18813837.20462  19848653.3384       2586.3284       2015.3214
 90 12 27 19 48 29.9940000  0  5G17G21G12G23G11
   5314628.880 5   4141246.82021  22270516.650       -1691.687       -1318.198
 -16682077.108 7 -12999019.25523  18861969.494        1781.953        1388.535
  -6489454.356 6  -4879361.01821  21915005.947        1091.672         850.653
  -1585886.586 7  -1235765.25423  20329700.025        -269.031        -209.635
 -24572907.76147 -18843999.30662  19841287.4084       2574.4224       2006.0434
 90 12 27 19 48 44.9940000  0  5G17G21G12G23G11
   5340029.234 5   4161039.19721  22275350.791       -1694.906       -1320.706
 -16708776.896 7 -13019824.29523  18856889.940        1778.172        1385.588
  -6505748.18546  -4892057.54261  21911906.5724       1080.9844        842.3254
  -1581835.62047  -1232608.69363  20330469.2684       -270.9534       -211.1324
 -24611438.33947 -18874023.13362  19833955.1354       2563.1254       1997.2404
 90 12 27 19 48 59.9940000  0  5G17G21G12G23G11
   5365480.82445   4180871.51561  22280196.6354      -1698.0474      -1323.1534
 -16735416.861 7 -13040582.72523  18851821.065        1774.453        1382.691
  -6521878.23346  -4904626.44061  21908833.5574       1070.3134        834.0104
  -1577752.78947  -1229427.29962  20331247.5654       -272.8124       -212.5814
 -24649796.55847 -18903912.65662  19826658.2214       2551.9064       1988.4984
 90 12 27 19 49 14.9940000  0  5G17G21G12G23G11
   5390978.47646   4200739.73161  22285052.1354      -1701.9534      -1326.1974
 -16762001.98947 -13061298.42063  18846762.8304       1769.9224       1379.1604
  -6537849.54446  -4917071.64861  21905793.7914       1058.8594        825.0854
  -1573643.22147  -1226225.07563  20332030.7604       -275.4534       -214.6394
 -24687987.33847 -18933671.70562  19819390.1044       2539.8754       1979.1234
 90 12 27 19 49 29.9940000  0  5G17G21G12G23G11
   5416524.772 5   4220645.86221  22289908.283       -1704.016       -1327.804
 -16788529.53847 -13081969.24463  18841714.9944       1767.2974       1377.1144
  -6553659.39546  -4929391.04761  21902790.0654       1049.3134        817.6464
  -1569504.42047  -1223000.07162  20332814.6194       -276.2034       -215.2234
 -24726007.747 7 -18963297.98922  19812155.463        2529.703        1971.197
 90 12 27 19 49 44.9940000  0  5G17G21G12G23G11
   5442114.58045   4240585.87961  22294775.1744      -1708.0624      -1330.9584
 -16815004.663 7 -13102599.22523  18836675.315        1762.609        1373.462
  -6569312.84346  -4941588.55061  21899809.7684       1037.7034        808.6004
  -1565341.25147  -1219756.07762  20333610.1824       -279.0164       -217.4154
 -24763862.51547 -18992795.21062  19804951.2994       2517.4844       1961.6764
 90 12 27 19 49 59.9940000  0  5G17G21G12G23G11
   5467756.68245   4260566.64961  22299659.0494      -1710.9374      -1333.1984
 -16841418.14547 -13123181.16763  18831649.6194       1759.1254       1370.7474
  -6584800.65646  -4953656.98661  21896863.8154       1027.2974        800.4914
  -1561144.44547  -1216485.87462  20334408.6114       -280.5944       -218.6444
 -24801542.40847 -19022156.16562  19797780.7054       2506.4534       1953.0804
 90 12 27 19 50 14.9940000  0  5G17G21G12G23G11
   5493441.881 5   4280581.01321  22304545.705       -1714.172       -1335.718
 -16867779.14647 -13143722.21263  18826632.6904       1755.2504       1367.7274
  -6600132.04046  -4965603.51761  21893945.2524       1016.4694        792.0544
  -1556923.502 7  -1213196.86822  20335209.846        -282.609        -220.215
 -24839056.38947 -19051387.84562  19790641.7364       2495.0004       1944.1564
 90 12 27 19 50 29.9940000  0  5G17G21G12G23G11
   5519172.88245   4300631.06061  22309441.3304      -1716.7974      -1337.7644
 -16894084.75447 -13164220.09063  18821627.4634       1751.9844       1365.1834
  -6615303.983 6  -4977425.82921  21891057.783        1006.281         784.115
  -1552675.41247  -1209886.70962  20336020.5414       -283.9844       -221.2874
 -24876401.40047 -19080487.85462  19783535.3544       2484.1564       1935.7064
 90 12 27 19 50 44.9940000  0  5G17G21G12G23G11
   5544950.262 5   4320717.25821  22314346.315       -1719.781       -1340.089
 -16920334.31647 -13184674.28764  18816632.2994       1748.3594       1362.3584
  -6630315.97446  -4989123.47161  21888199.0654        995.7194        775.8854
  -1548399.27647  -1206554.69662  20336835.0884       -285.7664       -222.6754
 -24913576.59147 -19109455.54562  19776463.1584       2472.9384       1926.9644
 90 12 27 19 50 59.9940000  0  5G17G21G12G23G11
   5570775.280 5   4340840.53321  22319261.721       -1723.359       -1342.877
 -16946526.58547 -13205083.84864  18811647.7054       1744.1414       1359.0714
  -6645166.54246  -5000695.34961  21885373.6434        984.5634        767.1924
  -1544093.83547  -1203199.84862  20337651.2524       -288.1094       -224.5014
 -24950580.41647 -19138289.70262  19769419.2524       2461.1094       1917.7484
 90 12 27 19 51 14.9940000  0  5G17G21G12G23G11
   5596642.687 5   4360996.86721  22324183.119       -1725.812       -1344.789
 -16972666.58947 -13225452.68463  18806673.5724       1741.0004       1356.6234
  -6659860.92446  -5012145.51061  21882578.9864        974.5004        759.3514
  -1539764.50947  -1199826.38762  20338475.9324       -289.3444       -225.4634
 -24987417.72447 -19166994.10762  19762410.0574       2450.3444       1909.3594
 90 12 27 19 51 29.9940000  0  5G17G21G12G23G11
   5622560.145 5   4381192.21921  22329112.815       -1729.156       -1347.394
 -16998746.35047 -13245774.57063  18801709.8154       1736.9694       1353.4824
  -6674391.36446  -5023467.91961  21879814.4004        963.5474        750.8164
  -1535403.45347  -1196428.19362  20339305.5494       -291.4844       -227.1314
 -25024080.589 7 -19195562.58822  19755433.479        2438.703        1900.288
 90 12 27 19 51 44.9940000  0  5G17G21G12G23G11
   5648523.83045   4401423.56461  22334056.0964      -1732.1564      -1349.7324
 -17024769.76547 -13266052.55563  18796757.1974       1733.2974       1350.6214
  -6688761.472 6  -5034665.39221  21877081.690         952.938         742.549
  -1531014.06047  -1193007.92662  20340142.2294       -293.2814       -228.5314
 -25060572.59147 -19223997.92062  19748488.7294       2427.3914       1891.4734
 90 12 27 19 51 59.9940000  0  5G17G21G12G23G11
   5674535.079 5   4421692.00321  22339009.666       -1735.234       -1352.131
 -17050735.19647 -13286285.35963  18791817.0254       1729.5164       1347.6754
  -6702969.47446  -5045736.55861  21874379.2214        942.2344        734.2094
  -1526594.90947  -1189564.46262  20340981.5804       -295.1564       -229.9924
 -25096892.03047 -19252298.78562  19741578.8464       2415.9694       1882.5734
 90 12 27 19 52 14.9940000  0  5G17G21G12G23G11
   5700585.05245   4441990.57261  22343962.7524      -1738.2814      -1354.5054
 -17076651.29247 -13306479.72063  18786883.4634       1725.7664       1344.7524
  -6717024.203 6  -5056688.28321  21871702.510         931.531         725.869
  -1522154.98947  -1186104.81262  20341827.4794       -297.0314       -231.4534
 -25133047.323 7 -19280471.75022  19734697.135        2404.547        1873.673
 90 12 27 19 52 29.9940000  0  5G17G21G12G23G11
   5726684.94545   4462328.08061  22348933.5104      -1741.5624      -1357.0624
 -17102506.83247 -13326626.88863  18781965.3854       1721.7814       1341.6484
  -6730914.24446  -5067511.67861  21869059.8614        920.6094        717.3584
  -1517682.71047  -1182619.95562  20342679.4404       -299.1254       -233.0844
 -25169026.92547 -19308507.80962  19727849.0414       2392.8754       1864.5784
 90 12 27 19 52 44.9940000  0  5G17G21G12G23G11
   5752821.741 5   4482694.32421  22353902.541       -1743.781       -1358.791
 -17128314.47447 -13346736.73363  18777054.0184       1718.7974       1339.3224
  -6744652.544 6  -5078216.83521  21866442.260         910.734         709.663
  -1513191.25047  -1179120.15362  20343533.7754       -300.1564       -233.8884
 -25204843.55947 -19336416.88262  19721035.5254       2382.2504       1856.2994
 90 12 27 19 52 59.9940000  0  5G17G21G12G23G11
   5779009.408 5   4503100.20521  22358892.330       -1747.562       -1361.737
 -17154059.92747 -13366798.12063  18772155.6664       1714.2664       1335.7914
  -6758224.89546  -5088792.68361  21863858.9244        899.2664        700.7264
  -1508666.22147  -1175594.18862  20344394.4244       -302.7974       -235.9464
 -25240482.917 7 -19364187.82422  19714253.057        2370.016        1846.765
 90 12 27 19 53 14.9940000  0  5G17G21G12G23G11
   5805242.106 5   4523541.19621  22363872.236       -1750.156       -1363.758
 -17179749.22547 -13386815.74863  18767267.6504       1710.9384       1333.1984
  -6771637.27646  -5099243.88261  21861307.5724        889.0164        692.7394
  -1504113.62447  -1172046.74562  20345262.1114       -304.2344       -237.0664
 -25275950.679 7 -19391825.06022  19707503.354        2358.984        1838.170
 90 12 27 19 53 29.9940000  0  5G17G21G12G23G11
   5831517.238 5   4544015.23421  22368878.838       -1753.516       -1366.376
 -17205384.82047 -13406791.52763  18762387.4244       1706.7974       1329.9724
  -6784891.92146  -5109572.17261  21858783.1044        877.9384        684.1074
  -1499535.575 7  -1168479.47722  20346135.166        -306.500        -238.831
 -25311249.008 7 -19419330.26322  19700786.588        2347.125        1828.929
 90 12 27 19 53 44.9940000  0  5G17G21G12G23G11
   5857841.73845   4564527.74661  22373891.5654      -1756.5624      -1368.7504
 -17230959.50147 -13426719.84363  18757522.3464       1703.0004       1327.0134
  -6797981.783 6  -5119772.06121  21856294.463         867.203         675.743
  -1494925.255 7  -1164887.06422  20347011.244        -308.391        -240.304
 -25346370.579 7 -19446697.73622  19694102.830        2335.594        1819.943
 90 12 27 19 53 59.9940000  0  5G17G21G12G23G11
   5884207.035 5   4585072.05621  22378908.455       -1758.937       -1370.601
 -17256481.73948 -13446607.29463  18752667.5654       1699.8444       1324.5544
  -6810915.28946  -5129850.11761  21853834.8694        857.1414        667.9024
  -1490290.77147  -1161275.81762  20347891.5724       -309.6564       -241.2914
 -25381323.705 7 -19473933.95322  19687451.471        2324.719        1811.469
 90 12 27 19 54 14.9940000  0  5G17G21G12G23G11
   5910611.089 5   4605646.58421  22383925.916       -1762.016       -1372.999
 -17281953.35947 -13466455.30363  18747819.8694       1695.9694       1321.5344
  -6823694.47946  -5139807.92761  21851403.6114        846.3594        659.5014
  -1485634.23247  -1157647.38062  20348779.3544       -311.6254       -242.8254
 -25416110.147 7 -19501040.28122  19680832.744        2313.078        1802.399
 90 12 27 19 54 29.9940000  0  5G17G21G12G23G11
   5937061.23545   4626256.99261  22388962.2134      -1764.8444      -1375.2034
 -17307366.80347 -13486257.98863  18742983.8464       1692.3284       1318.6974
  -6836311.83346  -5149639.62761  21849004.4244        835.7814        651.2584
  -1480948.12947  -1153995.90662  20349671.7994       -313.3594       -244.1764
 -25450722.30747 -19528010.80562  19674246.3544       2301.6884       1793.5234
 90 12 27 19 54 44.9940000  0  5G17G21G12G23G11
   5963548.410 5   4646896.26721  22394007.041       -1767.687       -1377.419
 -17332730.99647 -13506022.29663  18738156.6354       1688.6724       1315.8484
  -6848776.15646  -5159352.08961  21846627.5254        825.2194        643.0284
  -1476241.08947  -1150328.11862  20350566.9864       -315.1254       -245.5524
 -25485168.79547 -19554852.23462  19667689.7524       2290.2814       1784.6354
 90 12 27 19 54 59.9940000  0  5G17G21G12G23G11
   5990080.690 5   4667570.71021  22399053.643       -1770.609       -1379.696
 -17358037.86047 -13525741.92563  18733338.5964       1684.8914       1312.9024
  -6861079.39646  -5168939.03061  21844286.9944        814.5164        634.6884
  -1471505.38447  -1146637.99762  20351465.4944       -316.9844       -247.0014
 -25519441.40547 -19581558.16762  19661170.5184       2278.7194       1775.6254
 90 12 27 19 55 14.9940000  0  5G17G21G12G23G11
   6016664.794 5   4688285.51421  22404110.400       -1773.578       -1382.009
 -17383280.47247 -13545411.49263  18728534.4634       1681.1254       1309.9684
  -6873214.79546  -5178395.19661  21841979.0964        803.8594        626.3844
  -1466734.01947  -1142920.07762  20352374.7834       -318.8594       -248.4624
 -25553533.14247 -19608123.16362  19654682.8614       2267.1724       1766.6274
 90 12 27 19 55 29.9940000  0  5G17G21G12G23G11
   6043291.270 5   4709033.30721  22409176.432       -1776.359       -1384.176
 -17408468.10247 -13565038.21263  18723743.3384       1677.4844       1307.1314
  -6885191.58246  -5187727.77061  21839698.4084        793.2974        618.1534
  -1461936.12747  -1139181.49762  20353289.1904       -320.5944       -249.8134
 -25587453.045 7 -19634554.26722  19648225.361        2255.734        1757.715
 90 12 27 19 55 44.9940000  0  5G17G21G12G23G11
   6069960.57045   4729814.51461  22414259.5574      -1779.4064      -1386.5504
 -17433600.11247 -13584621.60063  18718960.1824       1673.5784       1304.0874
  -6897009.057 6  -5196936.22121  21837453.135         782.500         609.740
  -1457111.18947  -1135421.83962  20354206.4004       -322.5944       -251.3724
 -25621200.24047 -19660850.79362  19641805.1904       2244.0314       1748.5964
 90 12 27 19 55 59.9930000  0  5G17G21G12G23G11
   6096676.11345   4750631.72561  22419339.5284      -1782.5784      -1389.0224
 -17458669.56947 -13604156.24464  18714190.5134       1669.5314       1300.9334
  -6908661.290 6  -5206015.92521  21835236.177         771.531         601.193
  -1452254.18347  -1131637.19862  20355129.2554       -324.7344       -253.0404
 -25654767.24947 -19687006.90762  19635417.2864       2232.1724       1739.3554
 90 12 27 19 56 14.9930000  0  5G17G21G12G23G11
   6123435.135 5   4771482.81921  22424430.622       -1785.359       -1391.189
 -17483685.68548 -13623649.32463  18709430.2944       1665.8594       1298.0724
  -6920156.05346  -5214972.91361  21833048.2244        760.9844        592.9754
  -1447370.61247  -1127831.84762  20356060.3254       -326.5004       -254.4164
 -25688164.54447 -19713030.78062  19629063.0914       2220.6884       1730.4064
 90 12 27 19 56 29.9930000  0  5G17G21G12G23G11
   6150232.60845   4792363.88261  22429527.5834      -1787.7344      -1393.0404
 -17508650.03747 -13643102.06863  18704679.1774       1662.6094       1295.5404
  -6931495.67246  -5223809.01661  21830890.6074        750.8754        585.0974
  -1442463.95747  -1124008.51562  20356994.1774       -327.8444       -255.4634
 -25721392.67547 -19738922.83662  19622738.2164       2209.6094       1721.7744
 90 12 27 19 56 44.9930000  0  5G17G21G12G23G11
   6177072.924 5   4813278.29021  22434640.021       -1791.156       -1395.706
 -17533558.17647 -13662511.01563  18699938.9504       1658.2974       1292.1794
  -6942675.72646  -5232520.78661  21828762.7324        739.6414        576.3434
  -1437529.84647  -1120163.79262  20357932.7714       -330.2194       -257.3134
 -25754447.22947 -19764679.63262  19616450.2864       2197.4844       1712.3254
 90 12 27 19 56 59.9930000  0  5G17G21G12G23G11
   6203955.23145   4834225.45461  22439756.3024      -1793.7814      -1397.7524
 -17558410.66347 -13681876.59263  18695210.2324       1654.7504       1289.4164
  -6953696.816 6  -5241108.69921  21826665.122         729.219         568.222
  -1432568.97547  -1116298.21562  20358875.6924       -331.8444       -258.5804
 -25787328.70547 -19790301.56762  19610193.1144       2186.1094       1703.4624
 90 12 27 19 57 14.9930000  0  5G17G21G12G23G11
   6230874.416 5   4855201.33421  22444878.192       -1796.266       -1399.687
 -17583212.39847 -13701202.63363  18690488.9274       1651.3444       1286.7614
  -6964563.846 6  -5249576.56521  21824596.005         718.906         560.187
  -1427586.07947  -1112415.47762  20359824.4114       -333.3444       -259.7484
 -25820041.83247 -19815792.31462  19603968.7324       2174.8284       1694.6714
 90 12 27 19 57 29.9930000  0  5G17G21G12G23G11
   6257839.74345   4876213.18961  22450005.1464      -1799.0164      -1401.8304
 -17607954.04647 -13720481.84163  18685782.5834       1647.6254       1283.8644
  -6975267.502 6  -5257917.12321  21822562.497         708.328         551.944
  -1422571.87447  -1108508.33662  20360780.3494       -335.1254       -261.1364
 -25852577.05447 -19841144.44162  19597774.9894       2163.2664       1685.6624
 90 12 27 19 57 44.9930000  0  5G17G21G12G23G11
   6284846.23945   4897257.11961  22455143.6614      -1802.0624      -1404.2054
 -17632640.35347 -13739717.92963  18681084.2324       1643.6724       1280.7834
  -6985812.757 6  -5266134.27321  21820553.802         697.500         543.506
  -1417531.38447  -1104580.71762  20361738.0524       -337.1564       -262.7194
 -25884939.10747 -19866361.62862  19591617.9824       2151.4534       1676.4574
 90 12 27 19 57 59.9930000  0  5G17G21G12G23G11
   6311895.47745   4918334.34261  22460297.2004      -1804.7194      -1406.2744
 -17657269.51747 -13758909.49363  18676396.2164       1640.0314       1277.9464
  -6996197.832 6  -5274226.59221  21818577.560         687.000         535.325
  -1412462.58547  -1100631.03562  20362704.5284       -338.8914       -264.0714
 -25917126.03147 -19891442.34762  19585494.6304       2139.9384       1667.4844
 90 12 27 19 58 14.9930000  0  5G17G21G12G23G11
   6338991.756 5   4939448.23321  22465449.739       -1807.719       -1408.612
 -17681837.141 7 -13778053.10924  18671722.669        1636.031        1274.830
  -7006418.24446  -5282190.60561  21816631.5674        676.1254        526.8514
  -1407360.90247  -1096655.73462  20363675.5214       -340.9694       -265.6904
 -25949133.27747 -19916383.05562  19579404.6464       2128.0634       1658.2314
 90 12 27 19 58 29.9930000  0  5G17G21G12G23G11
   6366130.23545   4960595.01261  22470617.4894      -1810.6874      -1410.9254
 -17706347.91548 -13797152.42264  18667060.8724       1632.0944       1271.7614
  -7016478.824 6  -5290030.06421  21814715.841         665.328         518.438
  -1402230.88847  -1092658.35862  20364649.4824       -342.9844       -267.2614
 -25980965.42947 -19941187.33462  19573344.7864       2116.2504       1649.0264
 90 12 27 19 58 44.9930000  0  5G17G21G12G23G11
   6393308.38745   4981772.67061  22475785.2944      -1813.1724      -1412.8614
 -17730804.09148 -13816209.19464  18662406.6304       1628.6254       1269.0584
  -7026381.90046  -5297746.81261  21812833.5834        654.9844        510.3774
  -1397075.20347  -1088640.97962  20365630.5604       -344.5314       -268.4664
 -26012624.62647 -19965856.83162  19567319.1074       2104.8754       1640.1624
 90 12 27 19 58 59.9930000  0  5G17G21G12G23G11
   6420529.89445   5002984.14261  22480966.9114      -1816.2344      -1415.2484
 -17755202.03248 -13835220.58864  18657760.8884       1624.5784       1265.9054
  -7036123.892 6  -5305338.02821  21810978.396         644.078         501.879
  -1391890.22247  -1084600.77062  20366617.2634       -346.6564       -270.1224
 -26044107.07647 -19990388.60662  19561333.1924       2092.9224       1630.8484
 90 12 27 19 59 14.9930000  0  5G17G21G12G23G11
   6447786.600 5   5024223.03121  22486150.708       -1818.922       -1417.342
 -17779549.349 7 -13854192.53523  18653128.732        1620.844        1262.995
  -7045712.60246  -5312809.80961  21809154.7784        633.5314        493.6614
  -1386683.52747  -1080543.64062  20367609.6384       -348.4694       -271.5344
 -26075420.34247 -20014788.55762  19555369.8414       2081.2974       1621.7904
 90 12 27 19 59 29.9930000  0  5G17G21G12G23G11
   6475088.749 5   5045497.31221  22491351.935       -1821.594       -1419.424
 -17803836.00247 -13873117.20463  18648506.5364       1617.1564       1260.1224
  -7055137.925 6  -5320154.25521  21807362.794         622.969         485.430
  -1381444.94147  -1076461.65662  20368605.4194       -350.2194       -272.8984
 -26106554.21547 -20039048.71562  19549447.5054       2069.6724       1612.7314
 90 12 27 19 59 44.9930000  0  5G17G21G12G23G11
   6502427.822 5   5066800.39121  22496549.317       -1823.906       -1421.226
 -17828070.16347 -13892000.97563  18643894.9744       1613.7814       1257.4924
  -7064408.06846  -5327377.79661  21805598.9744        612.7344        477.4554
  -1376182.89947  -1072361.39262  20369606.4274       -351.6874       -274.0424
 -26137516.91447 -20063175.49362  19543553.5054       2058.3914       1603.9414
 90 12 27 19 59 59.9930000  0  5G17G21G12G23G11
   6529805.440 5   5088133.49021  22501759.903       -1826.594       -1423.320
 -17852250.09047 -13910842.48463  18639293.9894       1610.0474       1254.5824
  -7073521.47646  -5334479.19561  21803862.4504        602.2194        469.2614
  -1370895.50447  -1068241.37462  20370612.3254       -353.4694       -275.4304
 -26168306.65647 -20087167.49662  19537694.3804       2046.7344       1594.8584
 90 12 27 20  0 14.9930000  0  4G21G12G23G11
 -17876374.29347 -13929640.57264  18634701.7324       1606.5944       1251.8914
  -7082476.572 6  -5341457.23021  21802158.942         591.922         461.238
  -1365581.31947  -1064100.48462  20371624.9034       -354.9844       -276.6114
 -26198921.60947 -20111023.30562  19531868.0134       2035.3594       1585.9944
 90 12 27 20  0 29.9930000  0  4G21G12G23G11
 -17900446.49447 -13948398.13663  18630119.8964       1602.7034       1248.8604
  -7091277.24046  -5348314.93461  21800482.4354        581.1884        452.8734
  -1360244.27747  -1059941.79062  20372640.2164       -356.9374       -278.1334
 -26229365.65347 -20134745.92962  19526077.5054       2023.5314       1576.7784
 90 12 27 20  0 44.9930000  0  4G21G12G23G11
 -17924464.67047 -13967113.60664  18625549.6304       1599.5634       1246.4124
  -7099921.56446  -5355050.81061  21798839.2394        571.2504        445.1304
  -1354882.17547  -1055763.57162  20373659.3254       -358.1254       -279.0584
 -26259636.52547 -20158333.62462  19520317.0754       2012.4384       1568.1334
 90 12 27 20  0 59.9930000  0  4G21G12G23G11
 -17948427.05447 -13985785.60263  18620989.6534       1595.3284       1243.1134
  -7108407.912 6  -5361663.59821  21797224.341         560.188         436.510
  -1349493.41047  -1051564.57262  20374685.8574       -360.4534       -280.8734
 -26289732.40147 -20181784.96062  19514589.5214       2000.2504       1558.6364
 90 12 27 20  1 14.9930000  0  4G21G12G23G11
 -17972329.405 7 -14004410.82024  18616440.786        1592.047        1240.556
  -7116732.20146  -5368150.08961  21795639.3174        550.1094        428.6574
  -1344073.768 7  -1047341.51722  20375719.739        -361.781        -281.907
 -26319649.03747 -20205096.62862  19508895.9584       1989.0164       1549.8824
 90 12 27 20  1 29.9930000  0  4G21G12G23G11
 -17996178.173 7 -14022994.28324  18611905.919        1588.234        1237.585
  -7124900.78146  -5374515.24461  21794089.2394        539.4694        420.3654
  -1338629.354 7  -1043099.16022  20376754.138        -363.719        -283.417
 -26349392.74547 -20228273.54662  19503236.4194       1977.2504       1540.7144
 90 12 27 20  1 44.9930000  0  4G21G12G23G11
 -18019976.559 7 -14041538.49724  18607377.669        1585.063        1235.114
  -7132916.972 6  -5380761.65621  21792563.583         529.531         412.622
  -1333163.21147  -1038839.86462  20377793.7554       -364.9224       -284.3554
 -26378966.65947 -20251318.15762  19497605.6464       1966.1254       1532.0454
 90 12 27 20  1 59.9930000  0  4G21G12G23G11
 -18043720.267 7 -14060040.10124  18602856.169        1581.078        1232.009
  -7140776.697 6  -5386886.12621  21791063.427         518.750         404.221
  -1327671.84347  -1034560.91062  20378838.1534       -366.9534       -285.9374
 -26408366.44747 -20274227.08062  19492014.6534       1954.1564       1522.7194
 90 12 27 20  2 14.9930000  0  4G21G12G23G11
 -18067404.69147 -14078495.50764  18598350.9584       1576.3444       1228.3204
  -7148475.395 6  -5392885.12221  21789598.521         507.266         395.272
  -1322150.48547  -1030258.58462  20379889.6144       -369.7194       -288.0934
 -26437587.23847 -20296996.53062  19486451.9664       1941.4694       1512.8334
 90 12 27 20  2 29.9930000  0  4G21G12G23G11
 -18091023.37447 -14096899.68363  18593857.4354       1572.6254       1225.4224
  -7156006.686 6  -5398753.67921  21788166.505         496.734         387.066
  -1316592.36747  -1025927.61762  20380948.3494       -371.5314       -289.5054
 -26466622.71447 -20319621.56562  19480928.4504       1929.7504       1503.7014
 90 12 27 20  2 44.9930000  0  4G21G12G23G11
 -18114586.40447 -14115260.49664  18589373.3334       1569.5164       1222.9994
  -7163380.75546  -5404499.71161  21786761.8414        486.8444        379.3594
  -1311007.70347  -1021575.96962  20382010.8414       -372.7034       -290.4184
 -26495482.86547 -20342110.00262  19475435.5914       1918.6564       1495.0574
 90 12 27 20  2 59.9930000  0  4G21G12G23G11
 -18138101.43447 -14133583.90264  18584896.3964       1565.9064       1220.1874
  -7170605.414 6  -5410129.34221  21785387.638         476.500         371.299
  -1305404.246 7  -1017209.68422  20383076.482        -374.375        -291.721
 -26524175.28347 -20364467.72162  19469976.2324       1907.0784       1486.0354
 90 12 27 20  3 14.9930000  0  4G21G12G23G11
 -18161560.97447 -14151864.06764  18580435.9194       1561.8444       1217.0214
  -7177673.292 6  -5415636.79621  21784046.997         465.672         362.861
  -1299774.231 7  -1012822.70322  20384146.872        -376.484        -293.364
 -26552692.33047 -20386688.80162  19464545.9584       1895.0004       1476.6234
 90 12 27 20  3 29.9930000  0  4G21G12G23G11
 -18184972.74147 -14170107.00763  18575981.2324       1558.9694       1214.7814
  -7184592.085 6  -5421028.07721  21782729.271         456.047         355.361
  -1294125.789 7  -1008421.36422  20385221.521        -377.406        -294.083
 -26581041.49947 -20408779.06362  19459152.0134       1884.1094       1468.1374
 90 12 27 20  3 44.9930000  0  4G21G12G23G11
 -18208329.63447 -14188307.18664  18571535.5524       1554.6254       1211.3964
  -7191354.93346  -5426297.83461  21781441.4744        445.0164        346.7654
  -1288451.905 7  -1004000.20422  20386302.044        -379.781        -295.933
 -26609215.92747 -20430733.16962  19453792.5754       1871.7974       1458.5434
 90 12 27 20  3 59.9930000  0  4G21G12G23G11
 -18231622.53347 -14206457.50364  18567103.8024       1550.7194       1208.3524
  -7197952.73346  -5431438.98161  21780184.4584        434.3444        338.4504
  -1282743.258 7   -999551.95222  20387386.294        -381.750        -297.468
 -26637206.38047 -20452543.91462  19448466.7944       1859.8914       1449.2654
 90 12 27 20  4 14.9930000  0  4G21G12G23G11
 -18254856.42647 -14224561.84364  18562681.3574       1546.4384       1205.0164
  -7204390.78446  -5436455.64261  21778959.8574        423.3444        329.8784
  -1277005.057 7   -995080.67422  20388478.935        -384.062        -299.269
 -26665018.00347 -20474215.31362  19443175.5914       1847.6094       1439.6964
 90 12 27 20  4 29.9930000  0  4G21G12G23G11
 -18278024.84647 -14242615.16164  18558273.4504       1542.7034       1202.1064
  -7210662.467 6  -5441342.64021  21777764.802         412.891         321.733
  -1271230.45847   -990581.02462  20389578.8884       -385.8754       -300.6824
 -26692643.94447 -20495742.02262  19437916.0674       1835.8594       1430.5404
 90 12 27 20  4 44.9930000  0  4G21G12G23G11
 -18301141.66047 -14260628.27164  18553874.6464       1539.2504       1199.4164
  -7216781.866 6  -5446110.99521  21776599.638         402.734         313.819
  -1265433.47047   -986063.93162  20390683.6694       -387.3444       -301.8264
 -26720098.07947 -20517134.85962  19432693.4354       1824.4064       1421.6154
 90 12 27 20  4 59.9930000  0  4G21G12G23G11
 -18324204.79347 -14278599.54864  18549483.2004       1535.8594       1196.7744
  -7222747.19446  -5450759.29661  21775463.1854        392.6724        305.9784
  -1259612.19647   -981527.90962  20391789.4034       -388.7814       -302.9464
 -26747378.39647 -20538392.25662  19427502.8334       1813.0004       1412.7274
 90 12 27 20  5 14.9930000  0  4G21G12G23G11
 -18347215.55347 -14296530.01464  18545104.6304       1532.1414       1193.8764
  -7228559.84446  -5455288.60261  21774360.2004        382.2664        297.8694
  -1253768.05547   -976974.07062  20392904.4114       -390.5164       -304.2984
 -26774486.19947 -20559515.22162  19422344.6854       1801.2814       1403.5964
 90 12 27 20  5 29.9930000  0  4G21G12G23G11
 -18370170.11447 -14314416.69364  18540737.9504       1528.2344       1190.8324
  -7234215.98946  -5459695.96361  21773286.1304        371.6564        289.6024
  -1247897.01347   -972399.27262  20394021.2554       -392.5164       -305.8564
 -26801417.58247 -20580500.72662  19417216.1774       1789.3444       1394.2944
 90 12 27 20  5 44.9930000  0  4G21G12G23G11
 -18393062.14547 -14332254.64163  18536380.3254       1524.2814       1187.7524
  -7239709.239 6  -5463976.38921  21772238.505         361.031         281.323
  -1241992.63447   -967798.49362  20395145.5444       -394.5004       -307.4034
 -26828166.00147 -20601343.66262  19412127.3574       1777.3594       1384.9554
 90 12 27 20  5 59.9930000  0  4G21G12G23G11
 -18415897.40448 -14350048.35164  18532037.5214       1520.7974       1185.0374
  -7245045.68546  -5468134.65661  21771224.0834        350.8754        273.4094
  -1236060.617 7   -963176.18822  20396273.028        -396.062        -308.620
 -26854737.12247 -20622048.43662  19407068.3964       1765.8444       1375.9824
 90 12 27 20  6 14.9930000  0  4G21G12G23G11
 -18438673.02848 -14367795.59264  18527703.6694       1516.3134       1181.5424
  -7250222.629 6  -5472168.62021  21770237.646         339.750         264.740
  -1230098.45647   -958530.38062  20397407.0604       -398.5474       -310.5564
 -26881128.16847 -20642612.89862  19402049.5214       1753.3444       1366.2424
 90 12 27 20  6 29.9930000  0  4G21G12G23G11
 -18461388.88848 -14385496.26664  18523378.7944       1512.3444       1178.4504
  -7255240.008 6  -5476078.24321  21769282.896         329.125         256.461
  -1224105.855 7   -953860.86622  20398545.411        -400.547        -312.114
 -26907339.03647 -20663036.95862  19397065.7244       1741.3284       1356.8794
 90 12 27 20  6 44.9930000  0  4G21G12G23G11
 -18484051.40048 -14403155.36964  18519066.3334       1509.0944       1175.9174
  -7260104.36446  -5479868.64061  21768361.8174        319.2194        248.7424
  -1218089.35947   -949172.72962  20399691.6074       -401.8444       -313.1254
 -26933376.06947 -20683325.56062  19392108.2004       1730.0474       1348.0884
 90 12 27 20  6 59.9930000  0  4G21G12G23G11
 -18506659.84048 -14420772.33964  18514764.9504       1505.2034       1172.8864
  -7264815.183 6  -5483539.39721  21767463.232         308.719         240.560
  -1212048.463 7   -944465.58722  20400839.122        -403.750        -314.610
 -26959238.64947 -20703478.22562  19387186.1144       1718.1414       1338.8114
 90 12 27 20  7 14.9930000  0  4G21G12G23G11
 -18529217.65448 -14438349.86064  18510471.7084       1502.4064       1170.7064
  -7269375.973 6  -5487093.26521  21766592.903         299.281         233.206
  -1205986.33146   -939741.90262  20401993.2474       -404.6094       -315.2804
 -26984930.051 7 -20723497.51322  19382295.997        1707.281        1330.349
 90 12 27 20  7 29.9930000  0  4G21G12G23G11
 -18551725.96847 -14455888.80764  18506188.9424       1498.6254       1167.7604
  -7273787.840 6  -5490531.08721  21765752.528         288.891         225.110
  -1199903.981 7   -935002.45822  20403152.091        -406.453        -316.717
 -27010451.37247 -20743384.26362  19377441.0524       1695.4534       1321.1324
 90 12 27 20  7 44.9930000  0  4G21G12G23G11
 -18574167.01747 -14473375.34864  18501916.2244       1494.0784       1164.2174
  -7278033.44146  -5493839.36661  21764944.4894        277.7664        216.4414
  -1193783.888 7   -930233.60122  20404317.732        -409.016        -318.713
 -27035784.944 7 -20763124.72222  19372620.599        1682.906        1311.356
 90 12 27 20  7 59.9930000  0  4G21G12G23G11
 -18596549.54347 -14490816.28464  18497656.2944       1490.7814       1161.6484
  -7282121.60446  -5497024.97861  21764168.3414        267.8754        208.7344
  -1187634.60647   -925441.99962  20405487.5284       -410.3284       -319.7364
 -27060939.41147 -20782725.61462  19367834.4894       1671.5784       1302.5284
 90 12 27 20  8 14.9930000  0  4G21G12G23G11
 -18618880.27147 -14508216.85563  18493411.5994       1486.5474       1158.3484
  -7286059.177 6  -5500093.23621  21763416.692         257.047         200.296
  -1181463.271 7   -920633.21022  20406663.036        -412.594        -321.502
 -27085921.53647 -20802192.20962  19363076.0604       1659.2974       1292.9594
 90 12 27 20  8 29.9930000  0  4G21G12G23G11
 -18641145.75148 -14525566.58063  18489172.2324       1482.5314       1155.2194
  -7289832.715 6  -5503033.68421  21762698.849         246.453         192.041
  -1175256.328 7   -915796.67722  20407843.591        -414.656        -323.109
 -27110717.67047 -20821513.87662  19358358.7164       1647.2344       1283.5594
 90 12 27 20  8 44.9930000  0  4G21G12G23G11
 -18663352.22747 -14542870.32764  18484946.1534       1478.5634       1152.1274
  -7293448.77846  -5505851.41661  21762015.8174        235.9224        183.8354
  -1169019.968 7   -910937.21722  20409029.989        -416.625        -324.643
 -27135334.19947 -20840695.58662  19353678.1304       1635.2034       1274.1844
 90 12 27 20  8 59.9930000  0  4G21G12G23G11
 -18685506.24347 -14560133.19963  18480730.7944       1475.6254       1149.8384
  -7296914.01746  -5508551.63861  21761354.1304        226.4534        176.4574
  -1162760.375 7   -906059.66522  20410223.177        -417.609        -325.410
 -27159777.59047 -20859742.38262  19349022.4744       1624.2504       1265.6494
 90 12 27 20  9 14.9930000  0  4G21G12G23G11
 -18707612.12148 -14577358.56064  18476525.0214       1472.0164       1147.0254
  -7300233.01046  -5511137.90061  21760721.9114        216.2664        168.5194
  -1156482.340 7   -901167.74122  20411415.146        -419.266        -326.700
 -27184052.24747 -20878657.70362  19344404.7474       1612.5784       1256.5544
 90 12 27 20  9 29.9930000  0  4G21G12G23G11
 -18729664.11148 -14594541.93564  18472326.6074       1468.0314       1143.9204
  -7303400.109 6  -5513605.81321  21760117.763         205.766         160.337
  -1150180.196 7   -896257.02722  20412612.802        -421.250        -328.247
 -27208152.35247 -20897437.01562  19339821.2554       1600.5474       1247.1794
 90 12 27 20  9 44.9930000  0  4G21G12G23G11
 -18751655.14948 -14611677.81764  18468144.0364       1463.4064       1140.3174
  -7306408.408 6  -5515949.99121  21759544.419         194.641         151.668
  -1143846.570 7   -891321.78922  20413818.239        -423.937        -330.341
 -27232070.86147 -20916074.81662  19335266.2554       1587.8754       1237.3054
 90 12 27 20  9 59.9930000  0  4G21G12G23G11
 -18773585.99848 -14628766.79864  18463973.0134       1460.1094       1137.7484
  -7309258.819 6  -5518171.14021  21759004.732         184.828         144.022
  -1137482.530 7   -886362.84522  20415030.263        -425.234        -331.351
 -27255808.48247 -20934571.66862  19330746.5674       1576.5314       1228.4664
 90 12 27 20 10 14.9930000  0  4G21G12G23G11
 -18795464.42448 -14645814.92964  18459808.5054       1456.6564       1135.0574
  -7311959.217 6  -5520275.39821  21758489.677         174.891         136.278
  -1131095.574 7   -881386.05522  20416245.138        -426.734        -332.520
 -27279372.87047 -20952933.53262  19326265.0284       1565.0314       1219.5054
 90 12 27 20 10 29.9930000  0  4G21G12G23G11
 -18817286.69448 -14662819.30564  18455657.3644       1452.5314       1131.8434
  -7314505.932 6  -5522259.91421  21758007.685         164.250         127.987
  -1124681.894 7   -876388.43722  20417466.325        -428.875        -334.188
 -27302760.34547 -20971157.54162  19321814.1074       1552.8594       1210.0204
 90 12 27 20 10 44.9930000  0  4G21G12G23G11
 -18839045.413 8 -14679774.16324  18451516.450        1449.000        1129.091
  -7316891.920 6  -5524119.16621  21757549.185         154.250         120.195
  -1118234.716 7   -871364.71022  20418693.466        -430.406        -335.381
 -27325963.70847 -20989238.08662  19317397.8174       1541.2814       1200.9984
 90 12 27 20 10 59.9930000  0  4G21G12G23G11
 -18860751.043 7 -14696687.65424  18447386.146        1445.141        1126.084
  -7319127.803 6  -5525861.46721  21757124.903         143.906         112.135
  -1111764.44147   -866322.97962  20419927.1924       -432.2664       -336.8304
 -27348993.34947 -21007183.25962  19313014.9744       1529.3914       1191.7334
 90 12 27 20 11 14.9930000  0  4G21G12G23G11
 -18882400.445 7 -14713557.33224  18443261.380        1442.031        1123.661
  -7321210.34346  -5527484.26261  21756730.4974        134.3594        104.6964
  -1105267.320 7   -861260.33822  20421164.114        -433.391        -337.707
 -27371845.99547 -21024990.52062  19308669.7474       1518.2504       1183.0524
 90 12 27 20 11 29.9930000  0  4G21G12G23G11
 -18903998.938 8 -14730387.34324  18439152.380        1438.344        1120.787
  -7323145.38645  -5528992.13261  21756360.7944        124.2344         96.8064
  -1098749.169 7   -856181.31522  20422403.364        -435.109        -339.046
 -27394527.37047 -21042664.31862  19304354.4744       1506.5164       1173.9084
 90 12 27 20 11 44.9930000  0  4G21G12G23G11
 -18925553.835 8 -14747183.38224  18435053.575        1435.125        1118.279
  -7324940.340 6  -5530390.84921  21756020.130         114.594          89.294
  -1092217.07647   -851091.42762  20423645.6534       -436.3284       -339.9964
 -27417044.52947 -21060210.15662  19300066.4744       1495.2664       1165.1424
 90 12 27 20 11 59.9930000  0  4G21G12G23G11
 -18947050.947 8 -14763934.39024  18430958.997        1430.797        1114.907
  -7326581.102 6  -5531669.40021  21755709.833         103.828          80.905
  -1085657.073 7   -845979.79022  20424892.950        -438.687        -341.834
 -27439383.39347 -21077617.06262  19295820.5444       1482.8914       1155.4994
 90 12 27 20 12 14.9930000  0  4G21G12G23G11
 -18968490.49047 -14780640.53964  18426883.5284       1427.3134       1112.1924
  -7328068.07246  -5532828.11261  21755425.4744         93.9384         73.1984
  -1079069.431 7   -840846.61622  20426147.294        -440.172        -342.991
 -27461544.23247 -21094885.24562  19291598.5994       1471.3914       1146.5384
 90 12 27 20 12 29.9930000  0  4G21G12G23G11
 -18989871.082 8 -14797300.74824  18422812.075        1423.344        1109.099
  -7329399.920 6  -5533865.96621  21755171.708          83.578          65.126
  -1072452.648 7   -835690.73922  20427406.989        -442.156        -344.537
 -27483525.55947 -21112013.55162  19287420.2944       1459.3754       1137.1754
 90 12 27 20 12 44.9930000  0  4G21G12G23G11
 -19011192.307 8 -14813914.70323  18418756.286        1419.328        1105.970
  -7330576.698 6  -5534782.95621  21754947.716          73.172          57.017
  -1065806.25546   -830511.79162  20428672.2324       -444.1874       -346.1204
 -27505327.10147 -21129001.75862  19283268.8024       1447.3444       1127.8004
 90 12 27 20 12 59.9930000  0  4G21G12G23G11
 -19032457.800 8 -14830485.23024  18414710.146        1415.984        1103.364
  -7331602.24846  -5535582.11261  21754753.0364         63.4534         49.4444
  -1059134.05446   -825312.73362  20429939.2474       -445.5474       -347.1794
 -27526952.54347 -21145852.74862  19279150.4974       1435.9534       1118.9254
 90 12 27 20 13 14.9930000  0  4G21G12G23G11
 -19053668.21648 -14847012.84064  18410675.2394       1412.0474       1100.2964
  -7332477.19646  -5536263.92261  21754586.6304         53.1884         41.4454
  -1052436.589 6   -820093.98022  20431214.724        -447.484        -348.689
 -27548402.50647 -21162567.00762  19275069.4974       1424.0164       1109.6234
 90 12 27 20 13 29.9930000  0  4G21G12G23G11
 -19074822.396 7                  18406647.239        1408.516
  -7333200.659 6  -5536827.71121  21754447.458          43.297          33.738
  -1045712.74747   -814854.67762  20432495.6384       -449.0314       -349.8944
 -27569675.92047                  19271022.9894       1412.4384
 90 12 27 20 13 44.9930000  0  4G21G12G23G11
 -19095921.797 7                  18402633.200        1404.609
  -7333774.19146  -5537274.66061  21754341.6614         33.0634         25.7634
  -1038964.042 7   -809595.99822  20433777.966        -450.937        -351.380
 -27590774.18147                  19267007.3414       1400.5314
 90 12 27 20 13 59.9930000  0  4G21G12G23G11
 -19116961.45747 -14896332.28264  18398627.7474       1400.4844       1091.2874
  -7334193.103 6  -5537601.12121  21754261.021          22.625          17.630
  -1032185.429 7   -804314.00822  20435070.013        -453.094        -353.060
 -27611692.452 7 -21211883.83722  19263026.200        1388.391        1081.863
 90 12 27 20 14 14.9920000  0  4G21G12G23G11
 -19137944.77147 -14912682.91363  18394636.2664       1397.3914       1088.8764
  -7334462.407 6  -5537811.00021  21754209.086          13.219          10.300
  -1025382.068 7   -799012.73622  20436366.813        -454.156        -353.888
 -27632434.24647 -21228046.27262  19259080.3524       1377.2814       1073.2064
 90 12 27 20 14 29.9920000  0  4G21G12G23G11
 -19158874.39347 -14928991.71664  18390651.1564       1393.4224       1085.7834
  -7334582.19646                  21754189.4924          2.9534
  -1018553.428 7   -793691.77022  20437664.203        -456.109        -355.410
 -27653002.24647 -21244073.28562  19255167.5474       1365.3134       1063.8804
 90 12 27 20 14 44.9920000  0  4G21G12G23G11
 -19179749.73047 -14945258.22564  18386679.0394       1389.7504       1082.9224
  -7334553.18045                  21754192.5634         -7.0164
  -1011700.617 7   -788351.96622  20438968.063        -457.812        -356.737
 -27673395.65847 -21259964.24562  19251289.6174       1353.6094       1054.7614
 90 12 27 20 14 59.9920000  0  4G21G12G23G11
 -19200558.60147 -14961472.93463  18382722.5474       1384.8914       1079.1364
  -7334363.72146                  21754228.6254        -18.1414
  -1004811.534 7   -782983.90522  20440280.367        -460.641        -358.941
 -27693602.65147 -21275709.95362  19247437.9064       1340.7664       1044.7524
 90 12 27 20 15 14.9920000  0  4G21G12G23G11
 -19221305.83947 -14977639.62264  18378769.4844       1381.3284       1076.3604
  -7334018.70146                  21754297.1254        -27.9374
   -997890.686 7   -777591.09622  20441596.531        -462.203        -360.158
 -27713627.86947 -21291314.01662  19243631.5314       1329.2034       1035.7434
 90 12 27 20 15 29.9920000  0  4G21G12G23G11
 -19241992.72948 -14993759.28364  18374838.1174       1376.8444       1072.8654
  -7333519.56346  -5537076.40661  21754386.4064        -38.6874        -30.1464
   -990939.34347   -772174.52562  20442918.3444       -464.7034       -362.1064
 -27733472.71347 -21306777.53462  19239850.5704       1316.7034       1026.0024
 90 12 27 20 15 44.9920000  0  4G21G12G23G11
 -19262624.407 7 -15009835.92624  18370908.266        1373.938        1070.601
  -7332871.709 6  -5536571.61721  21754510.688         -47.812         -37.256
   -983962.89747   -766738.38962  20444246.3674       -465.6094       -362.8124
 -27753142.48947 -21322104.63862  19236110.2504       1305.8134       1017.5164
 90 12 27 20 15 59.9920000  0  4G21G12G23G11
 -19283199.42047 -15025868.40664  18366991.7194       1369.7664       1067.3504
  -7332073.797 6  -5535949.87621  21754665.563         -58.203         -45.353
   -976959.66647   -761281.39162  20445578.6954       -467.7814       -364.5054
 -27772635.774 7 -21337294.22022  19232402.789        1293.672        1008.056
 90 12 27 20 16 14.9920000  0  4G21G12G23G11
 -19303718.75847 -15041857.50364  18363090.9144       1366.0634       1064.4644
  -7331126.99346  -5535212.10461  21754842.3054        -68.1254        -53.0844
   -969930.67147   -755804.31662  20446915.2664       -469.4844       -365.8324
 -27791953.57647 -21352347.05862  19228724.0084       1281.9694        998.9374
 90 12 27 20 16 29.9920000  0  4G21G12G23G11
 -19324174.54447 -15057797.08964  18359198.5164       1361.9224       1061.2384
  -7330023.818 6  -5534352.50121  21755054.016         -78.437         -61.120
   -962868.33546   -750301.25662  20448261.0164       -471.6254       -367.5004
 -27811088.16147 -21367257.11762  19225085.2584       1269.8444        989.4894
 90 12 27 20 16 44.9920000  0  4G21G12G23G11
 -19344573.012 7 -15073692.01024  18355315.539        1358.063        1058.231
  -7328770.513 6  -5533375.91521  21755297.531         -88.469         -68.937
   -955778.793 6   -744776.99122  20449608.633        -473.453        -368.925
 -27830045.61647 -21382029.15962  19221475.1644       1258.0164        980.2724
 90 12 27 20 16 59.9920000  0  4G21G12G23G11
 -19364917.457 7 -15089544.83324  18351443.524        1354.875        1055.747
  -7327370.732 6  -5532285.19821  21755559.984         -97.812         -76.218
   -948665.37747   -739234.12862  20450964.4454       -474.6414       -369.8504
 -27848829.55247 -21396665.99662  19217900.7744       1246.8754        971.5914
 90 12 27 20 17 14.9920000  0  4G21G12G23G11
 -19385214.118 7 -15105360.42624  18347580.805        1351.469        1053.093
  -7325831.13446  -5531085.52661  21755850.2034       -107.3444        -83.6444
   -941534.210 7   -733677.42422  20452320.563        -476.062        -370.958
 -27867446.31647 -21411172.56962  19214358.1024       1235.4844        962.7154
 90 12 27 20 17 29.9920000  0  4G21G12G23G11
 -19405457.807 7 -15121134.74324  18343727.883        1347.938        1050.341
  -7324146.68846  -5529772.99861  21756173.3444       -116.9844        -91.1574
   -934380.510 7   -728103.16922  20453681.195        -477.547        -372.114
 -27885890.79347 -21425544.89662  19210847.5244       1224.0314        953.7914
 90 12 27 20 17 44.9920000  0  4G21G12G23G11
 -19425642.50447 -15136863.08664  18339884.1884       1343.6724       1047.0174
  -7322311.578 6  -5528343.03521  21756524.602        -127.359         -99.241
   -927197.89546   -722506.38562  20455047.5784       -479.7974       -373.8684
 -27904157.00047 -21439778.30762  19207377.3524       1211.8134        944.2694
 90 12 27 20 17 59.9920000  0  4G21G12G23G11
 -19445765.26047 -15152543.16464  18336057.6254       1339.3754       1043.6694
  -7320322.92645  -5526793.45061  21756895.8594       -137.7504       -107.3384
   -919983.246 6   -716884.63622  20456421.492        -482.109        -375.670
 -27922242.00647 -21453870.53262  19203934.2424       1199.5474        934.7124
 90 12 27 20 18 14.9920000  0  4G21G12G23G11
 -19465831.38147 -15168179.10564  18332241.1174       1335.9694       1041.0154
  -7318186.37946  -5525128.62361  21757308.7894       -147.2664       -114.7524
   -912742.27246   -711242.38062  20457799.5634       -483.5004       -376.7534
 -27940151.22847 -21467825.78362  19200523.4224       1188.1884        925.8604
 90 12 27 20 18 29.9920000  0  4G21G12G23G11
 -19485840.86547 -15183770.91864  18328431.3054       1332.1414       1038.0324
  -7315902.01746  -5523348.58461  21757745.9384       -157.1564       -122.4594
   -905474.69546   -705579.39462  20459180.9774       -485.3124       -378.1664
 -27957884.71547 -21481644.09562  19197150.3994       1176.4384        916.7054
 90 12 27 20 18 44.9920000  0  4G21G12G23G11
 -19505792.24547 -15199317.44764  18324635.1644       1328.2194       1034.9764
  -7313468.69945  -5521452.49161  21758204.1254       -167.1254       -130.2274
   -898179.42747   -699894.83062  20460571.1254       -487.2034       -379.6394
 -27975441.16547 -21495324.45462  19193807.0634       1164.5944        907.4764
 90 12 27 20 18 59.9920000  0  4G21G12G23G11
 -19525687.06047 -15214819.89464  18320851.2744       1324.7344       1032.2614
  -7310888.22546  -5519441.74261  21758694.8674       -176.6414       -137.6424
   -890858.17946   -694190.02262  20461965.1414       -488.6564       -380.7714
 -27992822.19647 -21508868.12662  19190499.7664       1153.1884        898.5884
 90 12 27 20 19 14.9920000  0  4G21G12G23G11
 -19545533.74247 -15230284.83864  18317071.8994       1320.7974       1029.1924
  -7308169.250 6  -5517323.05121  21759215.055        -186.594        -145.398
   -883518.94646   -688471.20662  20463359.5784       -490.5784       -382.2694
 -28010036.25947 -21522281.69162  19187226.6254       1141.3284        889.3474
 90 12 27 20 19 29.9920000  0  4G21G12G23G11
 -19565309.49047 -15245694.51364  18313307.2034       1316.4384       1025.7954
  -7305289.21745  -5515078.84961  21759758.6174       -196.9374       -153.4584
   -876139.23946   -682720.84362  20464762.9924       -492.9224       -384.0954
 -28027060.730 7 -21535547.52622  19183985.609        1129.063         879.789
 90 12 27 20 19 44.9920000  0  4G21G12G23G11
 -19585028.69947 -15261060.13064  18309558.1094       1312.9224       1023.0564
  -7302262.679 5  -5512720.53321  21760331.719        -206.453        -160.873
   -868733.375 6   -676950.09122  20466173.992        -494.406        -385.252
 -28043910.036 7 -21548676.87122  19180779.711        1117.656         870.901
 90 12 27 20 19 59.9920000  0  4G21G12G23G11
 -19604694.21147 -15276383.91264  18305814.6174       1309.0784       1020.0614
  -7299092.82245  -5510250.51861  21760940.1094       -216.2664       -168.5194
   -861304.05246   -671161.06862  20467587.5784       -496.2344       -386.6764
 -28060587.145 7 -21561672.03622  19177607.602        1105.906         861.745
 90 12 27 20 20 14.9920000  0  4G21G12G23G11
 -19624300.70048 -15291661.70064  18302085.3674       1305.1884       1017.0294
  -7295774.361 5  -5507664.71621  21761568.172        -226.125        -176.201
   -853846.04746   -665349.69861  20469007.7344       -498.1094       -388.1374
 -28077086.701 7 -21574528.85122  19174465.211        1094.109         852.553
 90 12 27 20 20 29.9920000  0  4G21G12G23G11
 -19643849.38148 -15306894.44664  18298365.0474       1301.2194       1013.9374
  -7292308.788 5  -5504964.30321  21762230.719        -236.031        -183.920
   -846360.78846   -659517.08862  20470431.2974       -500.0164       -389.6234
 -28093409.983 7 -21587248.30922  19171358.117        1082.250         843.312
 90 12 27 20 20 44.9920000  0  4G21G12G23G11
 -19663345.27348 -15322086.05564  18294651.0864       1298.2344       1011.6114
  -7288701.346 5  -5502153.32021  21762918.430        -244.953        -190.873
   -838853.03846   -653666.96062  20471859.8994       -501.0164       -390.4024
 -28109562.184 7 -21599834.45222  19168288.609        1071.375         834.838
 90 12 27 20 20 59.9920000  0  4G21G12G23G11
 -19682784.750 8 -15337233.71224  18290954.930        1294.016        1008.324
  -7284948.682 5  -5499229.18321  21763629.547        -255.094        -198.774
   -831319.13246   -647796.44262  20473295.6174       -503.2034       -392.1064
 -28125539.816 7 -21612284.57222  19165247.352        1059.281         825.414
 90 12 27 20 21 14.9920000  0  4G21G12G23G11
 -19702160.761 8 -15352331.91524  18287269.578        1289.813        1005.049
  -7281044.207 5  -5496186.76921  21764371.852        -265.141        -206.603
   -823752.32646   -641900.29261  20474735.7344       -505.3444       -393.7744
 -28141336.190 7 -21624593.45922  19162239.070        1047.250         816.039
 90 12 27 20 21 29.9920000  0  4G21G12G23G11
 -19721480.78848 -15367386.48764  18283590.5394       1286.3914       1002.3824
  -7276995.66445  -5493032.06361  21765145.4924       -274.4374       -213.8474
   -816160.22246   -635984.42761  20476178.9614       -506.7344       -394.8584
 -28156958.974 7 -21636767.07722  19159268.719        1035.984         807.261
 90 12 27 20 21 44.9920000  0  4G21G12G23G11
 -19740741.16948 -15382394.57864  18279928.2274       1282.2344        999.1444
  -7272799.417 5  -5489762.27921  21765946.227        -284.469        -221.664
   -808538.78446   -630045.70561  20477628.1644       -508.8754       -396.5264
 -28172404.41847 -21648802.51562  19156327.8594       1023.9694        797.8984
 90 12 27 20 21 59.9920000  0  4G21G12G23G11
 -19759942.71348 -15397356.82564  18276272.0474       1277.9064        995.7714
  -7268456.495 5  -5486378.20321  21766766.797        -294.641        -229.590
   -800889.02646   -624084.91561  20479085.3364       -511.1724       -398.3164
 -28187673.44447 -21660700.48263  19153423.8914       1011.8134        788.4254
 90 12 27 20 22 14.9920000  0  4G21G12G23G11
 -19779088.84048 -15412275.89264  18272631.6804       1274.3594        993.0074
  -7263970.62445  -5482882.72661  21767622.4304       -304.0314       -236.9074
   -793214.32546   -618104.68862  20480546.3674       -512.6724       -399.4854
 -28202769.506 7 -21672463.67322  19150548.633        1000.438         779.562
 90 12 27 20 22 29.9920000  0  4G21G12G23G11
 -19798170.96548 -15427145.08764  18268999.9144       1270.5634        990.0494
  -7259333.512 5  -5479269.40321  21768506.070        -313.625        -244.383
   -785506.01546   -612098.27462  20482011.8364       -514.4694       -400.8854
 -28217684.196 7 -21684085.52822  19147712.742         988.813         770.503
 90 12 27 20 22 44.9920000  0  4G21G12G23G11
 -19817197.20548 -15441970.73064  18265377.4454       1267.1094        987.3584
  -7254553.55845  -5475544.78661  21769418.6024       -322.8914       -251.6034
   -777772.07946   -606071.90062  20483482.9534       -515.8914       -401.9934
 -28232425.767 7 -21695572.49122  19144909.383         977.547         761.725
 90 12 27 20 22 59.9920000  0  4G21G12G23G11
 -19836177.09448 -15456760.25564  18261765.6094       1263.4694        984.5214
  -7249640.46545  -5471716.41261  21770352.5634       -332.2814       -258.9204
   -770022.57046   -600033.37862  20484957.8444       -517.4694       -403.2224
 -28247003.962 7 -21706932.15022  19142133.680         966.125         752.825
 90 12 27 20 23 14.9920000  0  4G21G12G23G11
 -19855095.80948 -15471502.11364  18258166.5314       1259.1884        981.1854
  -7244579.85645  -5467773.11361  21771314.8054       -342.3124       -266.7374
   -762242.65346   -593971.16762  20486439.1494       -519.7034       -404.9634
 -28261404.162 7 -21718153.10022  19139394.031         954.047         743.413
 90 12 27 20 23 29.9920000  0  4G21G12G23G11
 -19873948.34248 -15486192.40664  18254577.6564       1254.7504        977.7274
  -7239366.777 5  -5463710.98221  21772304.445        -352.500        -274.675
   -754427.08546   -587881.18261  20487927.7814       -522.1094       -406.8384
 -28275621.300 7 -21729231.41222  19136686.922         941.828         733.892
 90 12 27 20 23 44.9920000  0  4G21G12G23G11
 -19892743.006 8 -15500837.61024  18251000.656        1251.172         974.939
  -7234009.74945  -5459536.70761  21773325.2664       -361.8284       -281.9444
   -746584.39346   -581770.05762  20489420.3284       -523.6414       -408.0324
 -28289663.722 7 -21740173.58022  19134016.125         930.453         725.028
 90 12 27 20 23 59.9920000  0  4G21G12G23G11
 -19911484.768 8 -15515441.59124  18247434.578        1247.719         972.248
  -7228514.11645  -5455254.42461  21774372.0244       -370.9534       -289.0544
   -738719.183 6   -575641.37722  20490915.047        -525.062        -409.140
 -28303536.605 7 -21750983.64222  19131376.352         919.250         716.299
 90 12 27 20 24 14.9920000  0  4G21G12G23G11
 -19930165.463 8 -15529997.99324  18243881.586        1243.359         968.851
  -7222872.01445  -5450857.98461  21775442.6094       -381.0164       -296.8954
   -730823.468 6   -569488.92722  20492417.484        -527.391        -410.954
 -28317232.119 7 -21761655.49522  19128768.414         907.125         706.851
 90 12 27 20 24 29.9920000  0  4G21G12G23G11
 -19948785.85548 -15544507.40164  18240340.2744       1239.3444        965.7224
  -7217084.34045  -5446348.15061  21776541.9454       -390.6874       -304.4324
   -722897.955 6   -563313.25722  20493926.117        -529.359        -412.488
 -28330751.05347 -21772189.75962  19126194.4384        895.3754        697.6954
 90 12 27 20 24 44.9920000  0  4G21G12G23G11
 -19967347.108 8 -15558970.73024  18236805.250        1235.641         962.837
  -7211152.66045  -5441726.09561  21777671.9844       -400.0314       -311.7134
   -714944.12446   -557115.52462  20495441.1494       -530.9844       -413.7544
 -28344094.73447 -21782587.45762  19123659.0554        883.9534        688.7954
 90 12 27 20 24 59.9920000  0  4G21G12G23G11
 -19985850.033 8 -15573388.61424  18233285.766        1232.344         960.268
  -7205078.05545  -5436992.67261  21778831.1804       -408.9694       -318.6774
   -706962.780 6   -550896.34422  20496959.820        -532.250        -414.740
 -28357264.200 7 -21792849.40622  19121148.594         872.922         680.199
 90 12 27 20 25 14.9920000  0  4G21G12G23G11
 -20004295.498 8 -15587761.71424  18229773.141        1227.531         956.518
  -7198861.564 5  -5432148.69721  21780011.695        -419.406        -326.810
   -698954.71546   -544656.35162  20498481.7344       -535.0164       -416.8954
 -28370260.232 7 -21802976.20422  19118678.313         860.375         670.422
 90 12 27 20 25 29.9920000  0  4G21G12G23G11
 -20022688.752 8 -15602094.13324  18226276.305        1224.219         953.937
  -7192508.86745  -5427198.58261  21781222.1724       -428.3124       -333.7504
   -690925.20246   -538399.64962  20500011.2194       -536.2814       -417.8814
 -28383088.301 7 -21812972.12422  19116234.758         849.344         661.826
 90 12 27 20 25 44.9920000  0  4G21G12G23G11
 -20041015.315 8 -15616374.59024  18222787.977        1219.734         950.442
  -7186005.637 5  -5422131.14721  21782457.024        -438.359        -341.579
   -682859.58346   -532114.81061  20501546.8834       -538.7034       -419.7694
 -28395734.04347 -21822825.98462  19113829.2034        837.1884        652.3544
 90 12 27 20 25 59.9920000  0  4G21G12G23G11
 -20059298.161 8 -15630620.98024  18219306.219        1216.984         948.300
  -7179375.24945  -5416964.64661  21783718.5084       -446.6874       -348.0684
   -674780.94946   -525819.82761  20503082.0554       -539.4374       -420.3414
 -28408220.814 7 -21832555.95822  19111453.188         826.734         644.209
 90 12 27 20 26 14.9920000  0  4G21G12G23G11
 -20077521.390 8 -15644820.91324  18215838.516        1212.828         945.061
  -7172602.25645  -5411687.02961  21785009.6024       -456.3594       -355.6054
   -666673.871 6   -519502.67321  20504628.031        -541.500        -421.948
 -28420532.991 7 -21842149.88422  19109113.320         814.922         635.004
 90 12 27 20 26 29.9920000  0  4G21G12G23G11
 -20095679.712 7 -15658970.27024  18212383.367        1208.406         941.615
  -7165681.519 5  -5406294.29221  21786330.461        -466.312        -363.360
   -658532.859 6   -513159.08721  20506174.344        -543.859        -423.787
 -28432665.256 7 -21851603.61922  19106802.320         802.813         625.568
 90 12 27 20 26 44.9920000  0  4G21G12G23G11
 -20113776.958 7 -15673072.03124  18208940.328        1204.953         938.925
  -7158616.730 5  -5400789.33121  21787674.750        -475.250        -370.325
   -650361.259 6   -506791.65121  20507730.867        -545.281        -424.894
 -28444621.312 7 -21860920.04422  19104527.039         791.719         616.924
 90 12 27 20 26 59.9920000  0  4G21G12G23G11
 -20131818.653 8 -15687130.51424  18205505.906        1200.656         935.576
  -7151414.05645  -5395176.93361  21789039.9304       -485.0314       -377.9464
   -642165.055 6   -500405.05221  20509291.500        -547.500        -426.623
 -28456407.15847 -21870103.84562  19102286.6724        779.7974        607.6344
 90 12 27 20 27 14.9920000  0  4G21G12G23G11
 -20149801.546 8 -15701143.17224  18202084.281        1196.563         932.386
  -7144070.66045  -5389454.89561  21790438.9144       -494.5944       -385.3984
   -633941.001 6   -493996.74621  20510856.008        -549.531        -428.206
 -28468019.813 7 -21879152.68822  19100076.289         768.063         598.490
 90 12 27 20 27 29.9920000  0  4G21G12G23G11
 -20167718.621 8 -15715104.54624  18198676.555        1192.328         929.087
  -7136579.837 5  -5383617.95921  21791864.195        -504.250        -392.922
   -625682.05246   -487561.24161  20512426.6094       -551.7194       -429.9114
 -28479452.441 7 -21888061.25322  19097900.524         756.219         589.261
 90 12 27 20 27 44.9920000  0  4G21G12G23G11
 -20185579.945 8 -15729022.47924  18195277.867        1188.969         926.469
  -7128951.782 5  -5377674.08021  21793314.594        -513.031        -399.765
   -617398.386 6   -481106.48721  20514003.188        -553.000        -430.909
 -28490715.20847 -21896837.47162  19095754.9694        745.2664        580.7264
 90 12 27 20 27 59.9920000  0  4G21G12G23G11
 -20203370.207 7 -15742885.03724  18191889.922        1183.234         922.001
  -7121171.21845  -5371611.36661  21794799.4844       -524.1724       -408.4464
   -609074.538 6   -474620.41521  20515586.703        -556.672        -433.770
 -28501792.799 7 -21905469.38722  19093651.024         731.922         570.329
 90 12 27 20 28 14.9920000  0  4G21G12G23G11
 -20221093.323 7 -15756695.27724  18188519.227        1179.703         919.249
  -7113242.48545  -5365433.20361  21796308.8364       -533.1414       -415.4344
   -600714.561 6   -468106.19521  20517177.070        -558.141        -434.915
 -28512689.441 7 -21913960.30422  19091575.164         720.797         561.660
 90 12 27 20 28 29.9920000  0  4G21G12G23G11
 -20238760.114 8 -15770461.62724  18185157.000        1176.063         916.412
  -7105176.651 5  -5359148.22421  21797843.149        -542.125        -422.435
   -592329.148 6   -461572.15021  20518772.719        -559.719        -436.144
 -28523416.030 7 -21922318.71222  19089534.844         709.609         552.942
 90 12 27 20 28 44.9920000  0  4G21G12G23G11
 -20256374.305 8 -15784186.98324  18181808.024        1172.391         913.551
  -7096978.039 5  -5352759.75621  21799402.258        -551.125        -429.448
   -583922.348 6   -455021.44721  20520374.695        -561.312        -437.386
 -28533976.80647 -21930547.91562  19087522.4144        698.3914        544.2004
 90 12 27 20 28 59.9920000  0  4G21G12G23G11
 -20273931.010 8 -15797867.55024  18178464.399        1168.031         910.154
  -7088641.97645                  21800989.2274       -560.8124
   -575489.276 6                  20521979.922        -563.578
 -28544366.919 7 -21938644.12722  19085548.797         686.484         534.923
 90 12 27 20 29 14.9920000  0  4G21G12G23G11
 -20291428.399 8 -15811501.89124  18175135.477        1164.906         907.719
  -7080166.749 5                  21802600.320        -569.266
   -567027.641 6                  20523589.867        -564.687
 -28554584.61347 -21946606.00262  19083602.4774        675.8284        526.6194
 90 12 27 20 29 29.9920000  0  4G21G12G23G11
 -20308873.306 8 -15825095.33824  18171816.117        1161.609         905.150
  -7071559.482 5  -5332953.33121  21804239.875        -577.828        -450.256
   -558544.333 6   -435246.52121  20525204.414        -565.906        -440.966
 -28564637.05347 -21954439.10962  19081688.1724        665.0164        518.1944
 90 12 27 20 29 44.9920000  0  4G21G12G23G11
 -20326272.41248 -15838653.08864  18168506.4534       1157.8754        902.2404
  -7062827.256 5  -5326149.09221  21805898.672        -586.844        -457.281
   -550046.492 6   -428624.88021  20526820.914        -567.516        -442.220
 -28574531.05747 -21962148.74962  19079804.2504        653.7974        509.4524
 90 12 27 20 29 59.9920000  0  4G21G12G23G11
 -20343609.117 8 -15852162.22324  18165206.899        1153.891         899.136
  -7053953.851 5  -5319234.82721  21807587.359        -596.078        -464.476
   -541517.570 6   -421979.01821  20528443.422        -569.437        -443.718
 -28584250.14547 -21969722.09662  19077957.2034        642.2974        500.4914
 90 12 27 20 30 14.9920000  0  4G21G12G23G11
 -20360887.836 8 -15865626.17524  18161920.430        1150.234         896.287
  -7044943.81846  -5312214.07861  21809304.3134       -604.9694       -471.4044
   -532961.71346   -415312.17061  20530071.8834       -571.0474       -444.9724
 -28593798.86447 -21977162.68662  19076139.5784        631.1564        491.8104
 90 12 27 20 30 29.9920000  0  4G21G12G23G11
 -20378101.67248 -15879039.56464  18158643.0314       1144.7504        892.0134
  -7035790.74845  -5305081.87961  21811044.7974       -615.6414       -479.7204
   -524372.135 6   -408619.04321  20531706.149        -574.437        -447.614
 -28603170.70147 -21984465.44862  19074357.2584        618.2344        481.7414
 90 12 27 20 30 44.9920000  0  4G21G12G23G11
 -20395244.518 8 -15892397.63324  18155383.117        1141.297         889.322
  -7026488.77345  -5297833.63461  21812818.1644       -624.2814       -486.4534
   -515742.600 6   -401894.78621  20533348.789        -575.844        -448.709
 -28612359.796 7 -21991625.80722  19072607.438         607.313         473.231
 90 12 27 20 30 59.9920000  0  4G21G12G23G11
 -20412322.472 7 -15905705.14524  18152130.797        1136.688         885.731
  -7017044.230 6  -5290474.31921  21814617.164        -634.062        -494.075
   -507079.184 6   -395144.12921  20534996.211        -578.391        -450.694
 -28621372.21547 -21998648.49762  19070894.9384        595.2664        463.8434
 90 12 27 20 31 14.9920000  0  4G21G12G23G11
 -20429344.797 8 -15918969.30424  18148891.914        1132.781         882.687
  -7007466.865 5  -5283011.48821  21816434.969        -643.094        -501.112
   -498391.222 6   -388374.34121  20536650.695        -580.172        -452.082
 -28630217.522 7 -22005540.96922  19069211.125         583.938         455.016
 90 12 27 20 31 29.9920000  0  4G21G12G23G11
 -20446309.996 8 -15932188.95524  18145663.289        1128.891         879.655
  -6997755.44345  -5275444.20361  21818281.8834       -652.1094       -508.1374
   -489677.47846   -381584.46861  20538308.5164       -582.0004       -453.5064
 -28638894.50247 -22012302.27962  19067558.5554        572.6414        446.2134
 90 12 27 20 31 44.9920000  0  4G21G12G23G11
 -20463218.97048 -15945364.78764  18142445.4224       1125.3754        876.9164
  -6987911.20145  -5267773.42161  21820156.8444       -660.7194       -514.8464
   -480938.811 6   -374775.17321  20539969.813        -583.437        -454.627
 -28647404.329 7 -22018933.34022  19065940.766         561.734         437.715
 90 12 27 20 31 59.9920000  0  4G21G12G23G11
 -20480076.23448 -15958500.32564  18139237.1724       1121.7344        874.0794
  -6977938.742 5  -5260002.72521  21822057.008        -669.469        -521.664
   -472179.477 6   -367949.76721  20541636.680        -585.000        -455.844
 -28655751.49647 -22025437.65562  19064350.0864        550.7034        429.1194
 90 12 27 20 32 14.9920000  0  4G21G12G23G11
 -20496877.714 8 -15971592.39524  18136039.945        1118.766         871.765
  -6967834.37145  -5252129.25261  21823979.8524       -677.4844       -527.9104
   -463395.893 6   -361105.47121  20543307.328        -585.844        -456.502
 -28663932.44847 -22031812.45062  19062795.7344        540.3914        421.0844
 90 12 27 20 32 29.9910000  0  4G21G12G23G11
 -20513630.247 8 -15984646.33324  18132851.019        1114.984         868.819
  -6957607.170 5  -5244160.07521  21825925.675        -686.297        -534.777
   -454596.522 6   -354248.87521  20544985.089        -587.531        -457.817
 -28671954.67447 -22038063.56162  19061267.6204        529.2504        412.4034
 90 12 27 20 32 44.9910000  0  5G15G21G12G23G11
        -0.76155                  21635904.0504       4972.0314
 -20530320.25548 -15997651.53964  18129675.4804       1110.5004        865.3254
  -6947240.27545  -5236082.02761  21827894.4414       -695.7974       -542.1794
   -445764.17646   -347366.58161  20546666.1834       -589.9534       -459.7044
 -28679803.62047 -22044179.64962  19059774.1124        517.4224        403.1864
 90 12 27 20 32 59.9910000  0  5G15G21G12G23G11
    -74569.61045                  21621712.9414       4970.1564
 -20546948.15348 -16010608.34864  18126509.2614       1106.2344        862.0014
  -6936736.224 5  -5227897.08821  21829893.542        -705.047        -549.387
   -436901.081 6   -340460.32421  20548349.792        -592.109        -461.384
 -28687480.527 7 -22050161.68322  19058311.823         505.859         394.176
 90 12 27 20 33 14.9910000  0  5G15G21G12G23G11
   -149118.94145                  21607526.2224       4969.5944
 -20563521.38548 -16023522.56164  18123357.5424       1103.3594        859.7614
  -6926102.76845  -5219611.33261  21831918.3784       -712.9064       -555.5114
   -428014.581 6   -333535.83221  20550042.394        -592.906        -462.005
 -28694993.02347 -22056015.60462  19056882.5734        495.6564        386.2264
 90 12 27 20 33 29.9910000  0  5G15G21G12G23G11
   -223652.16045        -0.06371  21593342.6444       4968.0634       3871.2184
 -20580043.505 7 -16036396.95624  18120211.933        1099.516         856.765
  -6915343.837 5  -5211227.78621  21833961.620        -721.703        -562.366
   -419108.36646   -326595.98361  20551737.9874       -594.6564       -463.3694
 -28702345.040 7 -22061744.46622  19055485.167         484.516         377.545
 90 12 27 20 33 44.9910000  0  5G15G21G12G23G11
   -298154.29145    -58053.54661  21579166.6444       4965.5784       3869.2824
 -20596500.31148 -16049220.44764  18117080.5894       1094.7664        853.0644
  -6904445.34645  -5202735.53961  21836039.6054       -731.3914       -569.9154
   -410168.331 6   -319629.77721  20553438.683        -597.312        -465.438
 -28709522.37347 -22067337.22062  19054119.9724        472.5004        368.1824
 90 12 27 20 33 59.9910000  0  5G15G21G12G23G11
   -372625.217 5   -116082.75521  21564995.526        4963.984        3868.040
 -20612891.80248 -16061993.04664  18113963.0814       1090.8754        850.0324
  -6893407.573 5  -5194134.71021  21838140.589        -740.187        -576.769
   -401194.447 6   -312637.18721  20555148.128        -599.109        -466.838
 -28716525.390 7 -22072794.13922  19052787.386         461.359         359.501
 90 12 27 20 34 14.9910000  0  5G15G21G12G23G11
   -447069.19445   -174090.94561  21550830.6284       4962.5164       3866.8954
 -20629222.39348 -16074718.19064  18110855.1594       1087.1884        847.1594
  -6882235.446 5  -5185429.21921  21840262.839        -748.781        -583.466
   -392190.919 6   -305621.49921  20556862.425        -600.719        -468.093
 -28723358.766 7 -22078118.87222  19051484.675         450.406         350.966
 90 12 27 20 34 29.9910000  0  5G15G21G12G23G11
   -521489.103 5   -232080.39421  21536671.175        4960.547        3865.361
 -20645495.11348 -16087398.23864  18107759.6754       1082.9534        843.8604
  -6870932.339 5  -5176621.67021  21842410.269        -757.875        -590.552
   -383160.801 6   -298585.09421  20558577.831        -602.859        -469.761
 -28730025.728 7 -22083313.92422  19050218.058         438.953         342.041
 90 12 27 20 34 44.9910000  0  5G15G21G12G23G11
   -595877.405 5   -290045.22021  21522513.651        4958.391        3863.681
 -20661702.879 8 -16100027.67924  18104673.480        1078.578         840.450
  -6859491.49245  -5167706.78161  21844595.9484       -767.0944       -597.7354
   -374097.318 6   -291522.69421  20560302.737        -605.094        -471.502
 -28736519.42547 -22088373.97762  19048983.0114        427.3754        333.0194
 90 12 27 20 34 59.9910000  0  5G15G21G12G23G11
   -670238.43345   -347988.79161  21508362.5114       4956.5004       3862.2084
 -20677850.09648 -16112609.92864  18101603.2224       1074.5004        837.2734
  -6847917.633 5  -5158688.26721  21846803.495        -775.984        -604.663
   -365005.193 6   -284437.96121  20562033.683        -607.062        -473.036
 -28742844.568 7 -22093302.68422  19047776.706         416.094         324.229
 90 12 27 20 35 14.9910000  0  5G15G21G12G23G11
   -744570.974 5   -405910.15921  21494215.941        4954.484        3860.637
 -20693935.84748 -16125144.28464  18098540.6444       1070.2974        833.9984
  -6836210.11845  -5149565.58561  21849028.1364       -785.0004       -611.6884
   -355883.185 6   -277329.95121  20563768.776        -609.172        -474.679
 -28749000.493 7 -22098099.53222  19046606.081         404.719         315.365
 90 12 27 20 35 29.9910000  0  5G15G21G12G23G11
   -818873.627 5   -463808.24321  21480074.894        4953.016        3859.493
 -20709958.99448 -16137629.85764  18095493.2614       1066.6254        831.1364
  -6824368.203 5  -5140338.18221  21851279.589        -793.422        -618.251
   -346729.977 6   -270197.63721  20565509.792        -610.750        -475.909
 -28754986.405 7 -22102763.89722  19045467.980         393.906         306.940
 90 12 27 20 35 44.9910000  0  5G15G21G12G23G11
   -893150.47645   -521686.23161  21465941.8394       4950.8134       3857.7764
 -20725923.76448 -16150069.93964  18092454.2614       1062.2504        827.7274
  -6812396.458 5  -5131009.61521  21853557.933        -802.562        -625.373
   -337550.051 6   -263044.50421  20567255.401        -613.000        -477.662
 -28760806.520 7 -22107299.07122  19044361.112         382.359         297.942
 90 12 27 20 35 59.9910000  0  5G15G21G12G23G11
   -967408.611 5   -579549.62121  21451807.159        4949.469        3856.729
 -20741837.56848 -16162470.31364  18089427.1204       1058.7664        825.0124
  -6800302.585 5  -5121585.88521  21855856.589        -810.766        -631.765
   -328350.649 6   -255876.19221  20569006.355        -614.391        -478.746
 -28766468.675 7 -22111711.15522  19043283.089         371.766         289.688
 90 12 27 20 36 14.9910000  0  5G15G21G12G23G11
  -1041633.133 5   -637386.80621  21437688.386        4947.438        3855.146
 -20757685.98848 -16174819.73564  18086411.7534       1054.6724        821.8224
  -6788072.49645  -5112056.01061  21858185.0114       -819.5944       -638.6444
   -319117.586 6   -248681.64921  20570765.659        -616.375        -480.292
 -28771958.619 7 -22115989.05522  19042237.339         360.547         280.946
 90 12 27 20 36 29.9910000  0  5G15G21G12G23G11
  -1115833.19045   -695204.98361  21423567.8314       4946.6884       3854.5624
 -20773478.48648 -16187125.58264  18083404.9874       1051.7974        819.5824
  -6775715.96645  -5102427.60261  21860542.1364       -827.1414       -644.5254
   -309860.219 6   -241468.16721  20572525.441        -617.156        -480.901
 -28777286.126 7 -22120140.38322  19041222.534         350.594         273.190
 90 12 27 20 36 44.9910000  0  5G15G21G12G23G11
  -1190013.78045   -753007.95361  21409451.6364       4944.3134       3852.7114
 -20789220.02748 -16199391.71564  18080409.0734       1047.3134        816.0884
  -6763238.41345  -5092704.89561  21862915.0974       -836.2814       -651.6484
   -300583.48546   -234239.59061  20574292.9174       -619.5164       -482.7394
 -28782456.447 7 -22124169.22222  19040239.839         339.031         264.180
 90 12 27 20 36 59.9910000  0  5G15G21G12G23G11
  -1264170.226 5   -810792.11221  21395338.542        4943.031        3851.713
 -20804906.18648 -16211614.69664  18077424.5734       1043.9534        813.4704
  -6750635.92245  -5082884.82561  21865311.3704       -844.2814       -657.8814
   -291283.275 6   -226992.71021  20576061.526        -620.734        -483.689
 -28787465.370 7 -22128072.29722  19039288.136         328.594         256.047
 90 12 27 20 37 14.9910000  0  5G15G21G12G23G11
  -1338297.99045   -868553.92261  21381232.5194       4940.6884       3849.8864
 -20820532.93748 -16223791.39164  18074449.1514       1039.6094        810.0854
  -6737904.12245  -5072963.99661  21867731.7534       -853.2974       -664.9074
   -281955.387 6   -219724.27321  20577837.042        -622.984        -485.442
 -28792308.954 7 -22131846.54022  19038365.706         317.203         247.171
 90 12 27 20 37 29.9910000  0  4G15G21G23G11
  -1412392.180 5   -926289.58121  21367133.323        4938.406        3848.109
 -20836095.47948 -16235918.04564  18071488.2534       1035.2814        806.7134
   -272595.030 6   -212430.53721  20579618.683        -625.187        -487.159
 -28796982.971 7 -22135488.65622  19037477.581         305.875         238.344
 90 12 27 20 37 44.9910000  0  4G15G21G23G11
  -1486453.96845   -983999.97561  21353036.9564       4936.6884       3846.7694
 -20851595.35748 -16247995.87364  18068539.0504       1031.5474        803.8034
   -263203.898 6   -205112.82221  20581404.886        -626.781        -488.401
 -28801489.245 7 -22139000.05922  19036617.714         295.141         229.980
 90 12 27 20 37 59.9910000  0  4G15G21G23G11
  -1560490.11645  -1041690.40161  21338949.5504       4934.4694       3845.0414
 -20867039.24848 -16260030.07464  18065600.2614       1027.3284        800.5154
   -253788.751 6   -197776.38721  20583199.589        -628.906        -490.057
 -28805834.701 7 -22142386.13922  19035792.753         283.938         221.250
 90 12 27 20 38 14.9910000  0  4G15G21G23G11
  -1634488.03745  -1099351.03361  21324868.9334       4932.2664       3843.3244
 -20882415.40548 -16272011.50764  18062673.4414       1023.1884        797.2894
   -244337.275 6   -190411.65521  20584995.745        -630.937        -491.640
 -28810007.49547 -22145637.68362  19034997.3394        272.8134        212.5814
 90 12 27 20 38 29.9910000  0  4G15G21G23G11
  -1708453.43545  -1156986.30961  21310793.7844       4929.9384       3841.5104
 -20897729.406 8 -16283944.50324  18059759.198        1018.844         793.904
   -234855.332 6   -183023.18321  20586801.917        -633.156        -493.369
 -28814013.653 7 -22148759.37522  19034236.355         261.516         203.778
 90 12 27 20 38 44.9910000  0  4G15G21G23G11
  -1782390.42645  -1214599.45561  21296722.7924       4927.8444       3839.8784
 -20912985.67748 -16295832.51564  18056855.7924       1014.8444        790.7874
   -225347.60946   -175614.62861  20588607.5894       -635.0474       -494.8424
 -28817858.054 7 -22151755.02822  19033503.972         250.578         195.256
 90 12 27 20 38 59.9910000  0  4G15G21G23G11
  -1856288.00345  -1272181.90061  21282658.8314       4925.1414       3837.7724
 -20928173.56848 -16307667.24164  18053965.3234       1010.1884        787.1594
   -215803.33146   -168177.58261  20590424.6284       -637.5474       -496.7904
 -28821530.286 7 -22154616.52422  19032806.339         239.031         186.258
 90 12 27 20 39 14.9910000  0  4G15G21G23G11
  -1930156.60745  -1329741.75161  21268606.7144       4923.7194       3836.6644
 -20943303.98548 -16319457.18464  18051088.5504       1006.8914        784.5904
   -206233.54646   -160720.66761  20592245.1054       -638.7344       -497.7154
 -28825041.456 7 -22157352.51622  19032138.448         228.828         178.308
 90 12 27 20 39 29.9910000  0  4G15G21G23G11
  -2003996.08845  -1387278.90761  21254554.4644       4921.0004       3834.5454
 -20958376.783 8 -16331202.23424  18048218.839        1002.297         781.011
   -196637.74746   -153243.47061  20594070.7144       -641.2194       -499.6514
 -28828391.618 7 -22159963.04822  19031500.105         217.344         169.359
 90 12 27 20 39 44.9910000  0  4G15G21G23G11
  -2077802.862 5  -1444790.60121  21240511.308        4919.563        3833.425
 -20973388.69748 -16342899.83864  18045363.2304        998.9534        778.4054
   -187013.140 6   -145743.83321  20595903.441        -642.406        -500.576
 -28831577.923 7 -22162445.90822  19030893.722         207.156         161.420
 90 12 27 20 39 59.9910000  0  4G15G21G23G11
  -2151577.83545  -1502277.51661  21226470.5814       4917.1094       3831.5144
 -20988340.41248 -16354550.53664  18042519.5424        994.5944        775.0084
   -177360.506 6   -138222.36021  20597739.800        -644.641        -502.317
 -28834601.544 7 -22164801.99722  19030317.112         195.969         152.703
 90 12 27 20 40 14.9910000  0  4G15G21G23G11
  -2225322.765 5  -1559741.01321  21212438.245        4915.156        3829.992
 -21003234.25548 -16366156.13664  18039683.1284        990.8284        772.0744
   -167681.98446   -130680.71361  20599583.6514       -646.2664       -503.5844
 -28837464.872 7 -22167033.18222  19029772.378         185.375         144.448
 90 12 27 20 40 29.9910000  0  4G15G21G23G11
  -2299035.201 5  -1617179.17821  21198410.386        4912.828        3828.178
 -21018068.37148 -16377715.19964  18036858.8234        986.6884        768.8474
   -157975.65046   -123117.39361  20601430.9954       -648.3124       -505.1794
 -28840166.240 7 -22169138.16522  19029259.667         174.422         135.913
 90 12 27 20 40 44.9910000  0  4G15G21G23G11
  -2372716.454 5  -1674593.03421  21184388.784        4911.469        3827.119
 -21032844.29548 -16389228.91264  18034048.8314        983.5164        766.3764
   -148242.93646   -115533.52561  20603282.9414       -649.3124       -505.9584
 -28842707.495 7 -22171118.38122  19028777.394         164.484         128.170
 90 12 27 20 40 59.9910000  0  4G15G21G23G11
  -2446366.54345  -1731982.61461  21170373.7614       4908.7814       3825.0244
 -21047562.12648 -16400697.36064  18031247.5504        979.1414        762.9674
   -138484.52246   -107929.62661  20605140.6674       -651.5314       -507.6874
 -28845089.159 7 -22172974.24622  19028321.581         153.359         119.501
 90 12 27 20 41 14.9910000  0  4G15G21G23G11
  -2519978.85545  -1789342.75861  21156366.3704       4906.0474       3822.8944
 -21062215.631 8 -16412115.68624  18028459.870         974.578         759.412
   -128693.959 6   -100300.68721  20607002.823        -653.937        -509.562
 -28847305.241 7 -22174701.07822  19027899.769         142.063         110.698
 90 12 27 20 41 29.9910000  0  4G15G21G23G11
  -2593555.47445  -1846675.10061  21142365.0034       4904.2664       3821.5064
 -21076807.219 8 -16423485.76924  18025682.972         971.063         756.672
   -118873.63246    -92648.55361  20608870.1204       -655.3284       -510.6454
 -28849358.345 7 -22176300.91922  19027509.206         131.797         102.699
 90 12 27 20 41 44.9910000  0  4G15G21G23G11
  -2667099.620 5  -1903982.14421  21128369.745        4901.875        3819.643
 -21091340.10648 -16434810.10664  18022915.5194        966.9224        753.4464
   -109026.53346    -84975.56061  20610743.7374       -657.3594       -512.2284
 -28851252.187 7 -22177776.66922  19027148.659         120.953          94.249
 90 12 27 20 41 59.9910000  0  4G15G21G23G11
  -2740607.753 5  -1961261.10321  21114380.862        4899.625        3817.890
 -21105811.17348 -16446086.27064  18020162.5734        962.9694        750.3654
    -99149.595 6    -77279.31221  20612624.284        -659.141        -513.616
 -28852983.78447 -22179125.99262  19026818.3004        110.3444         85.9824
 90 12 27 20 42 14.9910000  0  4G15G21G23G11
  -2814077.794 5  -2018510.39821  21100399.144        4896.938        3815.795
 -21120218.867 8 -16457313.05624  18017421.526         958.609         746.968
    -89241.595 6    -69558.86921  20614509.456        -661.359        -515.345
 -28854552.026 7 -22180348.01822  19026520.050          99.313          77.386
 90 12 27 20 42 29.9910000  0  4G15G21G23G11
  -2887509.311 5  -2075729.66721  21086427.433        4893.688        3813.263
 -21134562.657 8 -16468490.05324  18014692.323         953.672         743.121
    -79301.76046    -61813.61261  20616402.8944       -664.1564       -517.5244
 -28855956.56447 -22181442.49462  19026252.5344         87.7344         68.3644
 90 12 27 20 42 44.9910000  0  4G15G21G23G11
  -2960897.66245  -2132915.31761  21072462.5034       4891.1724       3811.3034
 -21148838.167 8 -16479613.83824  18011977.105         949.469         739.846
    -69326.055 6    -54040.40821  20618301.964        -666.187        -519.107
 -28857193.503 7 -22182406.36722  19026018.042          76.938          59.951
 90 12 27 20 42 59.9910000  0  4G15G21G23G11
  -3034245.10345  -2190069.07461  21058501.6984       4888.5634       3809.2694
 -21163048.067 8 -16490686.50624  18009271.987         945.266         736.571
    -59316.84346    -46241.09361  20620205.3394       -668.2664       -520.7264
 -28858265.54647 -22183241.75862  19025810.4564         66.0944         51.5024
 90 12 27 20 43 14.9910000  0  4G15G21G23G11
  -3107560.361 5  -2247197.75221  21044552.823        4886.797        3807.894
 -21177201.332 8 -16501715.04424  18006578.870         941.844         733.904
    -49283.461 6    -38422.96021  20622113.730        -669.500        -521.688
 -28859182.28847 -22183956.13562  19025640.3554         56.1254         43.7344
 90 12 27 20 43 29.9910000  0  4G15G21G23G11
  -3180834.86246  -2304294.69461  21030606.1834       4883.6564       3805.4464
 -21191289.770 8 -16512693.06724  18003896.628         937.125         730.227
    -39217.90746    -30579.75761  20624028.3784       -672.0784       -523.6974
 -28859935.82047 -22184543.33162  19025495.3554         44.8444         34.9434
 90 12 27 20 43 44.9910000  0  4G15G21G23G11
  -3254072.310 5  -2361362.73421  21016667.894        4881.359        3803.657
 -21205317.597 8 -16523623.85724  18001228.620         933.281         727.232
    -29123.758 6    -22714.27721  20625950.066        -673.781        -525.024
 -28860530.24847 -22185006.55662  19025383.1984         34.4384         26.8344
 90 12 27 20 43 59.9910000  0  4G15G21G23G11
  -3327277.503 5  -2418405.63721  21002742.175        4879.094        3801.891
 -21219289.673 8 -16534511.21224  17998569.159         929.438         724.237
    -19006.309 6    -14830.63121  20627874.714        -675.437        -526.315
 -28860971.13747 -22185350.14162  19025298.1284         24.1094         18.7874
 90 12 27 20 44 14.9910000  0  4G15G21G23G11
  -3400442.76145  -2475417.45461  20988816.2694       4876.2664       3799.6884
 -21233198.512 8 -16545349.28924  17995921.862         925.094         720.852
     -8858.033 6     -6922.97421  20629808.425        -677.656        -528.044
 -28861251.32347 -22185568.49962  19025247.2064         13.2664         10.3374
 90 12 27 20 44 29.9910000  0  4G15G21G23G11
  -3473567.29145  -2532397.50561  20974901.1914       4873.7814       3797.7524
 -21247043.495 8 -16556137.60024  17993288.784         921.016         717.675
      1322.098 6      1009.51821  20631746.769        -679.578        -529.541
 -28861370.29947                  19025223.1054          2.7194
 90 12 27 20 44 44.9910000  0  4G15G21G23G11
  -3546648.13445  -2589343.54161  20960992.2454       4870.8284       3795.4504
 -21260821.588 8 -16566873.79424  17990667.026         916.547         714.192
     11536.417 6      8968.64921  20633688.355        -681.859        -531.319
 -28861325.64747                  19025233.7304         -8.1874
 90 12 27 20 44 59.9910000  0  4G15G21G23G11
  -3619693.49745  -2646261.90861  20947091.7764       4868.6884       3793.7824
 -21274541.691 8 -16577564.80324  17988055.409         912.922         711.368
     21775.958 6     16947.43221  20635636.550        -683.297        -532.439
 -28861126.556 7                  19025269.464         -18.234
 90 12 27 20 45 14.9910000  0  4G15G21G23G11
  -3692698.83145  -2703149.11261  20933202.5344       4865.5944       3791.3724
 -21288199.912 8 -16588207.59224  17985455.948         908.391         707.837
     32045.092 6     24949.26721  20637591.964        -685.687        -534.302
 -28860769.24647                  19025335.0894        -29.1724
 90 12 27 20 45 29.9910000  0  4G15G21G23G11
  -3765658.56845  -2760000.78961  20919319.0424       4862.7814       3789.1804
 -21301790.449 8 -16598797.64124  17982869.003         904.109         704.501
     42349.438 6     32978.54421  20639553.816        -687.812        -535.958
 -28860248.35247 -22184787.12062  19025438.7614        -39.8444        -31.0474
 90 12 27 20 45 44.9910000  0  4G15G21G23G11
  -3838579.31545  -2816822.08661  20905444.3314       4859.6254       3786.7214
 -21315320.394 8 -16609340.47224  17980294.542         899.516         700.921
     52682.020 6     41029.82221  20641520.269        -690.219        -537.833
 -28859571.21047 -22184259.50962  19025569.5344        -50.8124        -39.5944
 90 12 27 20 45 59.9910000  0  4G15G21G23G11
  -3911460.915 5  -2873612.87421  20891573.745        4857.375        3784.968
 -21328789.841 8 -16619836.16824  17977732.659         895.859         698.072
     63042.633 6     49102.94221  20643489.480        -691.719        -539.002
 -28858738.23647 -22183610.48062  19025725.8704        -60.7974        -47.3744
 90 12 27 20 46 14.9910000  0  4G15G21G23G11
  -3984303.869 5  -2930373.54021  20877713.058        4854.813        3782.971
 -21342199.60748 -16630285.36664  17975180.3004        891.9064        694.9924
     73430.29346     57197.12961  20645465.7534       -693.5004       -540.3904
 -28857750.76147 -22182841.05962  19025912.4954        -71.0624        -55.3734
 90 12 27 20 46 29.9910000  0  4G15G21G23G11
  -4057107.273 5  -2987103.40121  20863857.745        4851.969        3780.755
 -21355549.050 8 -16640687.55024  17972640.230         887.641         691.668
     83845.417 6     65312.72521  20647448.675        -695.594        -542.021
 -28856608.46947 -22181950.99662  19026130.7764        -81.6254        -63.6044
 90 12 27 20 46 44.9910000  0  4G15G21G23G11
  -4129867.444 6  -3043799.57121  20850014.456        4849.422        3778.770
 -21368834.612 8 -16651039.95424  17970112.386         883.766         688.649
     94292.05346     73452.87061  20649437.2454       -697.2974       -543.3484
 -28855307.94447 -22180937.63762  19026378.2304        -91.7814        -71.5184
 90 12 27 20 46 59.9910000  0  4G15G21G23G11
  -4202592.376 6  -3100468.31121  20836175.058        4847.141        3776.993
 -21382064.725 8 -16661349.15224  17967593.597         880.141         685.824
    104761.48346     81610.78061  20651429.6514       -698.7504       -544.4814
 -28853858.017 7 -22179807.87022  19026653.972        -101.641         -79.200
 90 12 27 20 47 14.9910000  0  4G15G21G23G11
  -4275273.28546  -3157102.71061  20822343.3084       4844.4064       3774.8624
 -21395230.565 8 -16671608.26324  17965090.597         876.047         682.634
    115262.39946     89793.22361  20653427.6444       -700.6414       -545.9544
 -28852250.346 7 -22178555.18622  19026959.206        -111.953         -87.236
 90 12 27 20 47 29.9910000  0  4G15G21G23G11
  -4347917.749 5  -3213708.72721  20808520.839        4841.359        3772.488
 -21408339.957 8 -16681823.39024  17962594.667         871.719         679.261
    125787.12946     97994.22461  20655429.4014       -702.7974       -547.6344
 -28850493.14147 -22177185.97662  19027291.4414       -122.4844        -95.4424
 90 12 27 20 47 44.9910000  0  4G15G21G23G11
  -4420515.62345  -3270278.44661  20794704.9564       4838.2504       3770.0654
 -21421383.360 8 -16691987.09724  17960113.175         867.313         675.828
    136344.84346    106220.93061  20657440.9094       -705.0164       -549.3634
 -28848577.175 7 -22175693.05322  19027660.105        -133.078        -103.697
 90 12 27 20 47 59.9910000  0  4G15G21G23G11
  -4493070.71845  -3326814.84261  20780896.8474       4836.1414       3768.4214
 -21434364.738 8 -16702102.47424  17957642.769         863.922         673.186
    146931.725 6    114470.36721  20659454.519        -706.219        -550.300
 -28846506.798 7 -22174079.81822  19028054.019        -142.609        -111.124
 90 12 27 20 48 14.9910000  0  4G15G21G23G11
  -4565593.26845  -3383325.88361  20767095.3314       4833.5634       3766.4124
 -21447294.644 8 -16712177.74424  17955182.667         860.109         670.215
    157537.30446    122734.36661  20661475.2224       -707.8594       -551.5794
 -28844292.741 7 -22172354.63422  19028475.347        -152.562        -118.880
 90 12 27 20 48 29.9910000  0  4G15G21G23G11
  -4638068.483 6  -3439800.00621  20753305.159        4829.891        3763.551
 -21460158.519 8 -16722201.55624  17952734.503         855.172         666.368
    168176.17646    131024.30761  20663496.0814       -710.6094       -553.7224
 -28841920.927 7 -22170506.51422  19028926.276        -163.625        -127.500
 90 12 27 20 48 44.9910000  0  4G15G21G23G11
  -4710504.17546  -3496243.37261  20739519.4564       4828.2344       3762.2614
 -21472964.589 8 -16732180.33224  17950297.526         852.313         664.140
    178840.118 6    139333.78221  20665527.089        -711.266        -554.233
 -28839399.78347 -22168542.02562  19029407.2614       -172.5474       -134.4524
 90 12 27 20 48 59.9910000  0  4G15G21G23G11
  -4782898.71445  -3552654.62961  20725745.1514       4824.6564       3759.4724
 -21485711.503 8 -16742113.00524  17947870.706         847.547         660.426
    189530.32946    147663.72261  20667560.4954       -713.8284       -556.2304
 -28836728.45547 -22166460.51162  19029915.0114       -183.3594       -142.8774
 90 12 27 20 49 14.9910000  0  4G15G21G23G11
  -4855245.25546  -3609028.51861  20711980.1364       4821.0784       3756.6844
 -21498392.674 8 -16751994.45124  17945456.714         842.813         656.737
    200253.27246    156019.17161  20669601.5974       -716.3754       -558.2144
 -28833900.624 7 -22164257.04822  19030452.214        -194.125        -151.266
 90 12 27 20 49 29.9910000  0  4G15G21G23G11
  -4927535.249 5  -3665358.34321  20698218.151        4817.875        3754.188
 -21511000.063 8 -16761818.40424  17943060.456         838.469         653.352
    211017.33446    164406.65761  20671653.0424       -718.5164       -559.8824
 -28830908.508 7 -22161925.57422  19031021.870        -204.484        -159.338
 90 12 27 20 49 44.9910000  0  4G15G21G23G11
  -4999780.747 5  -3721653.48621  20684470.925        4814.688        3751.705
 -21523545.441 8 -16771594.03624  17940671.433         834.109         649.955
    221810.452 6    172816.79621  20673703.511        -720.687        -561.575
 -28827764.49247 -22159475.73262  19031618.1674       -214.8444       -167.4114
 90 12 27 20 49 59.9910000  0  4G15G21G23G11
  -5071983.943 6  -3777915.66821  20670733.292        4811.719        3749.391
 -21536031.71048 -16781323.60464  17938295.9334        830.0474        646.7904
    232629.706 6    181247.31221  20675762.511        -722.562        -563.036
 -28824471.71447 -22156909.95962  19032245.4254       -224.8754       -175.2274
 90 12 27 20 50 14.9910000  0  4G15G21G23G11
  -5144141.77746  -3834142.50861  20657002.7064       4809.2504       3747.4684
 -21548455.91448 -16791004.80464  17935932.2694        826.4844        644.0144
    243478.142 6    189700.56121  20677825.073        -723.937        -564.107
 -28821027.550 7 -22154226.24622  19032902.167        -234.375        -182.630
 90 12 27 20 50 29.9910000  0  4G15G21G23G11
  -5216261.00046  -3890339.27061  20643278.4874       4806.4694       3745.3004
 -21560825.01848 -16800643.07564  17933578.8004        822.5944        640.9824
    254348.702 6    198171.05121  20679894.597        -725.625        -565.422
 -28817439.341 7 -22151430.29522  19033585.300        -244.203        -190.288
 90 12 27 20 50 44.9910000  0  4G15G21G23G11
  -5288331.43946  -3946497.99961  20629565.6594       4802.8284       3742.4634
 -21573129.437 8 -16810230.94624  17931235.816         817.906         637.330
    265250.905 6    206666.20421  20681969.417        -728.078        -567.334
 -28813697.86047 -22148514.90062  19034294.4414       -254.7664       -198.5194
 90 12 27 20 50 59.9900000  0  4G15G21G23G11
  -5360346.84746  -4002613.84161  20615859.7094       4799.7814       3740.0894
 -21585367.004 8 -16819766.72624  17928906.342         813.797         634.127
    276185.246 6    215186.38921  20684050.904        -729.984        -568.819
 -28809802.59047 -22145479.65862  19035035.1934       -264.7344       -206.2874
 90 12 27 20 51 14.9900000  0  4G15G21G23G11
  -5432313.28246  -4058691.53261  20602164.0064       4795.7664       3736.9604
 -21597535.92648 -16829249.01064  17926592.3424        808.7974        630.2314
    287156.67446    223735.47961  20686136.3184       -732.8124       -571.0234
 -28805749.87247 -22142321.72862  19035809.6314       -275.5784       -214.7364
 90 12 27 20 51 29.9900000  0  4G15G21G23G11
  -5504228.92146  -4114729.62761  20588478.0534       4792.7664       3734.6234
 -21609638.90348 -16838679.91064  17924290.3424        804.7504        627.0784
    298160.859 6    232310.09121  20688232.123        -734.641        -572.447
 -28801543.66047 -22139044.20462  19036611.1004       -285.4374       -222.4194
 90 12 27 20 51 44.9900000  0  4G15G21G23G11
  -5576096.995 6  -4170730.69521  20574803.303        4789.484        3732.066
 -21621679.12548 -16848061.90964  17921998.9674        800.4694        623.7424
    309194.652 6    240907.77521  20690333.381        -736.687        -574.042
 -28797187.744 7 -22135650.02922  19037437.717        -295.500        -230.260
 90 12 27 20 51 59.9900000  0  4G15G21G23G11
  -5647927.96146  -4226702.81261  20561135.8344       4787.2664       3730.3374
 -21633667.69548 -16857403.66064  17919717.5224        797.3134        621.2824
    320246.749 6    249519.72021  20692436.514        -737.625        -574.773
 -28792693.40647 -22132147.99062  19038293.3814       -304.4224       -237.2124
 90 12 27 20 52 14.9900000  0  4G15G21G23G11
  -5719708.529 6  -4282635.68321  20547475.654        4783.609        3727.488
 -21645591.66648 -16866695.07464  17917446.6544        792.7034        617.6914
    331330.35446    258156.22661  20694540.6784       -740.0474       -576.6604
 -28788048.22747 -22128528.39362  19039178.6074       -314.7814       -245.2844
 90 12 27 20 52 29.9900000  0  4G15G21G23G11
  -5791430.480 6  -4338522.85421  20533827.412        4779.641        3724.395
 -21657442.81548 -16875929.74764  17915190.9514        787.7814        613.8564
    342453.605 6    266823.61221  20696661.147        -742.703        -578.730
 -28783244.34947 -22124785.14562  19040093.2954       -325.4064       -253.5634
 90 12 27 20 52 44.9900000  0  4G15G21G23G11
  -5863098.455 6  -4394368.00121  20520191.897        4776.406        3721.875
 -21669226.18648 -16885111.59864  17912950.3734        783.6414        610.6294
    353611.22546    275517.80061  20698782.2324       -744.6564       -580.2524
 -28778287.140 7 -22120922.42922  19041035.748        -335.234        -261.222
 90 12 27 20 52 59.9900000  0  4G15G21G23G11
  -5934717.51546  -4450174.98561  20506561.4364       4773.3594       3719.5014
 -21680947.11648 -16894244.79464  17910721.8264        779.7034        607.5614
    364798.04146    284234.73761  20700912.7404       -746.3754       -581.5914
 -28773182.26047 -22116944.64362  19042006.9514       -344.8594       -268.7224
 90 12 27 20 53 14.9900000  0  4G15G21G23G11
  -6006296.587 6  -4505950.83821  20492937.795        4770.422        3717.212
 -21692614.92748 -16903336.60364  17908498.6074        775.8754        604.5784
    376004.65946    292967.10461  20703044.9124       -747.9844       -582.8454
 -28767939.387 7 -22112859.31522  19043003.998        -354.312        -276.088
 90 12 27 20 53 29.9900000  0  4G15G21G23G11
  -6077822.20146  -4561685.02061  20479326.4434       4766.6724       3714.2904
 -21704216.16448 -16912376.53564  17906290.0294        771.2814        600.9984
    387244.43646    301725.30161  20705185.0924       -750.3284       -584.6714
 -28762545.55347 -22108656.36162  19044030.0534       -364.5164       -284.0384
 90 12 27 20 53 44.9900000  0  4G15G21G23G11
  -6149291.075 6  -4617374.99721  20465727.639        4763.313        3711.672
 -21715748.35848 -16921362.65664  17904096.2404        767.1094        597.7484
    398519.81646    310511.24661  20707330.3034       -752.2974       -586.2054
 -28756998.69347 -22104334.16362  19045087.5454       -374.2814       -291.6484
 90 12 27 20 53 59.9900000  0  4G15G21G23G11
  -6220716.708 6  -4673031.28421  20452132.967        4760.156        3709.213
 -21727224.68048 -16930305.24564  17901912.4754        763.1254        594.6434
    409817.58846    319314.64061  20709476.6704       -754.0164       -587.5454
 -28751312.48347 -22099903.39362  19046169.3654       -383.8284       -299.0874
 90 12 27 20 54 14.9900000  0  4G15G21G23G11
  -6292089.848 6  -4728646.66321  20438549.990        4756.406        3706.291
 -21738636.32348 -16939197.43464  17899741.1474        758.5784        591.1004
    421146.69146    328142.44561  20711638.0064       -756.3444       -589.3594
 -28745478.34047 -22095357.33962  19047279.3654       -393.9064       -306.9404
 90 12 27 20 54 29.9900000  0  4G15G21G23G11
  -6363407.076 6  -4784218.46921  20424981.881        4752.484        3703.235
 -21749980.31148 -16948036.91364  17897582.3344        753.8914        587.4474
    432510.26346    336997.10861  20713797.9984       -758.8444       -591.3074
 -28739493.69747 -22090694.01562  19048418.1234       -404.1094       -314.8904
 90 12 27 20 54 44.9900000  0  4G15G21G23G11
  -6434671.53346  -4839749.15861  20411421.3734       4749.2344       3700.7024
 -21761260.00848 -16956826.29464  17895435.9594        749.8754        584.3184
    443904.90446    345875.98661  20715969.6864       -760.6094       -592.6834
 -28733362.28447 -22085916.32262  19049584.3814       -413.5944       -322.2814
 90 12 27 20 54 59.9900000  0  4G15G21G23G11
  -6505883.59346  -4895239.00961  20397873.1784       4745.4224       3697.7314
 -21772476.06048 -16965566.08164  17893299.9824        745.2974        580.7514
    455329.18746    354777.95561  20718138.4204       -762.9224       -594.4854
 -28727085.40847 -22081025.28362  19050781.1234       -423.6094       -330.0854
 90 12 27 20 55 14.9900000  0  4G15G21G23G11
  -6577035.807 6  -4950682.24421  20384335.139        4741.781        3694.894
 -21783620.99248 -16974250.44964  17891179.6314        740.9534        577.3664
    466790.92846    363709.12661  20720320.8814       -765.0474       -596.1404
 -28720655.97247 -22076015.36262  19052002.6314       -433.3914       -337.7074
 90 12 27 20 55 29.9900000  0  4G15G21G23G11
  -6648136.50646  -5006085.31561  20370800.8504       4738.2974       3692.1794
 -21794704.13748 -16982886.67364  17889072.8184        736.7664        574.1034
    478280.952 6    372662.33821  20722511.928        -767.000        -597.662
 -28714083.34447 -22070893.86662  19053252.9754       -442.9844       -345.1834
 90 12 27 20 55 44.9900000  0  4G15G21G23G11
  -6719189.649 6  -5061451.35421  20357278.436        4735.297        3689.842
 -21805729.282 8 -16991477.70624  17886975.943         733.047         571.205
    489795.41746    381634.58161  20724702.8974       -768.4534       -598.7954
 -28707371.92147 -22065664.21661  19054528.6004       -452.0624       -352.2564
 90 12 27 20 55 59.9900000  0  4G15G21G23G11
  -6790189.91646  -5116776.18261  20343767.4514       4730.8594       3686.3844
 -21816691.14648 -17000019.42664  17884888.3424        727.9844        567.2614
    501339.34646    390629.79361  20726897.5534       -771.2974       -601.0114
 -28700516.87047 -22060322.64962  19055834.8504       -462.4844       -360.3774
 90 12 27 20 56 14.9900000  0  4G15G21G23G11
  -6861126.94746  -5172051.73561  20330270.4514       4727.7034       3683.9254
 -21827580.06148 -17008504.29964  17882816.9364        724.2034        564.3144
    512922.64046    399655.68561  20729103.5144       -772.8284       -602.2044
 -28693508.87947 -22054861.90962  19057167.8424       -471.5944       -367.4764
 90 12 27 20 56 29.9900000  0  4G15G21G23G11
  -6932016.09346  -5227289.98261  20316777.2724       4724.5784       3681.4894
 -21838411.73948 -17016944.57664  17880756.0614        720.4534        561.3924
    524529.66146    408700.05661  20731313.0144       -774.3124       -603.3604
 -28686363.89547 -22049294.42262  19058530.2564       -480.6254       -374.5134
 90 12 27 20 56 44.9900000  0  4G15G21G23G11
  -7002860.10446  -5282493.03161  20303296.8114       4721.0784       3678.7624
 -21849189.12748 -17025342.55264  17878704.9904        716.3444        558.1904
    536157.20146    417760.42461  20733525.9364       -776.2034       -604.8344
 -28679085.42447 -22043622.92261  19059912.8034       -490.0164       -381.8304
 90 12 27 20 56 59.9900000  0  4G15G21G23G11
  -7073645.27146  -5337650.25161  20289827.2644       4716.9534       3675.5484
 -21859898.819 8 -17033687.77724  17876668.076         711.625         554.513
    547818.634 6    426847.19621  20735740.389        -778.672        -606.757
 -28671660.302 7 -22037837.12822  19061329.826        -499.984        -389.598
 90 12 27 20 57 14.9900000  0  4G15G21G23G11
  -7144374.213 6  -5392763.63421  20276367.389        4713.469        3672.833
 -21870543.507 8 -17041982.35424  17874640.881         707.547         551.335
    559511.164 6    435958.20321  20737966.107        -780.469        -608.157
 -28664091.877 7 -22031939.69222  19062764.389        -509.250        -396.818
 90 12 27 20 57 29.9900000  0  4G15G21G23G11
  -7215049.481 6  -5447835.21821  20262920.225        4710.094        3670.203
 -21881126.047 8 -17050228.49924  17872627.389         703.641         548.291
    571231.94046    445091.21561  20740197.8574       -782.1254       -609.4484
 -28656383.40747 -22025933.11062  19064233.8344       -518.3444       -403.9044
 90 12 27 20 57 44.9900000  0  4G15G21G23G11
  -7285670.164 6  -5502864.26421  20249480.248        4705.938        3666.964
 -21891645.720 8 -17058425.66024  17870624.709         698.938         544.627
    582981.816 6    454246.91021  20742435.732        -784.562        -611.347
 -28648534.62147 -22019817.20162  19065726.4824       -528.1874       -411.5754
 90 12 27 20 57 59.9900000  0  4G15G21G23G11
  -7356228.41546  -5557844.65561  20236054.6004       4702.2664       3664.1034
 -21902095.487 8 -17066568.34824  17868637.240         694.781         541.388
    594767.838 6    463430.76321  20744676.803        -786.469        -612.833
 -28640538.72947 -22013586.66662  19067248.9674       -537.4844       -418.8194
 90 12 27 20 58 14.9900000  0  4G15G21G23G11
  -7426730.63346  -5612781.39161  20222634.3574       4697.9384       3660.7314
 -21912481.805 8 -17074661.60424  17866660.029         689.984         537.650
    606583.442 6    472637.67121  20746925.076        -789.016        -614.817
 -28632402.62447 -22007246.88262  19068793.8894       -547.4064       -426.5504
 90 12 27 20 58 29.9900000  0  4G15G21G23G11
  -7497175.38146  -5667673.33961  20209230.7484       4694.3914       3657.9674
 -21922803.583 8 -17082704.56724  17864696.701         685.953         534.509
    618429.51146    481868.31461  20749178.0764       -790.7664       -616.1814
 -28624125.52647 -22000797.22162  19070370.7094       -556.5164       -433.6494
 90 12 27 20 58 44.9900000  0  4G15G21G23G11
  -7567558.323 6  -5722517.14021  20195840.795        4689.734        3654.338
 -21933056.586 8 -17090693.94524  17862745.709         680.828         530.515
    630310.48746    491126.14961  20751439.0144       -793.6564       -618.4334
 -28615703.81447 -21994234.88461  19071974.9904       -566.6724       -441.5624
 90 12 27 20 58 59.9900000  0  4G15G21G23G11
  -7637878.047 6  -5777311.67721  20182455.553        4686.094        3651.502
 -21943239.62248 -17098628.80464  17860807.4904        676.7664        527.3504
    642227.69246    500412.22761  20753705.8424       -795.4374       -619.8214
 -28607136.746 7 -21987559.27122  19073605.826        -575.734        -448.624
 90 12 27 20 59 14.9900000  0  4G15G21G23G11
  -7708149.26246  -5832068.40361  20169083.5844       4683.1884       3649.2374
 -21953367.81148 -17106520.93164  17858880.0064        673.4384        524.7564
    654165.36446    509714.24561  20755982.1864       -796.4694       -620.6254
 -28598439.98847 -21980782.60862  19075261.8114       -584.0474       -455.1014
 90 12 27 20 59 29.9900000  0  4G15G21G23G11
  -7778359.62046  -5886777.70561  20155725.4984       4678.4694       3645.5604
 -21963428.855 8 -17114360.72824  17856965.178         668.344         520.787
    666136.070 6    519042.01521  20758259.529        -799.312        -622.841
 -28589601.472 7 -21973895.47222  19076939.975        -594.109        -462.942
 90 12 27 20 59 44.9900000  0  4G15G21G23G11
  -7848509.12046  -5941439.59161  20142375.6624       4674.8134       3642.7114
 -21973423.56548 -17122148.84364  17855062.6314        664.3284        517.6584
    678139.10746    528394.96261  20760544.8264       -801.0474       -624.1924
 -28580622.35147 -21966898.78061  19078647.8424       -603.0624       -469.9194
 90 12 27 20 59 59.9900000  0  4G15G21G23G11
  -7918603.93746  -5996058.87561  20129038.4514       4671.1094       3639.8254
 -21983358.28348 -17129890.20764  17853172.8894        660.2504        514.4814
    690168.10146    537768.13661  20762833.3574       -802.8754       -625.6174
 -28571509.483 7 -21959797.87121  19080383.701        -612.031        -476.907
 90 12 27 21  0 14.9900000  0  4G15G21G23G11
  -7988640.76446  -6050632.95961  20115711.7564       4667.0944       3636.6964
 -21993229.913 8 -17137582.41024  17851294.631         655.922         511.108
    702226.346 6    547164.12221  20765127.897        -804.937        -627.224
 -28562260.15747 -21952590.64062  19082146.4984       -621.2504       -484.0914
 90 12 27 21  0 29.9900000  0  4G15G21G23G11
  -8058620.94246  -6105162.90161  20102393.8574       4662.8594       3633.3974
 -22003040.25448 -17145226.85364  17849428.5534        651.3754        507.5654
    714311.81346    556581.29761  20767422.5224       -807.1874       -628.9774
 -28552876.58647 -21945278.80061  19083931.9434       -630.6414       -491.4084
 90 12 27 21  0 44.9900000  0  4G15G21G23G11
  -8128535.95346  -6159642.07661  20089090.0614       4658.8754       3630.2924
 -22012780.61548 -17152816.77364  17847573.5454        647.0784        504.2174
    726432.63246    566026.03461  20769733.4044       -809.1564       -630.5114
 -28543350.53047 -21937855.93062  19085743.4364       -639.7504       -498.5064
 90 12 27 21  0 59.9900000  0  4G15G21G23G11
  -8198393.16946  -6214076.20861  20075795.9364       4655.4384       3627.6144
 -22022458.90948 -17160358.32964  17845731.2014        643.4064        501.3564
    738581.219 6    575492.39921  20772044.061        -810.594        -631.631
 -28533690.38947 -21930328.58162  19087581.4204       -648.2344       -505.1184
 90 12 27 21  1 14.9900000  0  4G15G21G23G11
  -8268185.84346  -6268460.03861  20062514.0224       4650.6414       3623.8764
 -22032068.80248 -17167846.58964  17843902.6394        638.2974        497.3744
    750763.98646    584985.39261  20774360.4204       -813.3914       -633.8114
 -28523890.16147 -21922692.06961  19089447.7324       -658.0784       -512.7884
 90 12 27 21  1 29.9900000  0  4G15G21G23G11
  -8337914.400 6  -6322793.92621  20049245.897        4646.172        3620.394
 -22041610.67248 -17175281.85064  17842088.2794        633.6094        493.7224
    762980.25546    594504.50161  20776685.9594       -815.7814       -635.6744
 -28513950.65447 -21914947.03461  19091338.3034       -667.5004       -520.1304
 90 12 27 21  1 44.9900000  0  4G15G21G23G11
  -8407583.03046  -6377081.11061  20035986.5374       4642.8914       3617.8374
 -22051089.29648 -17182667.82664  17840283.9754        630.1094        490.9944
    775225.50346    604046.18161  20779018.1704       -816.9844       -636.6114
 -28503877.028 7 -21907097.49821  19093254.982        -675.734        -526.546
 90 12 27 21  1 59.9900000  0  4G15G21G23G11
  -8477191.35446  -6431321.29361  20022742.4904       4638.0784       3614.0874
 -22060504.65048 -17190004.49564  17838491.4514        625.1254        487.1104
    787499.62346    613610.36661  20781351.8264       -819.7034       -638.7304
 -28493669.74047 -21899143.80361  19095197.4434       -685.3914       -534.0714
 90 12 27 21  2 14.9900000  0  4G15G21G23G11
  -8546735.28346  -6485511.31961  20009508.2094       4635.0784       3611.7494
 -22069852.748 8 -17197288.75224  17836713.975         621.953         484.639
    799806.64846    623200.18561  20783696.7254       -820.5624       -639.3994
 -28483325.41347 -21891083.32461  19097163.9434       -693.2034       -540.1584
 90 12 27 21  2 29.9900000  0  4G15G21G23G11
  -8616227.66346  -6539661.15361  19996282.9904       4631.5164       3608.9734
 -22079146.88248 -17204530.96664  17834944.6314        618.2034        481.7174
    812133.117 6    632805.14721  20786041.428        -822.016        -640.532
 -28472857.94247 -21882926.88661  19099156.5454       -701.5474       -546.6604
 90 12 27 21  2 44.9900000  0  4G15G21G23G11
  -8685660.44946  -6593764.58261  19983067.9984       4626.3134       3604.9194
 -22088379.04348 -17211724.88864  17833187.6784        612.8754        477.5654
    824486.990 6    642431.46821  20788394.662        -825.047        -642.894
 -28462259.51347 -21874668.39861  19101175.8574       -711.4534       -554.3794
 90 12 27 21  2 59.9900000  0  4G15G21G23G11
  -8755024.38646  -6647814.34461  19969869.8424       4621.8134       3601.4124
 -22097540.29548 -17218863.55264  17831444.1784        608.2344        473.9494
    836877.339 6    652086.20021  20790751.709        -827.406        -644.732
 -28451521.717 7 -21866301.32821  19103216.732        -720.641        -561.538
 90 12 27 21  3 14.9900000  0  4G15G21G23G11
  -8824322.52546  -6701812.83561  19956683.1154       4618.1254       3598.5394
 -22106634.23548 -17225949.76464  17829713.5764        604.5004        471.0394
    849300.66046    661766.62361  20793113.0764       -828.8284       -645.8404
 -28440648.34947 -21857828.60761  19105286.7954       -728.9064       -567.9794
 90 12 27 21  3 29.9900000  0  4G15G21G23G11
  -8893554.663 6  -6755759.90121  19943508.412        4613.031        3594.570
 -22115660.86448 -17232983.53564  17827996.5144        599.2974        466.9854
    861756.47146    671472.35961  20795484.4044       -831.7034       -648.0804
 -28429640.073 7 -21849250.77421  19107382.412        -738.641        -575.564
 90 12 27 21  3 44.9900000  0  4G15G21G23G11
  -8962721.276 6  -6809655.89521  19930346.170        4608.984        3591.416
 -22124620.89248 -17239965.41064  17826290.1474        595.1564        463.7584
    874244.21446    681202.97861  20797863.8264       -833.5314       -649.5054
 -28418497.934 7 -21840568.62321  19109503.357        -747.203        -582.236
 90 12 27 21  3 59.9900000  0  4G15G21G23G11
  -9031831.367 6  -6863507.85121  19917197.014        4605.188        3588.458
 -22133523.72748 -17246902.71464  17824596.1314        591.3594        460.8004
    886754.91446    690951.48361  20800242.8264       -835.0474       -650.6864
 -28407231.934 7 -21831789.98221  19111645.037        -755.453        -588.665
 90 12 27 21  4 14.9900000  0  4G15G21G23G11
  -9100868.584 6  -6917303.04421  19904056.990        4599.719        3584.196
 -22142353.59248 -17253783.15564  17822916.8114        585.9064        456.5504
    899304.209 6    700730.07421  20802630.170        -838.219        -653.157
 -28395826.48747 -21822902.65462  19113817.0844       -765.3124       -596.3474
 90 12 27 21  4 29.9900000  0  4G15G21G23G11
  -9169829.73846  -6971038.94461  19890934.3894       4595.2034       3580.6784
 -22151107.194 8 -17260604.16724  17821251.889         581.375         453.019
    911895.014 6    710541.00621  20805026.264        -840.406        -654.862
 -28384279.035 7 -21813904.69122  19116012.311        -774.219        -603.287
 90 12 27 21  4 44.9900000  0  4G15G21G23G11
  -9238733.572 6  -7024730.19821  19877824.537        4591.266        3577.610
 -22159803.640 8 -17267380.64624  17819596.803         577.453         449.963
    924507.88246    720369.13061  20807426.7954       -842.0164       -656.1164
 -28372609.111 7 -21804811.29121  19118234.006        -782.469        -609.716
 90 12 27 21  4 59.9900000  0  4G15G21G23G11
  -9307565.519 6  -7078365.42821  19864726.154        4586.875        3574.188
 -22168428.711 8 -17274101.49324  17817956.873         573.094         446.567
    937157.497 6    730225.89521  20809830.154        -844.062        -657.711
 -28360802.765 7 -21795611.59021  19120482.959        -791.141        -616.473
 90 12 27 21  5 14.9900000  0  4G15G21G23G11
  -9376326.28846  -7131945.18861  19851640.2254       4582.1564       3570.5114
 -22176983.243 8 -17280767.37824  17816327.451         568.438         442.938
    949842.760 6    740110.43321  20812248.107        -846.359        -659.501
 -28348861.428 7 -21786306.70121  19122751.639        -800.109        -623.462
 90 12 27 21  5 29.9900000  0  4G15G21G23G11
  -9445023.75746  -7185475.62661  19838569.0294       4577.9844       3567.2614
 -22185475.384 8 -17287384.64724  17814711.123         564.328         439.736
    962555.375 6    750016.28121  20814664.811        -848.187        -660.925
 -28336793.671 7 -21776903.29621  19125049.842        -808.453        -629.963
 90 12 27 21  5 44.9900000  0  4G15G21G23G11
  -9513650.02446  -7238950.60161  19825508.3654       4572.7194       3563.1574
 -22193897.700 8 -17293947.51124  17813107.381         559.188         435.731
    975303.18946    759949.55561  20817091.9364       -851.0004       -663.1174
 -28324592.397 7 -21767395.86421  19127370.693        -817.828        -637.269
 90 12 27 21  5 59.9900000  0  4G15G21G23G11
  -9582212.949 6  -7292376.20721  19812461.865        4568.359        3559.761
 -22202258.248 8 -17300462.24424  17811516.529         554.906         432.394
    988077.92346    769903.80461  20819524.7014       -852.9374       -664.6274
 -28312266.214 7 -21757791.09321  19129716.701        -826.312        -643.880
 90 12 27 21  6 14.9900000  0  4G15G21G23G11
  -9650708.566 6  -7345749.37321  19799428.107        4564.141        3556.473
 -22210553.298 8 -17306925.93324  17809939.397         550.828         429.217
   1000883.00146    779881.69661  20821959.8184       -854.6724       -665.9784
 -28299812.07947 -21748086.61461  19132086.5374       -834.5164       -650.2724
 90 12 27 21  6 29.9900000  0  4G15G21G23G11
  -9719130.99046  -7399065.49661  19786406.6314       4559.1254       3552.5654
 -22218777.470 8 -17313334.39524  17808375.920         546.000         425.455
   1013724.08946    789887.64361  20824403.8344       -857.2034       -667.9504
 -28287224.801 7 -21738278.39021  19134483.451        -843.500        -657.273
 90 12 27 21  6 44.9900000  0  4G15G21G23G11
  -9787484.002 6  -7452327.54621  19773397.592        4554.547        3548.998
 -22226935.152 8 -17319691.04224  17806821.787         541.641         422.058
   1026596.94546    799918.35061  20826852.4434       -859.2344       -669.5334
 -28274509.010 7 -21728370.03521  19136902.928        -851.984        -663.884
 90 12 27 21  6 59.9900000  0  4G15G21G23G11
  -9855771.345 6  -7505538.40621  19760403.490        4550.188        3545.601
 -22235030.216 8 -17325998.89624  17805281.178         537.469         418.807
   1039497.17346                  20829307.4044       -861.0314
 -28261669.326 7                  19139346.553        -860.219
 90 12 27 21  7 14.9900000  0  4G15G21G23G11
  -9923997.08346  -7558701.28361  19747421.0294       4546.3284       3542.5934
 -22243066.665 8 -17332261.07324  17803752.412         533.813         415.958
   1052420.942 6                  20831767.678        -862.359
 -28248710.202 6                  19141810.623        -867.906
 90 12 27 21  7 29.9900000  0  4G15G21G23G11
  -9992150.793 6  -7611808.02721  19734451.904        4541.469        3538.807
 -22251034.33448 -17338469.65964  17802236.2644        529.1724        412.3424
   1065378.81346    830137.71961  20834230.3264       -864.7034       -673.7954
 -28235621.780 6 -21698068.46521  19144302.264        -876.562        -683.036
 90 12 27 21  7 44.9900000  0  4G15G21G23G11
 -10060239.776 6  -7664864.33521  19721494.248        4537.297        3535.556
 -22258940.885 8 -17344630.61524  17800731.318         525.281         409.310
   1078362.683 6    840254.93521  20836706.639        -866.266        -675.012
 -28222412.36846 -21687775.47261  19146813.8974       -884.4534       -689.1844
 90 12 27 21  7 59.9900000  0  4G15G21G23G11
 -10128263.730 6  -7717869.97521  19708550.193        4532.797        3532.050
 -22266786.32148 -17350743.95064  17799239.4124        521.0634        406.0234
   1091372.20446    850392.12961  20839182.8654       -868.0784       -676.4254
 -28209082.535 7 -21677388.63021  19149351.412        -892.594        -695.528
 90 12 27 21  8 14.9900000  0  4G15G21G23G11
 -10196215.05446  -7770818.99961  19695624.0684       4528.0944       3528.3854
 -22274563.71848 -17356804.26664  17797758.9514        516.6564        402.5894
   1104414.10046    860554.55161  20841663.0294       -870.1254       -678.0194
 -28195625.768 7 -21666902.89321  19151914.811        -900.937        -702.029
 90 12 27 21  8 29.9900000  0  4G15G21G23G11
 -10264105.175 6  -7823720.35721  19682702.201        4523.531        3524.830
 -22282284.49148 -17362820.46564  17796288.6784        512.3914        399.2654
   1117477.34246    870733.62161  20844147.8344       -872.0314       -679.5054
 -28182053.89247 -21656327.45061  19154499.6394       -909.0474       -708.3484
 90 12 27 21  8 44.9900000  0  4G15G21G23G11
 -10331920.646 6  -7876563.51421  19669799.498        4518.969        3521.274
 -22289935.61748 -17368782.38764  17794833.8344        508.1884        395.9904
   1130575.11046    880939.58961  20846642.8814       -873.9374       -680.9904
 -28168354.290 7 -21645652.48921  19157103.326        -917.125        -714.643
 90 12 27 21  8 59.9900000  0  4G15G21G23G11
 -10399668.424 6  -7929353.96421  19656906.139        4513.328        3516.879
 -22297524.37848 -17374695.71564  17793389.6704        502.9224        391.8874
   1143700.14346    891166.79961  20849136.0924       -876.8124       -683.2314
 -28154534.855 7 -21634884.14721  19159732.873        -926.203        -721.717
 90 12 27 21  9 14.9890000  0  4G15G21G23G11
 -10467337.82146  -7982083.32561  19644027.1734       4509.9694       3514.2614
 -22305044.52748 -17380555.58864  17791958.2354        499.9694        389.5864
   1156856.95246    901418.76561  20851642.6964       -877.3914       -683.6814
 -28140591.098 7 -21624018.93321  19162387.384        -932.969        -726.989
 90 12 27 21  9 29.9890000  0  4G15G21G23G11
 -10534952.320 6  -8034769.89921  19631161.181        4505.203        3510.548
 -22312511.48448 -17386373.99464  17790539.2514        495.5474        386.1404
   1170032.743 6    911685.51721  20854144.954        -879.453        -685.288
 -28126536.15646 -21613067.09661  19165059.8454       -941.1254       -733.3444
 90 12 27 21  9 44.9890000  0  4G15G21G23G11
 -10602485.167 6  -8087392.84621  19618308.876        4499.750        3506.299
 -22319902.969 8 -17392133.60724  17789130.868         490.516         382.220
   1183248.765 6    921983.62721  20856662.439        -882.156        -687.394
 -28112349.591 6 -21602012.68121  19167759.751        -949.891        -740.175
 90 12 27 21  9 59.9890000  0  4G15G21G23G11
 -10669940.023 6  -8139955.04021  19605473.907        4494.938        3502.549
 -22327222.668 8 -17397837.27724  17787736.329         486.156         378.823
   1196501.339 6    932310.20321  20859188.923        -884.141        -688.941
 -28098035.51647 -21590858.91861  19170484.4704       -957.9534       -746.4574
 90 12 27 21 10 14.9890000  0  4G15G21G23G11
 -10737320.442 6  -8192459.21721  19592651.181        4489.250        3498.117
 -22334474.918 8 -17403488.39424  17786359.142         480.953         374.769
   1209786.06445    942661.84161  20861711.8454       -887.0004       -691.1694
 -28083598.73147 -21579609.53761  19173235.4934       -966.8124       -753.3604
 90 12 27 21 10 29.9890000  0  4G15G21G23G11
 -10804628.76946  -8244907.22361  19579841.8844       4485.0474       3494.8424
 -22341662.165 8 -17409088.86124  17784989.728         477.188         371.834
   1223100.253 5    953036.43921  20864243.251        -888.391        -692.252
 -28069042.21047 -21568266.86961  19176003.7124       -974.2034       -759.1194
 90 12 27 21 10 44.9890000  0  4G15G21G23G11
 -10871867.844 6  -8297301.26021  19567047.228        4479.875        3490.812
 -22348787.339 8 -17414640.96124  17783634.064         472.547         368.218
   1236440.836 5    963431.59121  20866785.884        -890.672        -694.030
 -28054369.407 7 -21556833.57521  19178795.009        -982.469        -765.560
